[[[{"header":{"parameterUnit":"kt","parameterCategory":2,"dx":1,"dy":1,"la1":29.587661999999998,"la2":31.0,"lo1":-88.76705300000003,"lo2":-86.6583820000003,"nx":115,"ny":88,"refTime":"2022-10-03T06:00:00:Z","depth":0,"parameterNumber":1,"parameterNumberName":"U-component_of_WINDS"},"data":[6.7855,6.7855,6.7781,6.7704,6.7583,6.7462,6.7302,6.7053,6.7053,6.7096,6.7096,6.7096,6.6877,6.6331,6.6379,6.6474,6.6614,6.6705,6.6705,6.6751,6.6841,6.6929,6.7016,6.706,6.7151,6.7316,6.7513,6.7516,6.7264,6.653,6.5898,6.5579,6.4278,6.4215,6.4558,6.5256,6.6355,6.7091,6.7956,6.8485,6.8281,6.8127,6.7965,6.7892,6.7855,6.7855,6.7855,6.7855,6.7855,6.7855,6.7892,6.7965,6.8073,6.8211,6.8377,6.8529,6.8705,6.8908,6.8999,6.9133,6.9254,6.9277,6.9273,6.9277,6.9448,6.9505,6.9543,6.9724,7.02,7.1605,7.3336,7.3117,7.4365,7.6796,7.7778,7.5991,7.3803,7.1912,7.0217,6.9773,6.9811,6.9811,6.9773,6.9773,6.9811,6.9811,6.9811,6.9821,6.9793,6.9831,6.9821,6.9849,6.9883,6.9849,6.9793,6.978,6.9875,6.9694,6.9587,6.9603,6.9634,6.9729,6.9768,6.98,6.9773,6.9745,6.9755,6.9793,6.9783,6.9783,6.9773,6.9762,6.9773,6.9793,6.9811,6.7818,6.7818,6.747,6.7307,6.726,6.6877,6.6521,6.6283,6.6234,6.6247,6.6283,6.6087,6.5921,6.5921,6.6073,6.6087,6.6234,6.6379,6.6474,6.6521,6.6521,6.666,6.6705,6.6705,6.6796,6.6929,6.7102,6.7224,6.7307,6.7031,6.638,6.55,6.5204,6.5166,6.5273,6.5783,6.6439,6.7501,6.7908,6.8174,6.8145,6.8039,6.7892,6.7855,6.7855,6.7855,6.7855,6.7855,6.7855,6.7892,6.7929,6.804,6.8149,6.8254,6.8386,6.8473,6.8685,6.8762,6.8833,6.8911,6.9048,6.9123,6.9074,6.9143,6.9374,6.9428,6.9373,6.9486,6.9599,7.0843,7.318,7.4612,7.6423,7.8292,7.8272,7.7681,7.5235,7.2895,7.1281,6.9762,6.9752,6.9752,6.9752,6.9762,6.9762,6.9762,6.9762,6.9762,6.9752,6.9705,6.9653,6.9667,7.1331,7.0928,6.978,6.9913,7.0213,7.0104,7.02,6.9819,6.9587,6.9619,6.9663,6.9704,6.973,6.9705,6.9717,6.9717,6.974,6.9789,6.9729,6.9717,6.9729,6.9729,6.9752,6.7151,6.7066,6.6885,6.6796,6.6751,6.6427,6.6234,6.6087,6.5972,6.5783,6.5663,6.5557,6.5557,6.5732,6.5819,6.5886,6.5936,6.6136,6.6234,6.6331,6.6379,6.6427,6.6474,6.6567,6.6567,6.6567,6.6787,6.6921,6.6966,6.6993,6.7197,6.6734,6.7393,6.7437,6.6712,6.7558,6.8186,6.7929,6.7781,6.7818,6.7779,6.7779,6.774,6.7779,6.7817,6.7855,6.7855,6.7855,6.7855,6.7892,6.8003,6.8113,6.8221,6.8356,6.8516,6.8573,6.8685,6.8762,6.8779,6.8817,6.8846,6.8911,6.8908,6.9037,6.9239,6.9215,6.9193,6.9832,6.9945,7.1357,7.3695,7.5362,7.7132,7.8472,7.8723,7.831,7.6423,7.4081,7.2263,7.0759,7.0031,7.0031,6.9942,6.9942,6.9701,6.9701,6.9596,6.9543,6.9543,6.955,6.9448,7.0108,7.3937,7.4576,7.1785,7.0879,7.1013,7.0938,7.0994,7.0598,7.0202,6.9915,6.9609,6.9619,6.9649,6.9663,6.9663,6.9625,6.9639,6.9718,6.9718,6.9704,6.9704,6.9704,6.978,6.6567,6.651,6.651,6.6379,6.6234,6.5936,6.5819,6.5783,6.561,6.5432,6.5268,6.5249,6.5323,6.545,6.5557,6.561,6.5627,6.5835,6.6023,6.6087,6.6234,6.6331,6.6379,6.6427,6.6474,6.651,6.6474,6.6567,6.666,6.6751,6.6921,6.7169,6.7606,6.8276,6.797,6.7897,6.8528,6.8467,6.8235,6.8038,6.7568,6.7466,6.7543,6.7583,6.7738,6.7779,6.778,6.7818,6.7855,6.7892,6.8003,6.8112,6.8214,6.8447,6.8542,6.8603,6.8619,6.8677,6.8668,6.8648,6.8701,6.8738,6.878,6.8899,6.8997,6.8961,6.9311,7.0059,7.1096,7.277,7.4434,7.5811,7.7199,7.8261,7.9112,7.8345,7.7562,7.5416,7.327,7.1917,7.071,7.0371,7.024,7.0071,6.9751,6.9581,6.9468,6.9411,6.9449,6.9482,6.945,7.041,7.4797,7.5966,7.383,7.2416,7.2792,7.2792,7.2475,7.1743,7.0936,7.105,7.1164,7.0502,6.9647,6.9603,6.9603,6.9663,6.9663,6.9603,6.9619,6.9634,6.9634,6.977,6.9852,6.6474,6.6427,6.651,6.6185,6.5732,6.5268,6.5046,6.5025,6.5081,6.4968,6.4968,6.4968,6.5025,6.5137,6.5268,6.5378,6.5397,6.5575,6.5732,6.5732,6.5951,6.6136,6.6185,6.6331,6.6331,6.6427,6.6474,6.6427,6.6474,6.6521,6.6567,6.6742,6.7358,6.802,6.8774,6.8702,6.9001,6.8982,6.8629,6.793,6.7264,6.7096,6.7139,6.7302,6.7503,6.7662,6.7665,6.7743,6.7855,6.7929,6.804,6.8185,6.8248,6.841,6.8404,6.8504,6.8765,6.8864,6.8975,6.9279,6.913,6.8924,6.8668,6.9143,6.9645,6.9778,7.0432,7.1179,7.2814,7.4458,7.5235,7.6434,7.7427,7.8381,7.8923,7.8575,7.7888,7.6712,7.4797,7.3394,7.2297,7.1755,7.1621,7.1545,7.1395,6.9974,6.956,6.9434,6.9442,6.956,6.9563,6.9776,7.2876,7.4451,7.3447,7.4359,7.466,7.4483,7.4169,7.3478,7.2636,7.2545,7.2684,7.139,7.0104,6.9894,7.0045,7.0008,7.0121,6.9986,6.9873,6.9722,6.9689,6.9843,7.024,6.5575,6.5557,6.561,6.5504,6.5213,6.5025,6.4911,6.4911,6.4911,6.4911,6.4911,6.4911,6.4911,6.4911,6.5025,6.5081,6.5137,6.5378,6.545,6.5557,6.5732,6.5783,6.5886,6.5936,6.6037,6.6087,6.6136,6.6234,6.6234,6.6234,6.6283,6.6511,6.8709,6.9011,6.9313,6.9881,7.0279,6.948,6.8506,6.7208,6.6727,6.6521,6.6787,6.7009,6.7385,6.7543,6.7662,6.7743,6.7855,6.7892,6.8003,6.8111,6.8271,6.841,6.8479,6.867,6.9226,6.9894,7.0076,7.067,7.0665,7.0363,7.0134,7.0556,7.0996,7.1398,7.1971,7.2642,7.443,7.5878,7.6395,7.6949,7.7758,7.8536,7.8598,7.8696,7.8202,7.7595,7.6388,7.4927,7.413,7.3583,7.3196,7.3122,7.2621,7.1295,7.0534,7.0497,7.0655,7.0927,7.1083,7.0634,7.2147,7.4188,7.5367,7.6434,7.6275,7.5956,7.5671,7.5198,7.4335,7.4121,7.4356,7.2964,7.1182,7.1201,7.1748,7.1352,7.0879,7.0704,7.0607,7.0951,7.12,7.1032,7.1502,6.5025,6.4911,6.5025,6.5025,6.4946,6.4911,6.4911,6.4911,6.4911,6.4911,6.4911,6.4911,6.4911,6.4911,6.4911,6.4911,6.5025,6.5081,6.5158,6.5323,6.545,6.5504,6.5557,6.5663,6.5663,6.568,6.5732,6.5835,6.587,6.587,6.587,6.6345,6.8297,6.9249,7.0107,7.1434,7.0664,6.9608,6.7906,6.6847,6.6252,6.6123,6.627,6.651,6.6787,6.7009,6.726,6.7434,6.7702,6.7817,6.7928,6.8074,6.8308,6.8924,6.9152,6.9268,7.0418,7.1602,7.1821,7.2638,7.2715,7.1791,7.2233,7.2965,7.3588,7.4146,7.4418,7.4861,7.5864,7.6754,7.7346,7.7194,7.7302,7.8006,7.8453,7.8482,7.8361,7.7907,7.764,7.6445,7.6289,7.5608,7.4637,7.4516,7.4058,7.2731,7.2076,7.2308,7.2622,7.3232,7.3329,7.2263,7.351,7.6153,7.7491,7.7627,7.747,7.732,7.7258,7.6865,7.6255,7.602,7.6084,7.5698,7.5072,7.4491,7.3717,7.278,7.2162,7.1897,7.1538,7.2256,7.2803,7.2708,7.2969,6.4946,6.4911,6.4946,6.4946,6.4946,6.5228,6.5157,6.5052,6.5052,6.5122,6.4981,6.5122,6.517,6.5052,6.4911,6.4889,6.4946,6.4853,6.4911,6.5025,6.5046,6.4954,6.5031,6.5252,6.5198,6.5288,6.5288,6.5307,6.5288,6.5342,6.5504,6.6038,6.7552,6.8745,6.962,7.0337,6.9802,6.9014,6.7642,6.6607,6.5894,6.5767,6.587,6.6023,6.627,6.6474,6.6705,6.7016,6.7333,6.7613,6.7812,6.7929,6.8695,7.0191,7.057,7.102,7.1761,7.2461,7.2864,7.3232,7.3238,7.2984,7.4239,7.4935,7.5486,7.6236,7.5943,7.6166,7.6797,7.754,7.7614,7.7018,7.6461,7.7018,7.765,7.7983,7.7978,7.8199,7.801,7.7894,7.7704,7.7359,7.6314,7.583,7.5488,7.4487,7.4046,7.4355,7.5072,7.5709,7.5147,7.4137,7.551,7.8077,7.8436,7.8374,7.8217,7.8031,7.8127,7.8081,7.8277,7.8044,7.7669,7.7575,7.8039,7.7486,7.5681,7.4523,7.3403,7.2914,7.2444,7.3215,7.48,7.4625,7.4726,6.4911,6.4911,6.4911,6.4911,6.5228,6.6939,6.7722,6.7722,6.7878,6.7245,6.6353,6.6247,6.6223,6.5777,6.5147,6.4621,6.4773,6.4597,6.4443,6.4527,6.4527,6.4408,6.4349,6.4433,6.4609,6.4492,6.4551,6.469,6.469,6.4862,6.4884,6.5272,6.6621,6.7998,6.8846,6.9187,6.8769,6.8592,6.7207,6.6232,6.5735,6.545,6.5504,6.5715,6.5921,6.6087,6.6283,6.6604,6.6913,6.7205,6.7417,6.7513,6.8038,6.8767,6.8989,6.9137,6.9951,7.1169,7.3017,7.3903,7.3759,7.3429,7.4799,7.5501,7.5945,7.6909,7.6612,7.6649,7.7466,7.6834,7.5349,7.468,7.4455,7.4789,7.5532,7.6463,7.6831,7.7946,7.8055,7.8199,7.8121,7.8077,7.7732,7.7294,7.6814,7.6371,7.5966,7.6865,7.765,7.7539,7.713,7.6865,7.7792,7.8416,7.8515,7.868,7.8741,7.8704,7.8651,7.8531,7.8643,7.8119,7.8511,7.8652,7.7236,7.6221,7.6146,7.5501,7.3424,7.2539,7.3098,7.4733,7.647,7.6644,7.6449,6.6283,6.6318,6.6283,6.6283,6.6599,6.8371,6.9114,6.9107,6.8678,6.7942,6.7013,6.7503,6.7581,6.7177,6.6381,6.6005,6.6033,6.5574,6.4823,6.4851,6.4851,6.435,6.3866,6.3921,6.3983,6.3824,6.3852,6.4002,6.4037,6.4123,6.4123,6.4263,6.5317,6.675,6.7589,6.8459,6.8104,6.834,6.7244,6.5688,6.5264,6.5193,6.5268,6.5397,6.5557,6.568,6.5783,6.6037,6.6391,6.6763,6.7046,6.7229,6.7702,6.9256,6.9256,6.9107,6.9956,7.0952,7.2652,7.3279,7.365,7.3763,7.4022,7.4392,7.4429,7.5762,7.6132,7.5871,7.4903,7.4086,7.3418,7.2972,7.2898,7.3195,7.3789,7.4755,7.5683,7.6834,7.8023,7.8169,7.8353,7.8311,7.8273,7.7792,7.7572,7.7274,7.7165,7.7986,7.8283,7.8283,7.8283,7.8356,7.839,7.8419,7.8552,7.8642,7.8704,7.8704,7.8734,7.8718,7.811,7.7539,7.761,7.7538,7.5972,7.444,7.4244,7.3855,7.2577,7.286,7.4378,7.593,7.7081,7.7537,7.7862,6.8882,6.9021,6.8882,6.8952,6.9161,6.9097,6.9237,6.9311,6.784,6.7037,6.7142,6.8399,6.8928,6.8793,6.7913,6.757,6.7572,6.7406,6.6822,6.5858,6.5686,6.4863,6.4244,6.3858,6.3996,6.3518,6.3346,6.341,6.3445,6.3509,6.3509,6.3711,6.4143,6.5072,6.606,6.8002,6.8433,6.7587,6.7493,6.6342,6.5567,6.5074,6.5003,6.5046,6.5102,6.5213,6.5378,6.561,6.589,6.6374,6.6604,6.7016,6.7536,6.9288,6.9919,6.9809,7.1212,7.2061,7.2504,7.1249,7.1396,7.2136,7.2579,7.2727,7.2173,7.2431,7.3169,7.3975,7.1895,7.093,7.1375,7.1932,7.1932,7.2192,7.2712,7.3455,7.4309,7.5349,7.7057,7.7947,7.8134,7.8208,7.8134,7.832,7.8207,7.8171,7.8283,7.832,7.8357,7.8357,7.8357,7.8356,7.8425,7.8457,7.8487,7.8611,7.8704,7.8704,7.8659,7.8427,7.7998,7.678,7.6234,7.6185,7.4859,7.3056,7.2557,7.254,7.237,7.2632,7.4673,7.7349,7.7612,7.8264,7.91,6.9021,6.9021,6.9021,7.0114,7.1725,7.169,7.1586,7.117,6.8948,6.7967,6.8305,6.9364,6.9924,6.9405,6.8436,6.7781,6.7918,6.7636,6.712,6.6882,6.664,6.6255,6.5575,6.5002,6.4493,6.422,6.3606,6.3058,6.3228,6.3125,6.3123,6.3123,6.3426,6.5233,6.7226,6.9825,7.0895,6.9952,6.8763,6.6882,6.6495,6.5615,6.4981,6.4911,6.4911,6.4968,6.5081,6.5193,6.5503,6.5978,6.6451,6.6877,6.7526,6.8179,6.8628,6.8776,6.8998,6.9219,6.933,6.8887,6.8961,6.9994,7.0658,7.1101,7.0732,7.0175,7.0909,7.1788,7.0261,6.8776,6.9333,6.9816,7.0038,7.0521,7.1078,7.1747,7.2638,7.3678,7.5497,7.6723,7.65,7.5943,7.6537,7.8134,7.7986,7.7948,7.7726,7.7391,7.7503,7.7541,7.7838,7.8244,7.835,7.8422,7.8419,7.8617,7.8704,7.8704,7.8659,7.8389,7.752,7.5581,7.4734,7.5048,7.4056,7.1894,7.2216,7.3959,7.3755,7.319,7.6508,8.0392,8.0617,8.0676,8.1221,7.0605,7.0504,6.9924,7.0924,7.2863,7.2356,7.2207,7.1841,6.9335,6.8681,7.0131,7.0644,7.0908,7.059,6.9333,6.8912,6.8878,6.8577,6.8095,6.7858,6.7554,6.7167,6.6634,6.5896,6.5456,6.533,6.4177,6.3433,6.3435,6.3061,6.2959,6.2823,6.2789,6.5108,6.7335,6.9359,7.0776,7.0746,7.0138,6.8255,6.7621,6.6213,6.5544,6.5016,6.4911,6.4911,6.4911,6.4968,6.5375,6.5841,6.6342,6.6905,6.7526,6.7777,6.804,6.8076,6.8113,6.8187,6.815,6.804,6.7855,6.8261,6.885,6.9624,6.9585,6.9023,6.9198,6.9231,6.8962,6.8479,6.8516,6.8479,6.8479,6.8702,6.9221,6.989,7.0781,7.1821,7.3158,7.3084,7.3121,7.3975,7.5869,7.7651,7.7614,7.7466,7.6834,7.6314,7.6242,7.6242,7.7281,7.7837,7.8241,7.8385,7.849,7.8585,7.8704,7.8704,7.8704,7.8472,7.809,7.5966,7.4745,7.4271,7.3703,7.3981,7.4647,7.5748,7.7074,7.8361,8.0734,8.3021,8.333,8.342,8.306,7.2972,7.29,7.1385,7.1419,7.2425,7.1521,7.1477,7.1625,6.869,6.8997,7.1291,7.153,7.1223,7.1506,7.0992,7.0756,7.106,7.0693,6.9752,6.8979,6.8576,6.815,6.7554,6.7158,6.6829,6.6701,6.5417,6.4712,6.4306,6.3398,6.2957,6.2481,6.2687,6.4556,6.6716,6.8576,6.9804,7.1817,7.1592,7.005,6.8677,6.7269,6.653,6.5439,6.5052,6.4911,6.4946,6.5025,6.5355,6.5733,6.623,6.6787,6.726,6.7589,6.7781,6.7818,6.7855,6.7855,6.7892,6.7855,6.7855,6.7892,6.8113,6.8479,6.873,6.8489,6.841,6.8521,6.8664,6.8404,6.8404,6.8404,6.8404,6.8553,6.8739,6.9147,6.9593,7.0484,7.0447,6.9741,7.067,7.2638,7.4532,7.5832,7.6092,7.5795,7.52,7.5275,7.52,7.5495,7.6574,7.7764,7.8206,7.8457,7.8524,7.8622,7.871,7.8704,7.8704,7.8584,7.821,7.7595,7.6153,7.5671,7.5397,7.6593,7.7623,7.9524,8.1368,8.3185,8.4269,8.4857,8.5268,8.5498,8.5092,7.2091,7.2464,7.1106,7.106,7.1974,7.1128,7.1002,7.1094,6.8212,6.8619,7.0391,6.9565,6.9728,7.0992,7.1036,7.0807,7.076,7.0645,7.0295,7.0161,7.0041,6.9739,6.9181,6.8374,6.8082,6.8136,6.6686,6.5715,6.4872,6.423,6.4028,6.3787,6.3122,6.4454,6.6679,6.8024,6.9578,7.244,7.228,7.1564,7.0367,6.8501,6.7375,6.6425,6.565,6.4911,6.4911,6.5025,6.5178,6.5539,6.5987,6.6541,6.703,6.7393,6.7628,6.7781,6.7855,6.7855,6.7855,6.7855,6.7855,6.7892,6.7966,6.811,6.8279,6.8377,6.8404,6.8373,6.8404,6.8404,6.8404,6.8404,6.8404,6.8404,6.8404,6.8404,6.859,6.9184,6.9259,6.9296,7.0224,7.1895,7.2638,7.3975,7.4309,7.4012,7.4086,7.4198,7.4418,7.4708,7.609,7.7912,7.8244,7.8528,7.8627,7.8686,7.871,7.8704,7.8704,7.8472,7.7724,7.708,7.7108,7.7071,7.6734,7.7586,7.8473,8.2042,8.5321,8.5915,8.6509,8.6887,8.7074,8.7527,8.7374,7.0563,7.1128,6.9949,7.0083,7.0854,7.0066,7.0048,6.9748,6.7479,6.7893,6.9819,6.8087,6.8501,7.0597,7.076,7.053,7.053,7.053,7.053,7.0463,7.0463,7.0463,7.0328,6.9759,6.9403,6.9113,6.8116,6.6847,6.6535,6.6199,6.5653,6.5156,6.409,6.472,6.6692,6.7352,6.9469,7.1413,7.2516,7.2291,7.1571,7.0226,6.8642,6.7269,6.6425,6.565,6.525,6.5116,6.5249,6.5593,6.5951,6.6412,6.682,6.7234,6.7507,6.7667,6.7781,6.7855,6.7855,6.7855,6.7855,6.7892,6.7929,6.8038,6.8211,6.8275,6.8308,6.8377,6.841,6.8404,6.8404,6.8404,6.8404,6.8404,6.8404,6.8404,6.8442,6.8553,6.8739,6.9259,6.9853,7.0038,7.0521,7.1301,7.145,7.1598,7.2077,7.2638,7.3266,7.3745,7.5351,7.743,7.8167,7.8557,7.8654,7.8748,7.8741,7.8704,7.8704,7.8404,7.747,7.7395,7.7873,7.7948,7.8539,7.8981,7.9241,8.2242,8.5936,8.7509,8.8745,8.839,8.8143,8.8608,8.8427,6.898,6.9524,6.8592,6.8771,6.9543,6.898,6.8836,6.8936,6.6614,6.7126,6.9732,6.7577,6.7848,6.9945,7.0481,7.0563,7.053,7.053,7.053,7.053,7.053,7.053,7.0496,7.053,7.0295,7.0027,6.9235,6.8719,6.8271,6.8037,6.7468,6.6483,6.5425,6.527,6.66,6.6985,6.8387,7.0406,7.2036,7.2592,7.2245,7.1881,7.0085,6.8361,6.7199,6.646,6.5157,6.5152,6.539,6.5716,6.6023,6.6402,6.6796,6.7254,6.7344,6.7507,6.7704,6.7855,6.7855,6.7855,6.7855,6.7855,6.7892,6.7892,6.8036,6.8177,6.8316,6.8386,6.8377,6.8404,6.8404,6.8404,6.8404,6.8404,6.8404,6.8404,6.8404,6.8479,6.8479,6.8999,7.0596,7.0187,6.9407,6.911,6.8887,6.9513,7.0219,7.1194,7.2047,7.2681,7.402,7.6608,7.7886,7.8467,7.868,7.871,7.8704,7.8704,7.8704,7.8629,7.8247,7.8202,7.8621,7.9204,8.0881,8.1484,8.258,8.4344,8.6546,8.8083,8.8744,8.8944,8.9017,8.9055,8.8925,6.8859,6.9662,6.8413,6.8445,6.9156,6.8836,6.8836,6.8598,6.6236,6.6598,6.8758,6.7126,6.7403,6.9583,7.0316,7.053,7.053,7.053,7.053,7.0563,7.0563,7.0563,7.053,7.053,7.0448,7.0332,6.983,6.9997,6.9383,6.8568,6.8031,6.7568,6.6507,6.6157,6.6476,6.6889,6.8203,6.9532,7.0749,7.1933,7.2786,7.245,7.093,6.9311,6.7938,6.6601,6.5298,6.5222,6.5334,6.552,6.5734,6.6159,6.6701,6.6905,6.7139,6.7426,6.7742,6.7818,6.7855,6.7855,6.7855,6.7855,6.7892,6.8002,6.8074,6.8182,6.8393,6.8377,6.8404,6.8404,6.8404,6.8442,6.8516,6.8553,6.859,6.8553,6.8887,6.8999,6.9147,7.0038,7.1301,7.1301,7.0298,6.9816,6.8999,6.9444,7.0373,7.1268,7.2641,7.2943,7.4571,7.6781,7.7838,7.8462,7.8673,7.8704,7.8704,7.8704,7.8704,7.8734,7.8763,7.8822,7.8906,7.9073,8.0986,8.3378,8.6208,8.8158,8.7864,8.79,8.8652,8.8931,8.8719,8.8644,8.8858,6.8744,6.9563,6.8373,6.8378,6.9107,6.8621,6.7998,6.7234,6.5536,6.5817,6.6871,6.6352,6.688,6.9047,6.9813,7.0066,7.0233,7.0233,7.0399,7.0481,7.0316,7.0233,7.0233,6.9982,6.9898,6.9898,6.9898,6.9662,6.9458,6.8984,6.9034,6.888,6.7936,6.7389,6.74,6.7299,6.8076,6.898,7.0434,7.1829,7.2436,7.3154,7.2162,7.0754,6.9241,6.7657,6.6284,6.573,6.5314,6.5375,6.554,6.6049,6.6437,6.6748,6.7053,6.7426,6.7705,6.7855,6.7855,6.7855,6.7855,6.7855,6.7892,6.7966,6.8002,6.8111,6.8219,6.8316,6.8345,6.8404,6.8442,6.9296,6.9556,6.9741,7.041,7.1078,7.1413,7.1115,7.1487,7.2229,7.3306,7.3269,7.1821,7.0187,6.9333,6.9667,7.0633,7.1973,7.3569,7.498,7.6797,7.8047,7.8281,7.868,7.8704,7.8704,7.8704,7.8704,7.8734,7.8763,7.8784,7.8878,7.8998,7.9316,8.1383,8.3664,8.5945,8.6971,8.7364,8.7537,8.7348,8.7273,8.7725,8.8314,8.8601,6.8938,6.9803,6.8584,6.868,6.9355,6.8357,6.7286,6.5996,6.5088,6.5272,6.6583,6.5719,6.674,6.8598,6.9156,6.9417,6.9761,6.9846,6.9982,7.015,7.0015,6.9931,6.9898,6.959,6.9156,6.9068,6.9156,6.9244,6.9331,6.959,6.9581,6.9683,6.908,6.8325,6.8271,6.843,6.8256,6.8836,7.0359,7.1758,7.2338,7.2878,7.2556,7.1071,6.9945,6.8572,6.7234,6.6025,6.5328,6.5319,6.5593,6.5962,6.6388,6.6712,6.7096,6.7507,6.7743,6.7855,6.7855,6.7855,6.7855,6.7855,6.7855,6.7855,6.7892,6.7929,6.811,6.8211,6.8312,6.841,6.8479,6.9779,7.0674,7.1227,7.1932,7.3232,7.3901,7.3826,7.3752,7.3938,7.5052,7.5572,7.2972,7.093,7.0261,7.0373,7.1865,7.3612,7.4792,7.6422,7.8092,7.8487,7.868,7.8673,7.8704,7.8704,7.8704,7.8704,7.8763,7.8784,7.885,7.8906,7.9366,7.9949,8.1545,8.3279,8.4092,8.4824,8.5456,8.6118,8.5707,8.5162,8.5594,8.6081,8.6802,7.0686,7.085,6.9738,6.9387,6.9451,6.8389,6.7742,6.7259,6.6093,6.6086,6.7183,6.6625,6.6931,6.8486,6.898,6.9156,6.9331,6.9331,6.9417,6.959,6.9417,6.9504,6.9676,6.9298,6.8803,6.8173,6.8478,6.8836,6.9068,6.9298,6.959,6.9864,6.9733,6.9101,6.8135,6.8225,6.8642,6.9026,7.0248,7.134,7.2763,7.2436,7.1759,7.0657,6.9874,6.8818,6.734,6.6095,6.5328,6.5304,6.5557,6.6073,6.6593,6.6877,6.7102,6.7706,6.7781,6.7855,6.7855,6.7855,6.7855,6.7855,6.7855,6.7855,6.7892,6.7928,6.8108,6.8211,6.8316,6.8377,6.8553,6.9964,7.0785,7.1264,7.2341,7.3232,7.3752,7.4792,7.5126,7.5349,7.5683,7.6055,7.4012,7.2007,7.1375,7.1301,7.3464,7.5207,7.6015,7.7157,7.8081,7.8659,7.868,7.8704,7.8704,7.8704,7.8704,7.8734,7.8822,7.885,7.8822,7.904,7.9369,8.0214,8.082,8.1989,8.299,8.3234,8.3725,8.4558,8.4275,8.3142,8.3256,8.386,8.3633,7.147,7.1978,7.1077,7.1017,7.1273,6.9708,6.8547,6.7645,6.6293,6.6068,6.6512,6.6336,6.6879,6.8141,6.8355,6.8445,6.8535,6.8747,6.898,6.9156,6.9013,6.9013,6.9101,6.8714,6.8445,6.8297,6.8206,6.8297,6.8625,6.8859,6.9244,6.9276,6.9728,6.9264,6.8716,6.9018,6.9281,6.9398,7.0369,7.1404,7.2314,7.2411,7.226,7.1829,7.0305,6.8914,6.7434,6.606,6.5455,6.5413,6.561,6.5987,6.6474,6.6751,6.7102,6.755,6.7743,6.7855,6.7855,6.7855,6.7855,6.7855,6.7855,6.7855,6.7892,6.8036,6.8177,6.8248,6.8353,6.8415,6.8516,7.0001,7.0818,7.1231,7.2378,7.3195,7.3715,7.5609,7.7057,7.676,7.6129,7.624,7.5497,7.3826,7.3121,7.3529,7.5577,7.6095,7.694,7.76,7.8412,7.8691,7.871,7.8704,7.8704,7.8704,7.8704,7.8763,7.8841,7.8906,7.8988,7.9211,7.9461,7.9594,7.9896,8.1028,8.1254,8.1519,8.184,8.1519,8.099,8.0764,8.0537,8.0537,8.0311,7.2327,7.3396,7.2546,7.268,7.3025,7.1313,6.9609,6.8321,6.713,6.6679,6.6261,6.6196,6.6808,6.7838,6.7931,6.7838,6.8023,6.8297,6.8568,6.8892,6.8568,6.851,6.8387,6.8082,6.8114,6.8206,6.8114,6.8023,6.8206,6.8747,6.8925,6.878,6.9364,6.959,6.9178,6.9444,6.9648,6.9552,7.0927,7.1669,7.1829,7.2522,7.3073,7.3378,7.1367,6.9452,6.7951,6.6224,6.537,6.5521,6.5699,6.5993,6.6415,6.6751,6.7181,6.7547,6.7743,6.7855,6.7855,6.7855,6.7855,6.7929,6.8261,6.8408,6.8408,6.8775,6.9065,6.9319,6.9165,6.9453,6.9964,7.1115,7.2155,7.2749,7.3715,7.4383,7.3938,7.5869,7.7577,7.806,7.806,7.7391,7.4978,7.5277,7.5574,7.6166,7.6649,7.7018,7.7574,7.8236,7.8561,7.8729,7.8717,7.8704,7.8704,7.8704,7.8704,7.8734,7.8869,7.8976,7.9211,7.9442,7.9443,7.9424,7.9291,7.9065,7.9216,7.9404,7.9102,7.7856,7.6912,7.7328,7.7554,7.7177,7.695,7.3724,7.508,7.4087,7.371,7.3646,7.2405,7.0993,6.9931,6.9384,6.8611,6.7677,6.7549,6.7581,6.7838,6.7838,6.7838,6.7838,6.777,6.7894,6.7829,6.7829,6.7958,6.7958,6.7931,6.7931,6.8023,6.8387,6.842,6.842,6.86,6.869,6.8658,6.9013,6.9013,6.9013,6.9537,6.9915,7.0161,7.1127,7.1715,7.2166,7.2141,7.2726,7.3382,7.1975,7.0495,6.8889,6.6797,6.5359,6.5504,6.5948,6.6238,6.651,6.7053,6.7507,6.7743,6.7818,6.7855,6.7855,6.7966,6.7966,6.8334,6.9367,7.0142,7.0289,7.0511,7.1137,7.2021,7.1724,7.1608,7.2307,7.3975,7.4569,7.4718,7.6426,7.6092,7.4532,7.494,7.6686,7.806,7.8357,7.832,7.7838,7.7764,7.769,7.7355,7.7577,7.7797,7.809,7.8457,7.8557,7.8723,7.8748,7.8734,7.8734,7.8734,7.8734,7.8763,7.8961,7.9078,7.9301,7.9461,7.9461,7.9065,7.8309,7.7894,7.7516,7.6761,7.6308,7.544,7.4987,7.4911,7.4722,7.4307,7.4081,7.4417,7.5108,7.4751,7.4529,7.437,7.3313,7.2008,7.086,7.0093,6.8969,6.7878,6.7746,6.7838,6.7838,6.7838,6.7838,6.7677,6.6969,6.6647,6.6583,6.6615,6.7066,6.7677,6.7838,6.7838,6.7931,6.8023,6.8147,6.8206,6.851,6.842,6.8329,6.8658,6.878,6.869,6.9276,6.9898,7.0693,7.1331,7.2023,7.2722,7.2454,7.3009,7.3213,7.23,7.0859,6.9426,6.6823,6.5355,6.5593,6.6036,6.6495,6.6913,6.7266,6.755,6.7818,6.7855,6.7855,6.8003,6.8814,6.9256,6.9588,7.0806,7.1618,7.1877,7.2062,7.2356,7.3206,7.2795,7.283,7.3344,7.3863,7.4272,7.4903,7.676,7.7688,7.65,7.676,7.7577,7.8097,7.8394,7.8357,7.8357,7.8209,7.8246,7.832,7.8319,7.8388,7.849,7.852,7.8617,7.8741,7.8793,7.8859,7.8888,7.885,7.8878,7.8944,7.9077,7.9053,7.9279,7.9423,7.9461,7.914,7.7743,7.661,7.5666,7.4836,7.4194,7.3703,7.3401,7.2948,7.2004,7.1324,7.1286,7.3532,7.4094,7.4094,7.4094,7.3904,7.3161,7.196,7.0754,6.9768,6.8779,6.769,6.7653,6.7746,6.7806,6.7838,6.7838,6.7484,6.639,6.5681,6.5617,6.5359,6.5939,6.7033,6.7581,6.7838,6.7838,6.7931,6.7838,6.7838,6.8206,6.8206,6.7838,6.8387,6.86,6.8478,6.8892,6.9728,7.0414,7.1207,7.2016,7.2577,7.2831,7.3289,7.3461,7.2167,7.0794,6.9461,6.7129,6.6034,6.6564,6.691,6.7196,6.7235,6.7462,6.7628,6.7818,6.7892,6.7966,6.8666,6.9625,7.051,7.1025,7.2464,7.339,7.3386,7.3948,7.4355,7.4429,7.4538,7.4718,7.468,7.4829,7.4792,7.4903,7.6909,7.8283,7.8134,7.8394,7.8394,7.8394,7.8394,7.8394,7.8357,7.8356,7.8392,7.839,7.849,7.8585,7.8648,7.871,7.8897,7.8944,7.8934,7.8998,7.8998,7.8988,7.9014,7.9077,7.9128,7.9126,7.9322,7.9443,7.9461,7.8989,7.7177,7.51,7.3967,7.2948,7.2268,7.1626,7.1475,7.1383,7.0137,6.9722,6.9873,7.02,7.1482,7.1578,7.1635,7.1635,7.1641,7.0782,6.9476,6.919,6.8587,6.7658,6.7434,6.7653,6.7838,6.7838,6.7838,6.7549,6.6261,6.5456,6.5166,6.4683,6.4715,6.61,6.7291,6.7806,6.7838,6.7838,6.7838,6.7838,6.7931,6.7838,6.7931,6.8297,6.842,6.8264,6.8803,6.9211,6.9609,7.0611,7.1443,7.183,7.2577,7.3289,7.36,7.2272,7.1034,6.9812,6.822,6.7903,6.9305,6.9102,6.86,6.7672,6.7623,6.7818,6.7855,6.7855,6.8555,6.9735,7.0326,7.1063,7.2347,7.393,7.5145,7.5347,7.6233,7.7014,7.7281,7.7467,7.7763,7.7688,7.7688,7.7651,7.7948,7.8023,7.832,7.8394,7.8357,7.8393,7.8393,7.8394,7.8357,7.8356,7.8422,7.849,7.852,7.8648,7.8673,7.8763,7.8916,7.9152,7.9166,7.9115,7.9177,7.9177,7.9164,7.9126,7.9188,7.9257,7.9322,7.9461,7.9499,7.948,7.7932,7.6233,7.4005,7.2344,7.1286,7.0418,7.0342,7.0213,6.9781,6.9613,6.9613,6.9689,7.0371,7.1089,7.0948,7.0845,7.0845,7.0845,7.0023,6.879,6.8862,6.8265,6.7437,6.734,6.7621,6.7838,6.7838,6.7838,6.7581,6.5359,6.4361,6.4297,6.4522,6.5134,6.5778,6.7162,6.7838,6.7838,6.7838,6.7838,6.7838,6.7838,6.7838,6.7838,6.8023,6.8297,6.8714,6.9068,6.9642,7.0466,7.1241,7.1787,7.2242,7.2829,7.3324,7.3565,7.321,7.2291,7.1071,6.9593,6.9065,6.98,7.0803,7.0698,6.9717,6.848,6.7855,6.7855,6.7929,6.8076,6.885,7.062,7.2129,7.3046,7.5251,7.6775,7.6971,7.7458,7.7975,7.8134,7.8246,7.8394,7.8394,7.8394,7.8393,7.8422,7.8243,7.8394,7.8357,7.8427,7.8457,7.8557,7.859,7.852,7.8524,7.8585,7.8648,7.868,7.8763,7.885,7.8906,7.9115,7.9191,7.9263,7.9257,7.9301,7.9301,7.9301,7.9263,7.9155,7.9082,7.8971,7.8971,7.8989,7.8574,7.7026,7.4873,7.2608,7.1211,7.0024,6.9571,6.9571,6.9722,6.9609,6.9593,6.9576,6.9576,6.9315,6.9486,6.9347,6.9245,6.9245,6.9245,6.871,6.7865,6.7933,6.7592,6.7088,6.7056,6.734,6.7653,6.7653,6.7489,6.6937,6.4513,6.372,6.4642,6.5123,6.5694,6.6454,6.7388,6.7838,6.7838,6.799,6.8023,6.7898,6.8206,6.8173,6.8082,6.8173,6.8658,6.9156,6.9417,6.9846,7.0874,7.1589,7.205,7.2351,7.2972,7.3393,7.36,7.3312,7.3058,7.2585,7.1725,7.1328,7.1575,7.2299,7.2189,7.0786,6.8961,6.7892,6.7855,6.7855,6.7966,6.8776,7.0693,7.2057,7.3157,7.5329,7.6885,7.7045,7.7647,7.8134,7.8134,7.8246,7.8393,7.8392,7.8356,7.7869,7.7172,7.7,7.6785,7.6706,7.6884,7.7603,7.8493,7.8763,7.8704,7.8673,7.8734,7.8793,7.8793,7.8944,7.9051,7.9051,7.9203,7.9338,7.9376,7.9422,7.9443,7.9423,7.9384,7.8743,7.8103,7.7933,7.7819,7.797,7.7932,7.729,7.5893,7.3476,7.1551,7.0305,6.9571,6.9571,6.9571,6.9609,6.9609,6.9571,6.9609,6.9593,6.6412,6.6538,6.6318,6.6601,6.6695,6.6695,6.6444,6.6475,6.6444,6.6638,6.6706,6.6481,6.6707,6.715,6.6896,6.6477,6.5502,6.3564,6.3951,6.6197,6.5528,6.6061,6.7364,6.7681,6.7653,6.7838,6.8297,6.8329,6.7931,6.8625,6.8925,6.869,6.8925,6.9156,6.9244,6.9676,7.0015,7.0432,7.1433,7.1974,7.2016,7.29,7.3463,7.353,7.2545,7.2602,7.4063,7.4208,7.4307,7.4675,7.4237,7.2797,7.0679,6.8814,6.7855,6.7855,6.7855,6.8629,6.9956,7.0363,7.1322,7.2575,7.4446,7.5485,7.5721,7.6837,7.7689,7.7652,7.7837,7.8094,7.8118,7.7867,7.6859,7.4548,7.4271,7.4279,7.4234,7.4047,7.5237,7.8038,7.8419,7.8651,7.8775,7.8381,7.8334,7.8548,7.8815,7.8965,7.9191,7.929,7.9369,7.9422,7.9443,7.9461,7.948,7.9291,7.8045,7.6912,7.6648,7.661,7.6724,7.6648,7.6006,7.4949,7.257,7.0833,6.9609,6.9593,6.9609,6.9538,6.9576,6.9576,6.9593,6.9593,6.9593,6.6286,6.6286,6.6286,6.6286,6.6286,6.6286,6.6286,6.6286,6.6286,6.6481,6.6577,6.6352,6.604,6.5658,6.5343,6.4859,6.4153,6.3945,6.4301,6.5499,6.5756,6.6135,6.6738,6.677,6.6961,6.734,6.7527,6.7931,6.8329,6.869,6.8836,6.898,6.9068,6.9384,6.9676,6.9879,7.0266,7.0874,7.1589,7.205,7.2425,7.3149,7.3566,7.3565,7.3484,7.3646,7.4234,7.4555,7.468,7.484,7.5281,7.4224,7.137,6.9063,6.7855,6.7855,6.7855,6.815,6.8776,6.9882,7.0767,7.147,7.3058,7.4168,7.4281,7.4829,7.5217,7.5244,7.5276,7.5307,7.522,7.469,7.4225,7.4076,7.3253,7.3086,7.3702,7.3198,7.3831,7.5385,7.5836,7.5786,7.5736,7.5835,7.6361,7.7362,7.7537,7.8162,7.9027,7.929,7.9338,7.9369,7.9381,7.9386,7.8952,7.7782,7.6348,7.5347,7.4873,7.5138,7.5289,7.5138,7.4609,7.359,7.2117,7.0418,6.9571,6.9593,6.9559,6.9503,6.9503,6.9541,6.9559,6.9576,6.9559,6.6286,6.6286,6.6286,6.6286,6.6286,6.6286,6.6286,6.6286,6.6286,6.6384,6.6481,6.6384,6.5691,6.4739,6.3892,6.3226,6.2923,6.3673,6.4587,6.5439,6.5877,6.6189,6.6481,6.6577,6.6866,6.7246,6.734,6.7746,6.86,6.9101,6.9331,6.9504,6.9557,6.9846,7.0066,7.0183,7.0515,7.1309,7.1744,7.2126,7.2499,7.3254,7.3669,7.377,7.4072,7.4304,7.4399,7.461,7.4882,7.5109,7.5356,7.4406,7.1955,6.9764,6.8408,6.7892,6.7928,6.8036,6.8217,6.9198,6.9917,7.0172,7.1667,7.271,7.2886,7.343,7.3876,7.3898,7.3889,7.3161,7.2531,7.1672,7.1571,7.2121,7.1684,7.1509,7.1946,7.1747,7.1796,7.2909,7.3506,7.3854,7.4305,7.429,7.4704,7.5643,7.5869,7.6283,7.7185,7.7486,7.7862,7.8825,7.9316,7.8969,7.8084,7.6028,7.4538,7.3537,7.3044,7.3065,7.3271,7.312,7.3422,7.2498,7.1232,6.9798,6.9576,6.9559,6.9486,6.943,6.943,6.9486,6.9523,6.9505,6.9523,6.6286,6.6286,6.6286,6.6286,6.6286,6.6286,6.6286,6.6189,6.6189,6.6189,6.6157,6.6094,6.5534,6.4449,6.273,6.1702,6.1765,6.2948,6.4517,6.6066,6.5763,6.609,6.7056,6.7056,6.734,6.7806,6.7806,6.8114,6.869,6.9813,7.0316,7.0015,7.0349,7.053,7.0563,7.0448,7.0841,7.1309,7.1778,7.2126,7.2572,7.3324,7.377,7.3834,7.4138,7.4399,7.461,7.4846,7.5155,7.5808,7.4708,7.3399,7.1965,7.0546,6.8961,6.7708,6.7736,6.7941,6.8044,6.8283,6.8657,6.9046,7.0307,7.113,7.1357,7.2469,7.3198,7.3544,7.3273,7.2332,7.0163,6.981,6.9719,6.9719,6.959,6.9569,6.9531,6.9794,7.0192,7.1357,7.205,7.2598,7.3688,7.4064,7.3801,7.4027,7.414,7.414,7.4177,7.4064,7.5756,7.8021,7.9187,7.8197,7.4771,7.3153,7.1822,7.0956,7.0786,7.0409,7.069,7.1085,7.152,7.1369,7.0351,6.973,6.9599,6.9505,6.9449,6.9411,6.9411,6.9411,6.9449,6.9411,6.9411,6.6286,6.6286,6.6286,6.6286,6.6286,6.6286,6.609,6.5795,6.5695,6.5496,6.5132,6.4272,6.3078,6.1804,6.1637,6.1702,6.2075,6.2691,6.4288,6.6354,6.6189,6.6418,6.7182,6.7338,6.7742,6.82,6.8323,6.8503,6.9068,6.9846,7.0266,7.0399,7.0481,7.053,7.053,7.053,7.0841,7.1309,7.1787,7.2242,7.2615,7.3359,7.3869,7.3901,7.4138,7.4363,7.461,7.3814,7.3537,7.3968,7.3751,7.2045,6.8683,6.8402,6.7192,6.4726,6.4626,6.5359,6.6609,6.6822,6.755,6.8931,6.9427,6.9803,6.9968,7.0343,7.0606,7.0718,7.0643,7.0516,6.944,6.9402,6.9402,6.9402,6.9402,6.9402,6.9402,6.9402,6.9553,6.9929,7.038,7.0418,7.0718,7.0906,7.1357,7.226,7.241,7.2147,7.1057,7.1019,7.2899,7.8238,7.9211,7.69,7.1969,7.0631,7.0258,6.9487,6.9449,6.9638,6.9807,6.9901,7.0108,7.0561,6.9938,6.9467,6.9468,6.9467,6.9427,6.941,6.9392,6.9392,6.9392,6.9392,6.9429,6.6286,6.6286,6.6286,6.6286,6.6286,6.6286,6.609,6.5894,6.5894,6.5482,6.4532,6.3194,6.2296,6.1785,6.2097,6.2446,6.3139,6.3886,6.4947,6.6157,6.6157,6.6449,6.7087,6.7463,6.805,6.8445,6.8592,6.8892,6.9331,6.9761,7.0183,7.0563,7.053,7.053,7.053,7.053,7.0841,7.1342,7.183,7.1664,7.1098,7.1747,7.214,7.214,7.2402,7.2679,7.2735,7.1673,7.113,7.1431,7.0098,6.8237,6.6027,6.6149,6.5316,6.329,6.323,6.4252,6.6141,6.7076,6.8036,6.9193,6.929,6.9327,6.9402,6.9402,6.9402,6.9402,6.9402,6.9402,6.944,6.9402,6.9402,6.9402,6.9402,6.9402,6.9402,6.9402,6.9402,6.9402,6.9402,6.944,6.9402,6.9402,6.9816,7.0455,7.0794,7.053,6.9703,6.9402,7.117,7.4252,7.523,7.3372,7.0611,6.939,6.941,6.941,6.9392,6.9411,6.9487,6.9411,6.9392,6.9449,6.9427,6.9427,6.941,6.9407,6.9402,6.9407,6.9407,6.9407,6.9427,6.9427,6.9427,6.6286,6.6286,6.6286,6.6286,6.6286,6.6286,6.6286,6.6286,6.6481,6.5755,6.4113,6.2509,6.2201,6.3078,6.2712,6.3024,6.3799,6.5248,6.5588,6.5393,6.5616,6.6037,6.6864,6.7489,6.82,6.8747,6.8892,6.9145,6.9378,6.9665,6.9933,7.0113,7.0161,7.0027,7.0094,7.0094,7.0403,7.0903,7.1454,7.0603,6.8369,6.9155,6.9593,6.9593,6.9754,6.9905,7.021,6.8713,6.8141,6.8253,6.5139,6.3415,6.3917,6.3687,6.3185,6.2517,6.298,6.3858,6.5629,6.7768,6.8892,6.9327,6.9402,6.9402,6.9402,6.9402,6.9402,6.9402,6.9402,6.9402,6.9402,6.9402,6.9402,6.9402,6.9402,6.9402,6.9402,6.9402,6.9402,6.9402,6.9402,6.9402,6.9386,6.9424,6.9461,6.9649,6.9687,6.9553,6.9402,6.9402,6.9929,6.9741,6.959,6.9628,6.9515,6.9402,6.9424,6.9424,6.9407,6.939,6.941,6.941,6.9429,6.939,6.9386,6.9402,6.9424,6.9402,6.9402,6.9424,6.9424,6.9402,6.9402,6.9402,6.9424,6.6286,6.6286,6.6286,6.6286,6.6286,6.6481,6.6481,6.6286,6.6384,6.4901,6.2389,6.0793,5.955,5.8988,5.9734,6.0414,6.0975,6.2446,6.3627,6.4136,6.449,6.5509,6.7179,6.7652,6.8617,6.9864,7.0048,6.95,6.8779,6.8727,6.8271,6.7311,6.7244,6.7211,6.7211,6.7244,6.7366,6.7673,6.8562,6.8819,6.8231,6.912,6.9689,6.9789,6.8752,6.8364,6.8694,6.6238,6.4963,6.5075,6.251,6.0812,6.0613,5.9622,5.9012,5.9358,6.1913,6.2827,6.1219,6.3672,6.6579,6.9139,6.9402,6.9402,6.9402,6.9402,6.9402,6.9402,6.9365,6.9402,6.9402,6.9402,6.9402,6.9402,6.9402,6.9402,6.9402,6.9402,6.9402,6.9402,6.9402,6.9407,6.941,6.9427,6.9407,6.941,6.9427,6.9402,6.9402,6.9402,6.9402,6.9402,6.9402,6.9402,6.9402,6.9402,6.9402,6.9402,6.9424,6.9407,6.9407,6.9386,6.9386,6.9407,6.9424,6.9424,6.9402,6.9402,6.9424,6.9424,6.9424,6.9424,6.9424,6.9424,6.9424,6.6286,6.6286,6.6286,6.6286,6.6286,6.6481,6.6384,6.5996,6.5155,6.3734,6.1885,6.0741,6.0136,6.0041,6.0429,6.0897,6.1412,6.2383,6.2999,6.3231,6.375,6.463,6.5771,6.6368,6.7126,6.802,6.825,6.7944,6.7322,6.7412,6.7043,6.6306,6.6239,6.6239,6.6239,6.6358,6.6401,6.6409,6.5619,6.4921,6.4268,6.5147,6.5375,6.4757,6.4881,6.4946,6.5176,6.3022,6.1908,6.2018,5.9981,5.8675,5.8427,5.7831,5.7626,5.8066,6.0187,6.1071,6.0294,6.2097,6.4321,6.6863,6.7786,6.7748,6.6487,6.6808,6.7297,6.7861,6.8839,6.9402,6.9402,6.9402,6.9402,6.9402,6.9402,6.9402,6.9402,6.9402,6.9402,6.9402,6.9402,6.9386,6.941,6.9429,6.9411,6.9411,6.9449,6.9467,6.941,6.941,6.939,6.9424,6.9424,6.9407,6.9402,6.9424,6.9407,6.9427,6.939,6.941,6.941,6.941,6.941,6.941,6.941,6.939,6.9427,6.939,6.939,6.939,6.939,6.941,6.941,6.9447,6.9467,6.5688,6.572,6.572,6.5688,6.5816,6.5816,6.5688,6.5371,6.316,6.183,6.1187,6.0484,6.0955,6.2041,6.1792,6.2101,6.2794,6.288,6.2708,6.236,6.2998,6.3435,6.3629,6.4559,6.5129,6.5375,6.5693,6.5795,6.5629,6.5827,6.5837,6.5635,6.5635,6.5568,6.5635,6.5761,6.5709,6.5277,6.2675,6.0696,5.9614,6.0542,6.0196,5.8747,6.0313,6.1025,6.0819,5.9781,5.8974,5.8477,5.7242,5.6512,5.6508,5.6927,5.7442,5.8093,5.8731,5.9716,6.1125,6.1604,6.244,6.3874,6.5568,6.5322,6.2614,6.3142,6.4289,6.5793,6.8049,6.9252,6.8688,6.8575,6.8575,6.8914,6.8989,6.9139,6.9402,6.9402,6.9402,6.9402,6.9402,6.9402,6.9369,6.9091,6.8903,6.9016,6.8846,6.9071,6.8884,6.8902,6.8903,6.9277,6.939,6.939,6.9407,6.939,6.941,6.9411,6.9411,6.9411,6.9393,6.9393,6.9393,6.9449,6.9411,6.9393,6.9411,6.943,6.943,6.9392,6.9411,6.9393,6.9393,6.9505,6.9541,6.2918,6.295,6.295,6.3011,6.3286,6.35,6.3618,6.3453,6.0223,0.0,0.0,5.6189,5.6529,5.7033,5.84,5.9525,6.0323,6.0613,6.0884,6.0963,6.1119,6.1853,6.2936,6.3128,6.3946,6.5261,6.5468,6.5106,6.4161,6.432,6.3792,6.2685,6.2585,6.2585,6.2618,6.2725,6.1798,5.9867,5.9597,5.9677,5.9944,6.0456,6.0183,5.9033,5.9329,5.8995,5.7947,5.7664,5.6319,5.3742,5.3515,5.3371,5.3239,5.52,5.6881,5.8082,5.9982,6.0659,5.9635,6.0863,6.1829,6.2252,6.3816,6.346,6.0321,6.0267,6.1507,6.4402,6.7523,6.8237,6.551,6.5267,6.5793,6.7184,6.7297,6.7899,6.9139,6.9402,6.9327,6.9402,6.9402,6.9407,6.9354,6.828,6.7339,6.745,6.7545,6.7377,6.7299,6.6589,6.6642,6.8733,6.9336,6.9411,6.9411,6.9392,6.9392,6.943,6.9411,6.9411,6.9393,6.9411,6.9449,6.9505,6.9468,6.9411,6.9411,6.9411,6.9393,6.9411,6.9411,6.9411,6.9411,6.9503,6.9593,6.0117,6.0117,6.0117,6.0262,0.0,6.0611,5.9817,5.844,5.6383,5.5233,5.4753,5.5568,5.6391,5.7252,5.8742,5.9739,6.0166,6.0399,6.0553,6.0596,5.9906,5.9939,6.0596,5.9957,6.0461,6.1957,6.2152,6.2302,6.2592,6.2633,6.2043,6.0741,6.0741,6.0514,6.0045,5.9805,5.9303,5.8537,5.8923,5.9035,5.877,5.861,5.7948,5.688,5.7642,0.0,0.0,0.0,0.0,0.0,0.0,0.0,0.0,5.4099,0.0,5.339,5.3061,5.212,5.055,5.2011,5.3716,5.5404,5.6339,5.581,5.3374,5.5512,5.7597,5.9252,6.3951,6.6132,6.4533,6.4345,6.4645,6.5455,6.5568,6.6132,6.7447,6.7936,6.8425,6.9215,6.9402,6.9386,6.941,6.8582,6.7923,6.7093,6.696,6.7014,6.6901,6.5713,6.543,6.742,6.8636,6.9449,6.943,6.9411,6.9411,6.9411,6.9411,6.943,6.9411,6.9411,6.9411,6.9468,6.9411,6.9411,6.9411,6.943,6.9486,6.9486,6.9503,6.9483,6.9483,6.9555,6.9571,5.7253,5.7337,5.7284,5.7421,5.7524,5.6935,5.5337,5.3208,5.2752,5.3056,5.3947,5.5562,5.6932,5.818,5.9456,6.0159,6.0235,5.9939,5.9972,6.0202,5.9051,5.8656,5.8854,5.7782,5.7992,5.9042,5.9366,6.0108,6.1418,6.1458,6.1068,6.0104,6.0071,5.9539,5.858,0.0,0.0,0.0,5.8624,5.8419,5.7611,5.684,5.5801,5.4664,5.6255,0.0,5.6729,5.6982,5.6905,5.636,5.6567,0.0,0.0,0.0,0.0,0.0,0.0,0.0,0.0,0.0,0.0,0.0,4.6849,4.6576,4.6257,5.0063,5.2543,5.271,5.9176,6.3029,6.209,6.2278,6.271,6.335,6.3405,6.3951,6.5305,6.6019,6.6996,6.8538,6.8876,6.8914,6.8822,6.8601,6.7848,6.6549,6.6201,6.6098,6.5982,6.458,6.4246,6.5591,6.797,6.9297,6.8602,6.8338,6.8262,6.8922,6.8941,6.9016,6.9298,6.9411,6.9411,6.9449,6.9411,6.9411,6.943,6.9523,6.9596,6.9571,6.9571,6.9496,6.9194,6.908,6.921,5.4035,5.4389,5.4389,5.4548,5.4485,5.17,5.0399,5.0308,5.0011,5.0328,5.1263,5.3996,5.541,5.5895,5.7264,5.8263,5.8722,5.7473,5.7571,5.8755,5.8624,5.9183,6.0333,6.0169,6.0245,6.0442,6.0743,6.1065,6.1264,6.1597,6.1713,6.1546,6.1546,6.0879,5.947,5.7145,5.6299,5.683,5.715,5.747,5.7886,5.6876,5.5793,5.4618,5.6058,5.6355,5.5028,5.6404,5.5959,5.3415,5.3543,5.3688,5.3784,5.1039,4.9231,0.0,4.4573,0.0,0.0,0.0,0.0,0.0,0.0,0.0,0.0,4.4563,4.5785,4.5792,5.4514,5.8274,5.3896,5.4853,5.6845,5.9703,6.0079,6.0906,6.2974,6.4101,6.5154,6.6395,6.6884,6.7205,6.7072,6.5888,6.5025,6.4779,6.3733,6.2806,6.2536,6.1535,6.1334,6.3039,6.6843,6.8255,6.5962,6.5324,6.5796,6.7019,6.7264,6.7754,6.8978,6.9261,6.9336,6.943,6.9185,6.9279,6.9555,6.95,6.9483,6.9533,6.942,6.8892,6.7727,6.7404,6.7873,5.1327,5.1404,5.1511,5.1739,5.1943,5.0011,4.9584,4.999,4.9552,4.9772,5.0578,5.2599,5.4135,5.5354,5.6438,5.7443,5.8393,5.7013,5.7111,5.8459,5.7703,5.7637,5.8229,5.8262,5.8689,5.9446,5.895,5.9095,6.0002,5.9523,5.9229,5.9333,5.8597,5.7184,5.5247,5.5782,5.6918,5.8686,5.8289,5.8419,5.9203,5.7302,5.61,5.5837,5.6644,5.6721,5.6039,5.7604,5.7528,5.5562,5.6482,5.5966,5.352,4.8194,4.4647,0.0,0.0,0.0,0.0,0.0,0.0,0.0,0.0,0.0,0.0,0.0,3.5735,3.128,4.4927,5.2688,4.9498,4.9845,5.1319,5.3687,5.1566,5.1813,5.677,5.8257,5.9872,6.2127,6.3725,6.444,6.4177,6.5868,6.6189,6.3369,6.1611,6.0286,5.9501,5.9608,5.9917,6.0911,6.4261,6.5958,6.3947,6.4101,6.4798,6.5382,6.5494,6.5682,6.6417,6.6605,6.6587,6.6662,6.6624,6.6624,6.6662,6.6718,6.7487,6.8649,6.8121,6.6654,6.5808,6.5652,6.557,4.9436,4.9237,4.8417,4.847,4.9008,4.8611,4.9132,5.0093,4.9803,4.9728,5.0137,5.1376,5.2377,5.2873,5.2767,5.3957,5.5829,5.4516,5.5073,5.7341,5.6289,5.6064,5.6393,5.6393,5.6914,5.79,5.7132,5.7505,5.8901,5.7819,5.6888,5.6281,5.4358,5.266,5.1308,5.3834,5.6678,5.9671,5.9847,5.9964,5.9819,5.7444,5.6493,5.688,5.7004,5.7081,5.7162,5.8368,5.8581,5.7664,5.7568,5.6728,5.4919,4.5132,0.0,0.0,0.0,0.0,0.0,0.0,0.0,0.0,0.0,2.8386,2.3881,0.0,2.8246,0.0,3.6614,4.6599,4.7015,4.6322,0.0,0.0,4.3923,4.3308,4.9063,5.1592,5.3789,5.6244,5.9289,6.1207,6.1244,6.5117,6.6019,6.1357,5.9979,5.8936,5.7397,5.8477,5.9513,5.9711,6.1707,6.2971,6.22,6.2747,6.3331,6.3688,6.3763,6.3894,6.4307,6.4345,6.4345,6.4384,6.4365,6.3969,6.3312,6.3952,6.5324,6.6524,6.5167,6.3437,6.3872,6.3976,6.3871,4.8866,4.885,4.4831,4.4099,4.5519,4.6127,4.7451,4.9447,5.0021,4.9887,4.9201,5.0593,4.9368,4.6104,4.3554,0.0,4.8459,4.7135,4.9381,5.4314,5.4248,5.4974,5.6393,5.6393,5.6388,5.659,5.6947,5.7714,5.8625,5.7891,5.6077,5.3383,4.9447,4.8455,5.0232,5.1544,5.4013,5.7517,6.127,6.1508,5.8219,5.6911,5.6457,5.6796,5.6796,5.6922,5.7162,5.7528,5.7767,5.7737,5.2667,5.2447,5.7721,0.0,0.0,0.0,0.0,0.0,0.0,0.0,0.0,0.0,0.0,0.0,0.0,0.0,0.0,2.6,3.2877,0.0,4.6459,4.4339,0.0,0.0,0.0,3.8336,4.0479,4.4801,4.7732,4.7973,0.0,0.0,5.9402,6.177,6.1808,5.786,5.8575,5.8893,5.7201,5.8292,5.9515,5.9458,5.9758,5.9909,6.0022,5.9871,6.0342,6.1582,6.2014,6.2447,6.3668,6.4082,6.4309,6.4272,6.4403,6.348,6.0417,6.241,6.3651,6.1018,6.0242,6.0427,6.1861,6.2284,6.2686,4.4894,4.1864,4.0049,4.0501,4.228,4.1243,4.3681,4.8264,4.7329,4.694,4.6882,4.6588,4.4153,4.008,3.8155,0.0,0.0,0.0,4.3938,5.0141,5.027,5.1949,5.4908,5.5895,5.6393,5.636,5.578,5.5683,5.6075,5.5054,4.9703,4.0476,0.0,4.0772,4.0945,4.6952,5.1521,5.4558,5.9236,6.049,5.8007,5.7847,5.7422,5.6704,5.6844,5.7086,5.7285,5.8336,5.6893,5.2512,5.0935,4.6855,0.0,0.0,0.0,0.0,0.0,0.0,0.0,0.0,0.0,0.0,0.0,1.9798,1.5658,0.0,0.0,0.0,2.4211,2.9866,3.4753,3.6662,0.0,0.0,0.0,0.0,0.0,0.0,0.0,4.0829,4.6431,5.1018,5.3274,5.662,5.7993,5.5851,5.553,5.5492,5.555,0.0,5.4928,5.8913,5.9515,5.9515,5.9477,5.7862,5.6998,5.8218,5.8688,5.9176,5.9815,6.0793,6.1395,6.1451,6.1451,6.0981,5.974,6.0511,6.098,5.9778,5.9513,5.9681,6.0303,6.0502,6.0732,3.9554,0.0,0.0,0.0,0.0,3.6026,3.858,4.3573,4.2371,4.1796,4.1724,4.1132,0.0,0.0,0.0,0.0,0.0,0.0,3.9752,4.576,4.763,4.994,5.287,5.3955,5.4481,5.4382,5.3266,5.2174,5.1248,4.8812,4.1716,3.0624,0.0,0.0,0.0,0.0,4.8394,5.183,5.7463,5.9501,5.7535,5.8285,5.8019,5.6617,5.6916,5.7166,5.7328,5.678,5.4054,4.8804,4.581,0.0,0.0,0.0,0.0,0.0,0.0,0.0,0.0,0.0,0.0,0.0,0.0,0.0,0.0,0.0,0.0,0.0,0.0,0.0,2.7128,3.1326,3.3019,0.0,0.0,0.0,0.0,0.0,0.0,0.0,0.0,0.0,4.7446,5.1131,5.3483,0.0,0.0,5.3838,5.3842,5.3032,5.3725,5.7485,5.8838,0.0,5.8199,5.6059,5.4518,5.4346,5.5391,5.6357,5.6657,5.7447,5.8124,5.85,5.865,5.8236,5.7033,5.5943,5.5755,5.7109,5.6206,5.5342,5.583,5.6342,5.669,0.0,0.0,0.0,0.0,0.0,0.0,0.0,0.0,3.4949,3.4369,0.0,3.4359,0.0,0.0,0.0,0.0,2.8835,3.2731,0.0,0.0,4.682,4.9746,4.9779,4.9845,4.9943,4.9911,4.8793,4.6787,4.3765,3.856,0.0,0.0,0.0,0.0,0.0,0.0,4.4331,4.9404,5.6663,5.9142,5.6563,5.7892,5.7984,5.6652,5.6796,5.7014,5.7074,5.1742,4.8597,4.8335,3.5412,0.0,0.0,0.0,0.0,0.0,0.0,0.0,0.0,0.0,0.0,0.0,0.0,0.0,0.0,0.0,0.0,0.0,0.0,0.0,0.0,3.0302,0.0,0.0,0.0,0.0,0.0,0.0,0.0,0.0,0.0,4.0641,4.2784,4.5604,4.7897,4.9514,0.0,0.0,0.0,0.0,5.8011,5.5095,5.7372,5.8312,5.5095,5.4456,5.3367,5.0509,0.0,0.0,5.5905,5.5266,5.489,5.6093,5.662,5.5492,5.0792,4.7522,4.6995,5.1657,4.88,4.5905,4.716,4.8683,5.0043,0.0,0.0,0.0,0.0,0.0,0.0,0.0,0.0,0.0,3.0193,0.0,2.9233,0.0,0.0,0.0,0.0,0.0,0.0,0.0,0.0,3.6818,3.9141,4.0181,4.2064,4.2002,0.0,3.9871,3.6754,0.0,0.0,0.0,0.0,0.0,0.0,0.0,0.0,4.1891,4.5059,5.4382,5.8415,5.66,5.6993,5.7162,5.6832,5.6838,5.5061,5.1367,4.8324,4.4378,0.0,0.0,0.0,0.0,0.0,0.0,0.0,0.0,0.0,0.0,0.0,0.0,0.0,0.0,0.0,0.0,0.0,0.0,0.0,0.0,0.0,0.0,0.0,2.6647,0.0,0.0,0.0,0.0,0.0,0.0,0.0,0.0,0.0,3.6092,4.0792,4.4439,4.6055,4.9477,5.1904,5.1904,0.0,0.0,0.0,0.0,0.0,0.0,0.0,4.9811,4.9642,4.7026,4.5362,4.6823,4.8484,5.0792,5.4402,0.0,0.0,4.6093,4.3123,4.192,4.3875,4.2709,4.1531,4.2108,4.0403,3.9775,0.0,0.0,0.0,0.0,0.0,0.0,0.0,0.0,0.0,2.3568,2.3044,0.0,0.0,0.0,0.0,0.0,0.0,0.0,0.0,0.0,0.0,0.0,3.4334,3.6183,0.0,0.0,0.0,0.0,0.0,0.0,0.0,0.0,0.0,0.0,0.0,0.0,3.9886,4.1919,5.2337,5.7484,5.6573,5.6457,5.6374,5.6042,5.6466,5.3646,4.723,0.0,0.0,0.0,0.0,0.0,0.0,0.0,0.0,0.0,0.0,0.0,0.0,0.0,0.0,0.0,0.0,0.0,0.0,0.0,0.0,0.0,0.0,0.0,0.0,0.0,2.3438,0.0,0.0,0.0,0.0,0.0,0.0,0.0,0.0,0.0,0.0,3.599,3.9826,4.2559,4.6093,4.9101,5.0889,5.0251,5.0334,0.0,0.0,0.0,0.0,0.0,0.0,0.0,0.0,0.0,0.0,0.0,0.0,0.0,0.0,4.202,3.9062,3.6431,3.4615,3.4615,0.0,0.0,0.0,0.0,0.0,0.0,0.0,0.0,0.0,0.0,0.0,0.0,0.0,0.0,0.0,1.3168,0.0,0.0,1.3037,0.0,0.0,0.0,0.0,0.0,0.0,0.0,0.0,0.0,0.0,0.0,0.0,0.0,0.0,0.0,0.0,0.0,0.0,0.0,0.0,0.0,0.0,3.8316,3.989,5.0762,5.6404,5.6297,5.6368,5.5699,5.4398,5.5722,5.2948,4.5275,0.0,0.0,0.0,0.0,0.0,0.0,0.0,0.0,0.0,0.0,0.0,0.0,0.0,0.0,0.0,0.0,0.0,0.0,0.0,0.0,0.0,0.0,0.0,0.0,0.0,0.0,2.283,2.3934,2.4212,0.0,0.0,0.0,0.0,0.0,0.0,0.0,0.0,0.0,3.8837,4.3386,4.7033,4.9289,4.9589,4.9671,4.978,4.9798,4.9841,4.9946,4.9775,4.97,0.0,0.0,0.0,0.0,0.0,0.0,0.0,0.0,0.0,0.0,0.0,0.0,0.0,0.0,0.0,0.0,0.0,0.0,0.0,0.0,0.0,0.0,0.0,0.0,0.0,0.0,0.0,0.0,0.0,0.0,0.0,0.0,0.0,0.0,0.0,0.0,0.0,0.0,0.0,0.0,0.0,0.0,0.0,0.0,0.0,0.0,0.0,0.0,0.0,0.0,0.0,0.0,0.0,0.0,3.7745,3.8245,5.0196,5.5869,5.4921,5.5921,5.5793,5.4451,5.481,5.141,0.0,0.0,0.0,0.0,0.0,0.0,0.0,0.0,0.0,0.0,0.0,0.0,0.0,0.0,0.0,0.0,0.0,0.0,0.0,0.0,0.0,0.0,0.0,0.0,0.0,0.0,0.0,0.0,2.7927,2.7098,2.4287,0.0,0.0,0.0,0.0,0.0,0.0,0.0,0.0,0.0,0.0,4.613,4.9138,4.9589,5.001,5.1162,5.049,4.99,4.9813,4.8909,4.7488,4.557,0.0,0.0,0.0,0.0,0.0,0.0,0.0,0.0,0.0,0.0,0.0,0.0,0.0,0.0,0.0,0.0,0.0,0.0,0.0,0.0,0.0,0.0,0.0,0.0,0.0,0.0,0.0,0.0,0.0,0.0,0.0,0.0,0.0,0.0,0.0,0.0,0.0,0.0,0.0,0.0,0.0,0.0,0.0,0.0,0.0,0.0,0.0,0.0,0.0,0.0,0.0,0.0,0.0,3.6604,3.6782,4.909,5.5012,5.4206,5.5107,5.4941,5.3567,5.2995,4.8494,0.0,0.0,0.0,0.0,0.0,0.0,0.0,0.0,0.0,0.0,0.0,0.0,0.0,0.0,0.0,0.0,0.0,0.0,0.0,0.0,0.0,0.0,0.0,0.0,0.0,0.0,0.0,0.0,2.8433,3.0001,2.431,0.0,0.0,0.0,0.0,0.0,0.0,0.0,0.0,0.0,0.0,4.3109,4.707,4.9815,0.0,0.0,5.0406,4.9838,4.9788,4.9017,4.6514,4.1006,3.8928,0.0,0.0,0.0,0.0,0.0,0.0,0.0,0.0,0.0,0.0,0.0,0.0,0.0,0.0,0.0,0.0,0.0,0.0,0.0,0.0,0.0,0.0,0.0,0.0,0.0,0.0,0.0,0.0,0.0,0.0,0.0,0.0,0.0,0.0,0.0,0.0,0.0,0.0,0.0,0.0,0.0,0.0,0.0,0.0,0.0,0.0,0.0,0.0,0.0,0.0,0.0,0.0,3.5141,3.5462,4.7485,5.3913,5.3913,5.3913,5.3365,5.2171,5.0659,4.4772,0.0,0.0,0.0,0.0,0.0,0.0,0.0,0.0,0.0,0.0,0.0,0.0,0.0,0.0,0.0,0.0,0.0,0.0,0.0,0.0,0.0,0.0,0.0,0.0,0.0,0.0,0.0,0.0,0.0,0.0,0.0,0.0,0.0,0.0,0.0,0.0,0.0,0.0,0.0,0.0,0.0,3.9151,4.4138,5.0153,5.287,0.0,4.9382,4.9744,4.9564,4.9465,4.6206,3.6742,0.0,0.0,0.0,0.0,0.0,0.0,0.0,0.0,0.0,0.0,0.0,0.0,0.0,0.0,0.0,0.0,0.0,0.0,0.0,0.0,0.0,0.0,0.0,0.0,0.0,0.0,0.0,0.0,0.0,0.0,0.0,0.0,0.0,0.0,0.0,0.0,0.0,0.0,0.0,0.0,0.0,0.0,0.0,0.0,0.0,0.0,0.0,0.0,0.0,0.0,0.0,0.0,0.0,0.0,3.3723,4.5915,5.2353,5.256,5.256,5.2535,5.2499,4.981,0.0,0.0,0.0,0.0,0.0,0.0,0.0,0.0,0.0,0.0,0.0,0.0,0.0,0.0,0.0,0.0,0.0,0.0,0.0,0.0,0.0,0.0,0.0,0.0,0.0,0.0,0.0,1.2039,0.0,0.0,0.0,0.0,0.0,0.0,0.0,0.0,0.0,0.0,0.0,0.0,0.0,0.0,4.1255,4.7446,4.974,4.8739,0.0,0.0,4.9165,4.7538,4.5587,4.2563,0.0,0.0,0.0,0.0,0.0,0.0,0.0,0.0,0.0,0.0,0.0,0.0,0.0,0.0,0.0,0.0,0.0,0.0,0.0,0.0,0.0,0.0,0.0,0.0,0.0,0.0,0.0,0.0,0.0,0.0,0.0,0.0,0.0,0.0,0.0,0.0,0.0,0.0,0.0,0.0,0.0,0.0,0.0,0.0,0.0,0.0,0.0,0.0,0.0,0.0,0.0,0.0,0.0,0.0,3.2445,3.3359,4.3475,4.9973,5.2212,5.1668,5.1803,5.2902,4.8394,4.2197,0.0,0.0,0.0,0.0,0.0,0.0,0.0,0.0,0.0,0.0,0.0,0.0,0.0,0.0,0.0,0.0,0.0,0.0,0.0,0.0,0.0,0.0,0.0,0.0,0.0,0.0,0.0,0.0,0.0,0.0,0.0,0.0,0.0,0.0,0.0,0.0,0.0,0.0,0.0,0.0,0.0,0.0,4.8574,4.8311,0.0,0.0,0.0,4.6032,4.7634,0.0,0.0,0.0,0.0,0.0,0.0,0.0,0.0,0.0,0.0,0.0,0.0,0.0,0.0,0.0,0.0,0.0,0.0,0.0,0.0,0.0,0.0,0.0,0.0,0.0,0.0,0.0,0.0,0.0,0.0,0.0,0.0,0.0,0.0,0.0,0.0,0.0,0.0,0.0,0.0,0.0,0.0,0.0,0.0,0.0,0.0,0.0,0.0,0.0,0.0,0.0,0.0,0.0,0.0,0.0,0.0,0.0,3.3423,4.1228,4.7675,5.2106,5.0963,5.1047,5.2899,4.6933,4.065,0.0,0.0,0.0,0.0,0.0,0.0,0.0,0.0,0.0,0.0,0.0,0.0,0.0,0.0,0.0,0.0,0.0,0.0,0.0,0.0,0.0,0.0,0.0,0.0,0.0,0.0,0.0,0.0,0.0,0.0,0.0,0.0,0.0,0.0,0.0,0.0,0.0,0.0,0.0,0.0,0.0,3.9677,4.7371,4.5529,4.0867,0.0,0.0,4.1565,4.8127,4.6562,0.0,0.0,0.0,0.0,0.0,0.0,0.0,0.0,0.0,0.0,0.0,0.0,0.0,0.0,0.0,0.0,0.0,0.0,0.0,0.0,0.0,0.0,0.0,0.0,0.0,0.0,0.0,0.0,0.0,0.0,0.0,0.0,0.0,0.0,0.0,0.0,0.0,0.0,0.0,0.0,0.0,0.0,0.0,0.0,0.0,0.0,0.0,0.0,0.0,0.0,0.0,0.0,0.0,0.0,0.0,0.0,3.3661,4.2341,4.8352,5.1055,4.9741,4.9801,5.1533,4.6732,4.0887,0.0,0.0,0.0,0.0,0.0,0.0,0.0,0.0,0.0,0.0,0.0,0.0,0.0,0.0,0.0,0.0,0.0,0.0,0.0,0.0,0.0,0.0,0.0,0.0,0.0,0.0,0.0,0.0,0.0,0.0,0.0,0.0,0.0,0.0,0.0,0.0,0.0,0.0,0.0,0.0,0.0,3.6734,4.1005,3.8762,0.0,0.0,0.0,0.0,4.4674,3.871,0.0,0.0,0.0,0.0,0.0,0.0,0.0,0.0,0.0,0.0,0.0,0.0,0.0,0.0,0.0,0.0,0.0,0.0,0.0,0.0,0.0,0.0,0.0,0.0,0.0,0.0,0.0,0.0,0.0,0.0,0.0,0.0,0.0,0.0,0.0,0.0,0.0,0.0,0.0,0.0,0.0,0.0,0.0,0.0,0.0,0.0,0.0,0.0,0.0,0.0,0.0,0.0,0.0,0.0,0.0,0.0,3.5989,4.2199,4.7304,5.0876,4.9558,4.9618,5.1206,4.669,4.1073,0.0,0.0,0.0,0.0,0.0,0.0,0.0,0.0,0.0,0.0,0.0,0.0,0.0,0.0,0.0,0.0,0.0,0.0,0.0,0.0,0.0,0.0,0.0,0.0,0.0,0.0,0.0,0.0,0.0,0.0,0.0,0.0,0.0,0.0,0.0,0.0,0.0,0.0,0.0,0.0,3.2281,3.492,3.905,0.0,0.0,0.0,0.0,0.0,0.0,3.8826,3.2033,0.0,0.0,0.0,0.0,0.0,0.0,0.0,0.0,0.0,0.0,0.0,0.0,0.0,0.0,0.0,0.0,0.0,0.0,0.0,0.0,0.0,0.0,0.0,0.0,0.0,0.0,0.0,0.0,0.0,0.0,0.0,0.0,0.0,0.0,0.0,0.0,0.0,0.0,0.0,0.0,0.0,0.0,0.0,0.0,0.0,0.0,0.0,0.0,0.0,0.0,0.0,0.0,0.0,0.0,0.0,3.76,4.1133,4.5493,5.0619,4.9614,4.9533,5.0477,4.6413,4.0905,3.4332,0.0,0.0,0.0,0.0,0.0,0.0,0.0,0.0,0.0,0.0,0.0,0.0,0.0,0.0,0.0,0.0,0.0,0.0,0.0,0.0,0.0,0.0,0.0,0.0,0.0,0.0,0.0,0.0,0.0,0.0,0.0,0.0,0.0,0.0,0.0,0.0,0.0,0.0,0.0,3.0207,3.2619,0.0,0.0,0.0,0.0,0.0,0.0,0.0,0.0,3.2301,0.0,0.0,0.0,0.0,0.0,0.0,0.0,0.0,0.0,0.0,0.0,0.0,0.0,0.0,0.0,0.0,0.0,0.0,0.0,0.0,0.0,0.0,0.0,0.0,0.0,0.0,0.0,0.0,0.0,0.0,0.0,0.0,0.0,0.0,0.0,0.0,0.0,0.0,0.0,0.0,0.0,0.0,0.0,0.0,0.0,0.0,0.0,0.0,0.0,0.0,0.0,0.0,0.0,0.0,0.0,0.0,3.8843,4.3687,4.8568,4.8927,4.8411,4.7222,4.5219,4.0421,3.2605,0.0,0.0,0.0,0.0,0.0,0.0,0.0,0.0,0.0,0.0,0.0,0.0,0.0,0.0,0.0,0.0,0.0,0.0,0.0,0.0,0.0,0.0,0.0,0.0,0.0,0.0,0.0,0.0,0.0,0.0,0.0,0.0,0.0,0.0,0.0,0.0,0.0,0.0,1.7231,2.2296,0.0,0.0,0.0,0.0,0.0,0.0,0.0,0.0,3.1946,0.0,0.0,0.0,0.0,0.0,0.0,0.0,0.0,0.0,0.0,0.0,0.0,0.0,0.0,0.0,0.0,0.0,0.0,0.0,0.0,0.0,0.0,0.0,0.0,0.0,0.0,0.0,0.0,0.0,0.0,0.0,0.0,0.0,0.0,0.0,0.0,0.0,0.0,0.0,0.0,0.0,0.0,0.0,0.0,0.0,0.0,0.0,0.0,0.0,0.0,0.0,0.0,0.0,0.0,0.0,0.0,0.0,0.0,4.2892,4.7016,4.8275,4.8097,4.642,4.2392,3.7133,0.0,0.0,0.0,0.0,0.0,0.0,0.0,0.0,0.0,0.0,0.0,0.0,0.0,0.0,0.0,0.0,0.0,0.0,0.0,0.0,0.0,0.0,0.0,0.0,0.0,0.0,0.0,0.0,0.0,0.0,0.0,0.0,0.0,0.0,0.0,0.0,0.0,0.0,0.0,0.0,0.0,0.0,0.0,0.0,0.0,0.0,0.0,0.0,0.0,0.0,0.0,0.0,0.0,0.0,0.0,0.0,0.0,0.0,0.0,0.0,0.0,0.0,0.0,0.0,0.0,0.0,0.0,0.0,0.0,0.0,0.0,0.0,0.0,0.0,0.0,0.0,0.0,0.0,0.0,0.0,0.0,0.0,0.0,0.0,0.0,0.0,0.0,0.0,0.0,0.0,0.0,0.0,0.0,0.0,0.0,0.0,0.0,0.0,0.0,0.0,0.0,0.0,0.0,0.0,0.0,0.0,0.0,0.0,4.1304,4.5306,4.7265,4.7361,4.5396,3.9773,3.4388,0.0,0.0,0.0,0.0,0.0,0.0,0.0,0.0,0.0,0.0,0.0,0.0,0.0,0.0,0.0,0.0,0.0,0.0,0.0,0.0,0.0,0.0,0.0,0.0,0.0,0.0,0.0,0.0,0.0,0.0,0.0,0.0,0.0,0.0,0.0,0.0,0.0,0.0,0.0,0.0,0.0,0.0,0.0,0.0,0.0,0.0,0.0,0.0,2.7026,0.0,0.0,0.0,0.0,0.0,0.0,0.0,0.0,0.0,0.0,0.0,0.0,0.0,0.0,0.0,0.0,0.0,0.0,0.0,0.0,0.0,0.0,0.0,0.0,0.0,0.0,0.0,0.0,0.0,0.0,0.0,0.0,0.0,0.0,0.0,0.0,0.0,0.0,0.0,0.0,0.0,0.0,0.0,0.0,0.0,0.0,0.0,0.0,0.0,0.0,0.0,0.0,0.0,0.0,0.0,0.0,0.0,0.0,0.0,3.7261,4.3164,4.5396,4.508,4.2012,3.8548,3.4388,0.0,0.0,0.0,0.0,0.0,0.0,0.0,0.0,0.0,0.0,0.0,0.0,0.0,0.0,0.0,0.0,0.0,0.0,0.0,0.0,0.0,0.0,0.0,0.0,0.0,0.0,0.0,0.0,0.0,0.0,0.0,0.0,0.0,0.0,0.0,0.0,0.0,0.0,0.0,0.0,0.0,0.0,0.0,0.0,0.0,0.0,0.0,0.0,0.0,0.0,0.0,0.0,0.0,0.0,0.0,0.0,0.0,0.0,0.0,0.0,0.0,0.0,0.0,0.0,0.0,0.0,0.0,0.0,0.0,0.0,0.0,0.0,0.0,0.0,0.0,0.0,0.0,0.0,0.0,0.0,0.0,0.0,0.0,0.0,0.0,0.0,0.0,0.0,0.0,0.0,0.0,0.0,0.0,0.0,0.0,0.0,0.0,0.0,0.0,0.0,0.0,0.0,0.0,0.0,0.0,0.0,0.0,0.0,3.4269,3.8855,4.2711,4.2772,3.8789,3.4632,3.1469,0.0,0.0,0.0,0.0,0.0,0.0,0.0,0.0,0.0,0.0,0.0,0.0,0.0,0.0,0.0,0.0,0.0,0.0,0.0,0.0,0.0,0.0,0.0,0.0,0.0,0.0,0.0,0.0,0.0,0.0,0.0,0.0,0.0,0.0,0.0,0.0,0.0,0.0,0.0,0.0,0.0,0.0,0.0,0.0,0.0,0.0,0.0,0.0,0.0,0.0,0.0,0.0,0.0,0.0,0.0,0.0,0.0,0.0,0.0,0.0,0.0,0.0,0.0,0.0,0.0,0.0,0.0,0.0,0.0,0.0,0.0,0.0,0.0,0.0,0.0,0.0,0.0,0.0,0.0,0.0,0.0,0.0,0.0,0.0,0.0,0.0,0.0,0.0,0.0,0.0,0.0,0.0,0.0,0.0,0.0,0.0,0.0,0.0,0.0,0.0,0.0,0.0,0.0,0.0,0.0,0.0,0.0,0.0,0.0,3.478,3.9535,4.0124,3.6047,3.1179,2.8008,0.0,0.0,0.0,0.0,0.0,0.0,0.0,0.0,0.0,0.0,0.0,0.0,0.0,0.0,0.0,0.0,0.0,0.0,0.0,0.0,0.0,0.0,0.0,0.0,0.0,0.0,0.0,0.0,0.0,0.0,0.0,0.0,0.0,0.0,0.0,0.0,0.0,0.0,0.0,0.0,0.0,0.0,0.0,0.0,0.0,0.0,0.0,0.0,0.0,0.0,0.0,0.0,0.0,0.0,0.0,0.0,0.0,0.0,0.0,0.0,0.0,0.0,0.0,0.0,0.0,0.0,0.0,0.0,0.0,0.0,0.0,0.0,0.0,0.0,0.0,0.0,0.0,0.0,0.0,0.0,0.0,0.0,0.0,0.0,0.0,0.0,0.0,0.0,0.0,0.0,0.0,0.0,0.0,0.0,0.0,0.0,0.0,0.0,0.0,0.0,0.0,0.0,0.0,0.0,0.0,0.0,0.0,0.0,0.0,3.1554,3.5944,3.6815,3.402,2.9188,2.459,0.0,0.0,0.0,0.0,0.0,0.0,0.0,0.0,0.0,0.0,0.0,0.0,0.0,0.0,0.0,0.0,0.0,0.0,0.0,0.0,0.0,0.0,0.0,0.0,0.0,0.0,0.0,0.0,0.0,0.0,0.0,0.0,0.0,0.0,0.0,0.0,0.0,0.0,0.0,0.0,0.0,0.0,0.0,0.0,0.0,0.0,0.0,0.0,0.0,0.0,0.0,0.0,0.0,0.0,0.0,0.0,0.0,0.0,0.0,0.0,0.0,0.0,0.0,0.0,0.0,0.0,0.0,0.0,0.0,0.0,0.0,0.0,0.0,0.0,0.0,0.0,0.0,0.0,0.0,0.0,0.0,0.0,0.0,0.0,0.0,0.0,0.0,0.0,0.0,0.0,0.0,0.0,0.0,0.0,0.0,0.0,0.0,0.0,0.0,0.0,0.0,0.0,0.0,0.0,0.0,0.0,0.0,0.0,0.0,2.5505,2.9741,3.2304,3.259,2.779,2.4095,2.1562,0.0,0.0,0.0,0.0,0.0,0.0,0.0,0.0,0.0,0.0,0.0,0.0,0.0,0.0,0.0,0.0,0.0,0.0,0.0,0.0,0.0,0.0,0.0,0.0,0.0,0.0,0.0,0.0,0.0,0.0,0.0,0.0,0.0,0.0,0.0,0.0,0.0,0.0,0.0,0.0,0.0,0.0,0.0,0.0,0.0,0.0,0.0,0.0,0.0,0.0,0.0,0.0,0.0,0.0,0.0,0.0,0.0,0.0,0.0,0.0,0.0,0.0,0.0,0.0,0.0,0.0,0.0,0.0,0.0,0.0,0.0,0.0,0.0,0.0,0.0,0.0,0.0,0.0,0.0,0.0,0.0,0.0,0.0,0.0,0.0,0.0,0.0,0.0,0.0,0.0,0.0,0.0,0.0,0.0,0.0,0.0,0.0,0.0,0.0,0.0,0.0,0.0,0.0,0.0,0.0,0.0,0.0,0.0,2.3079,2.7227,2.9724,3.0016,2.6308,2.3147,0.0,0.0,0.0,0.0,0.0,0.0,0.0,0.0,0.0,0.0,0.0,0.0,0.0,0.0,0.0,0.0,0.0,0.0,0.0,0.0,0.0,0.0,0.0,0.0,0.0,0.0,0.0,0.0,0.0,0.0,0.0,0.0,0.0,0.0,0.0,0.0,0.0,0.0,0.0,0.0,0.0,0.0,0.0,0.0,0.0,0.0,0.0,0.0,0.0,0.0,0.0,0.0,0.0,0.0,0.0,0.0,0.0,0.0,0.0,0.0,0.0,0.0,0.0,0.0,0.0,0.0,0.0,0.0,0.0,0.0,0.0,0.0,0.0,0.0,0.0,0.0,0.0,0.0,0.0,0.0,0.0,0.0,0.0,0.0,0.0,0.0,0.0,0.0,0.0,0.0,0.0,0.0,0.0,0.0,0.0,0.0,0.0,0.0,0.0,0.0,0.0,0.0,0.0,0.0,0.0,0.0,0.0,0.0,2.1111,2.5763,2.9079,2.9359,2.6603,2.4741,2.1414,0.0,0.0,0.0,0.0,0.0,0.0,0.0,0.0,0.0,0.0,0.0,0.0,0.0,0.0,0.0,0.0,0.0,0.0,0.0,0.0,0.0,0.0,0.0,0.0,0.0,0.0,0.0,0.0,0.0,0.0,0.0,0.0,0.0,0.0,0.0,0.0,0.0,0.0,0.0,0.0,0.0,0.0,0.0,0.0,0.0,0.0,0.0,0.0,0.0,0.0,0.0,0.0,0.0,0.0,0.0,0.0,0.0,0.0,0.0,0.0,0.0,0.0,0.0,0.0,0.0,0.0,0.0,0.0,0.0,0.0,0.0,0.0,0.0,0.0,0.0,0.0,0.0,0.0,0.0,0.0,0.0,0.0,0.0,0.0,0.0,0.0,0.0,0.0,0.0,0.0,0.0,0.0,0.0,0.0,0.0,0.0,0.0,0.0,0.0,0.0,0.0,0.0,0.0,0.0,0.0,0.0,0.0,0.0,0.0,2.1179,0.0,2.565,0.0,2.428,2.2322,0.0,0.0,0.0,0.0,0.0,0.0,0.0,0.0,0.0,0.0,0.0,0.0,0.0,0.0,0.0,0.0,0.0,0.0,0.0,0.0,0.0,0.0,0.0,0.0,0.0,0.0,0.0,0.0,0.0,0.0,0.0,0.0,0.0,0.0,0.0,0.0,0.0,0.0,0.0,0.0,0.0,0.0,0.0,0.0,0.0,0.0,0.0,0.0,0.0,0.0,0.0,0.0,0.0,0.0,0.0,0.0,0.0,0.0,0.0,0.0,0.0,0.0,0.0,0.0,0.0,0.0,0.0,0.0,0.0,0.0,0.0,0.0,0.0,0.0,0.0,0.0,0.0,0.0,0.0,0.0,0.0,0.0,0.0,0.0,0.0,0.0,0.0,0.0,0.0,0.0,0.0,0.0,0.0,0.0,0.0,0.0,0.0,0.0,0.0,0.0,0.0,0.0,0.0,0.0,0.0,0.0,0.0,0.0,0.0,2.0533,2.1108,2.32,2.6731,2.3994,2.2314,0.0,0.0,0.0,0.0,0.0,0.0,0.0,0.0,0.0,0.0,0.0,0.0,0.0,0.0,0.0,0.0,0.0,0.0,0.0,0.0,0.0,0.0,0.0,0.0,0.0,0.0,0.0,0.0,0.0,0.0,0.0,0.0,0.0,0.0,0.0,0.0,0.0,0.0,0.0,0.0,0.0,0.0,0.0,0.0,0.0,0.0,0.0,0.0,0.0,0.0,0.0,0.0,0.0,0.0,0.0,0.0,0.0,0.0,0.0,0.0,0.0,0.0,0.0,0.0,0.0,0.0,0.0,0.0,0.0,0.0,0.0,0.0,0.0,0.0,0.0,0.0,0.0,0.0,0.0,0.0,0.0,0.0,0.0,0.0,0.0,0.0,0.0,0.0,0.0,0.0,0.0,0.0,0.0,0.0,0.0,0.0,0.0,0.0,0.0,0.0,0.0,0.0,0.0,0.0,0.0,0.0,0.0,0.0,0.0,2.3233,2.2072,2.2147,2.3743,2.3684,2.1407,0.0,0.0,0.0,0.0,0.0,0.0,0.0,0.0,0.0,0.0,0.0,0.0,0.0,0.0,0.0,0.0,0.0,0.0,0.0,0.0,0.0,0.0,0.0,0.0,0.0,0.0,0.0,0.0,0.0,0.0,0.0,0.0,0.0,0.0,0.0,0.0,0.0,0.0,0.0,0.0,0.0,0.0,0.0,0.0,0.0,0.0,0.0,0.0,0.0,0.0,0.0,0.0,0.0,0.0,0.0,0.0,0.0,0.0,0.0,0.0,0.0,0.0,0.0,0.0,0.0,0.0,0.0,0.0,0.0,0.0,0.0,0.0,0.0,0.0,0.0,0.0,0.0,0.0,0.0,0.0,0.0,0.0,0.0,0.0,0.0,0.0,0.0,0.0,0.0,0.0,0.0,0.0,0.0,0.0,0.0,0.0,0.0,0.0,0.0,0.0,0.0,0.0,0.0,0.0,0.0,0.0,0.0,0.0,0.0,0.0,2.0896,2.1486,2.1914,2.1919,2.0689,1.8159,0.0,0.0,0.0,0.0,0.0,0.0,0.0,0.0,0.0,0.0,0.0,0.0,0.0,0.0,0.0,0.0,0.0,0.0,0.0,0.0,0.0,0.0,0.0,0.0,0.0,0.0,0.0,0.0,0.0,0.0,0.0,0.0,0.0,0.0,0.0,0.0,0.0,0.0,0.0,0.0,0.0,0.0,0.0,0.0,0.0,0.0,0.0,0.0,0.0,0.0,0.0,0.0,0.0,0.0,0.0,0.0,0.0,0.0,0.0,0.0,0.0,0.0,0.0,0.0,0.0,0.0,0.0,0.0,0.0,0.0,0.0,0.0,0.0,0.0,0.0,0.0,0.0,0.0,0.0,0.0,0.0,0.0,0.0,0.0,0.0,0.0,0.0,0.0,0.0,0.0,0.0,0.0,0.0,0.0,0.0,0.0,0.0,0.0,0.0,0.0,0.0,0.0,0.0,0.0,0.0,0.0,0.0,0.0,0.0,0.0,2.0549,2.1175,2.1175,2.0426,0.0,0.0,0.0,0.0,0.0,0.0,0.0,0.0,0.0,0.0,0.0,0.0,0.0,0.0,0.0,0.0,0.0,0.0,0.0,0.0,0.0,0.0,0.0,0.0,0.0,0.0,0.0,0.0,0.0,0.0,0.0,0.0,0.0,0.0,0.0,0.0,0.0,0.0,0.0,0.0,0.0,0.0,0.0,0.0,0.0,0.0,0.0,0.0,0.0,0.0,0.0,0.0,0.0,0.0,0.0,0.0,0.0,0.0,0.0,0.0,0.0,0.0,0.0,0.0,0.0,0.0,0.0,0.0,0.0,0.0,0.0,0.0,0.0,0.0,0.0,0.0,0.0,0.0,0.0,0.0,0.0,0.0,0.0,0.0,0.0,0.0,0.0,0.0,0.0,0.0,0.0,0.0,0.0,0.0,0.0,0.0,0.0,0.0,0.0,0.0,0.0,0.0,0.0,0.0,0.0,0.0,0.0,0.0,0.0,0.0,0.0,1.9642,2.0961,2.1246,0.0,1.898,0.0,0.0,0.0,0.0,0.0,0.0,0.0,0.0,0.0,0.0,0.0,0.0,0.0,0.0,0.0,0.0,0.0,0.0,0.0,0.0,0.0,0.0,0.0,0.0,0.0,0.0,0.0,0.0,0.0,0.0,0.0,0.0,0.0,0.0,0.0,0.0,0.0,0.0,0.0,0.0,0.0,0.0,0.0,0.0,0.0,0.0,0.0,0.0,0.0,0.0,0.0,0.0,0.0,0.0,0.0,0.0,0.0,0.0,0.0,0.0,0.0,0.0,0.0,0.0,0.0,0.0,0.0,0.0,0.0,0.0,0.0,0.0,0.0,0.0,0.0,0.0,0.0,0.0,0.0,0.0,0.0,0.0,0.0,0.0,0.0,0.0,0.0,0.0,0.0,0.0,0.0,0.0,0.0,0.0,0.0,0.0,0.0,0.0,0.0,0.0,0.0,0.0,0.0,0.0,0.0,0.0,0.0,0.0,0.0,0.0,0.0,0.0,2.1727,2.1691,1.8959,0.0,0.0,0.0,0.0,0.0,0.0,0.0,0.0,0.0,0.0,0.0,0.0,0.0,0.0,0.0,0.0,0.0,0.0,0.0,0.0,0.0,0.0,0.0,0.0,0.0,0.0,0.0,0.0,0.0,0.0,0.0,0.0,0.0,0.0,0.0,0.0,0.0,0.0,0.0,0.0,0.0,0.0,0.0,0.0,0.0,0.0,0.0,0.0,0.0,0.0,0.0,0.0,0.0,0.0,0.0,0.0,0.0,0.0,0.0,0.0,0.0,0.0,0.0,0.0,0.0,0.0,0.0,0.0,0.0,0.0,0.0,0.0,0.0,0.0,0.0,0.0,0.0,0.0,0.0,0.0,0.0,0.0,0.0,0.0,0.0,0.0,0.0,0.0,0.0,0.0,0.0,0.0,0.0,0.0,0.0,0.0,0.0,0.0,0.0,0.0,0.0,0.0,0.0,0.0,0.0,0.0,0.0,0.0,0.0,0.0,2.0204,1.8959,2.1274,2.1382,1.8938,0.0,0.0,0.0,0.0,0.0,0.0,0.0,0.0,0.0,0.0,0.0,0.0,0.0,0.0,0.0,0.0,0.0,0.0,0.0,0.0,0.0,0.0,0.0,0.0,0.0,0.0,0.0,0.0,0.0,0.0,0.0,0.0,0.0,0.0,0.0,0.0,0.0,0.0,0.0,0.0,0.0,0.0,0.0,0.0,0.0,0.0,0.0,0.0,0.0,0.0,0.0,0.0,0.0,0.0,0.0,0.0,0.0,0.0,0.0,0.0,0.0,0.0,0.0,0.0,0.0,0.0,0.0,0.0,0.0,0.0,0.0,0.0,0.0,0.0,0.0,0.0,0.0,0.0,0.0,0.0,0.0,0.0,0.0,0.0,0.0,0.0,0.0,0.0,0.0,0.0,0.0,0.0,0.0,0.0,0.0,0.0,0.0,0.0,0.0,0.0,0.0,0.0,0.0,0.0,0.0,0.0,0.0,0.0,0.0,0.0,0.0,0.0,0.0,0.0,1.8938,0.0,0.0,0.0,0.0,0.0,0.0,0.0,0.0,0.0,0.0,0.0,0.0,0.0,0.0,0.0,0.0,0.0,0.0,0.0,0.0,0.0,0.0,0.0,0.0,0.0,0.0,0.0,0.0,0.0,0.0,0.0,0.0,0.0,0.0,0.0,0.0,0.0,0.0,0.0,0.0,0.0,0.0,0.0,0.0,0.0,0.0,0.0,0.0,0.0,0.0,0.0,0.0,0.0,0.0,0.0,0.0,0.0,0.0,0.0,0.0,0.0,0.0,0.0,0.0,0.0,0.0,0.0,0.0,0.0,0.0,0.0,0.0,0.0,0.0,0.0,0.0,0.0,0.0,0.0,0.0,0.0,0.0,0.0,0.0,0.0,0.0,0.0,0.0,0.0,0.0,0.0,0.0,0.0,0.0,0.0,0.0,0.0,0.0,0.0,0.0,0.0,0.0,0.0,0.0,0.0,0.0,0.0,0.0,0.0,0.0,0.0,0.0,0.0,0.0,0.0,0.0,0.0,0.0,0.0,0.0,0.0,0.0,0.0,0.0,0.0,0.0,0.0,0.0,0.0,0.0,0.0,0.0,0.0,0.0,0.0,0.0,0.0,0.0,0.0,0.0,0.0,0.0,0.0,0.0,0.0,0.0,0.0,0.0,0.0,0.0,0.0,0.0,0.0,0.0,0.0,0.0,0.0,0.0,0.0,0.0,0.0,0.0,0.0,0.0,0.0,0.0,0.0,0.0,0.0,0.0,0.0,0.0,0.0,0.0,0.0,0.0,0.0,0.0,0.0,0.0,0.0,0.0,0.0,0.0,0.0,0.0,0.0,0.0,0.0,0.0,0.0,0.0,0.0,0.0,0.0,0.0,0.0,0.0,0.0,0.0,0.0,0.0,0.0,0.0,0.0,0.0,0.0,0.0,0.0,0.0,0.0,0.0,0.0,0.0,0.0,0.0,0.0,0.0,0.0,0.0,0.0,0.0,0.0,0.0,0.0,0.0,0.0,0.0,0.0,0.0,0.0,0.0,0.0,0.0,0.0,0.0,0.0,0.0,0.0,0.0,0.0,0.0,0.0,0.0,0.0,0.0,0.0,0.0,0.0,0.0,0.0,0.0,0.0,0.0,0.0,0.0,0.0,0.0,0.0,0.0,0.0,0.0,0.0,0.0,0.0,0.0,0.0,0.0,0.0,0.0,0.0,0.0,0.0,0.0,0.0,0.0,0.0,0.0,0.0,0.0,0.0,0.0,0.0,0.0,0.0,0.0,0.0,0.0,0.0,0.0,0.0,0.0,0.0,0.0,0.0,0.0,0.0,0.0,0.0,0.0,0.0,0.0,0.0,0.0,0.0,0.0,0.0,0.0,0.0,0.0,0.0,0.0,0.0,0.0,0.0,0.0,0.0,0.0,0.0,0.0,0.0,0.0,0.0,0.0,0.0,0.0,0.0,0.0,0.0,0.0,0.0,0.0,0.0,0.0,0.0,0.0,0.0,0.0,0.0,0.0,0.0,0.0,0.0,0.0,0.0,0.0,0.0,0.0,0.0,0.0,0.0,0.0,0.0,0.0,0.0,0.0,0.0,0.0,0.0,0.0,0.0,0.0,0.0,0.0,0.0,0.0,0.0,0.0,0.0,0.0,0.0,0.0,0.0,0.0,0.0,0.0,0.0,0.0,0.0,0.0,0.0,0.0,0.0,0.0,0.0,0.0,0.0,0.0,0.0,0.0,0.0,0.0,0.0,0.0,0.0,0.0,0.0,0.0,0.0,0.0,0.0,0.0,0.0,0.0,0.0,0.0,0.0,0.0,0.0,0.0,0.0,0.0,0.0,0.0,0.0,0.0,0.0,0.0,0.0,0.0,0.0,0.0,0.0,0.0,0.0,0.0,0.0,0.0,0.0,0.0,0.0,0.0,0.0,0.0,0.0,0.0,0.0,0.0,0.0,0.0,0.0,0.0,0.0,0.0,0.0,0.0,0.0,0.0,0.0,0.0,0.0,0.0,0.0,0.0,0.0,0.0,0.0,0.0,0.0,0.0,0.0,0.0,0.0,0.0,0.0,0.0,0.0,0.0,0.0,0.0,0.0,0.0,0.0,0.0,0.0,0.0,0.0,0.0,0.0,0.0,0.0,0.0,0.0,0.0,0.0,0.0,0.0,0.0,0.0,0.0,0.0,0.0,0.0,0.0,0.0,0.0,0.0,0.0,0.0,0.0,0.0,0.0,0.0,0.0,0.0,0.0,0.0,0.0,0.0,0.0,0.0,0.0,0.0,0.0,0.0,0.0,0.0,0.0,0.0,0.0,0.0,0.0,0.0,0.0,0.0,0.0,0.0,0.0,0.0,0.0,0.0,0.0,0.0,0.0,0.0,0.0,0.0,0.0,0.0,0.0,0.0,0.0,0.0,0.0,0.0,0.0,0.0,0.0,0.0,0.0,0.0,0.0,0.0,0.0,0.0,0.0,0.0,0.0,0.0,0.0,0.0,0.0,0.0,0.0,0.0,0.0,0.0,0.0,0.0,0.0,0.0,0.0,0.0,0.0,0.0,0.0,0.0,0.0,0.0,0.0,0.0,0.0,0.0,0.0,0.0,0.0,0.0,0.0,0.0,0.0,0.0,0.0,0.0,0.0,0.0,0.0,0.0,0.0,0.0,0.0,0.0,0.0,0.0,0.0,0.0,0.0,0.0,0.0,0.0,0.0,0.0,0.0,0.0,0.0,0.0,0.0,0.0,0.0,0.0,0.0,0.0,0.0,0.0,0.0,0.0,0.0,0.0,0.0,0.0,0.0,0.0,0.0,0.0,0.0,0.0,0.0,0.0,0.0,0.0,0.0,0.0,0.0,0.0,0.0,0.0,0.0,0.0,0.0,0.0,0.0,0.0,0.0,0.0,0.0,0.0,0.0,0.0,0.0,0.0,0.0,0.0,0.0,0.0,0.0,0.0,0.0,0.0,0.0,0.0,0.0,0.0,0.0,0.0,0.0,0.0,0.0,0.0,0.0,0.0,0.0,0.0,0.0,0.0,0.0,0.0,0.0,0.0,0.0,0.0,0.0,0.0,0.0,0.0,0.0,0.0,0.0,0.0,0.0,0.0,0.0,0.0,0.0,0.0,0.0,0.0,0.0,0.0,0.0,0.0,0.0,0.0,0.0,0.0,0.0,0.0,0.0,0.0,0.0,0.0,0.0,0.0,0.0,0.0,0.0,0.0,0.0,0.0,0.0,0.0,0.0,0.0,0.0,0.0,0.0,0.0,0.0,0.0,0.0,0.0,0.0,0.0,0.0,0.0,0.0,0.0,0.0,0.0,0.0,0.0,0.0,0.0,0.0,0.0,0.0,0.0,0.0,0.0,0.0,0.0,0.0,0.0,0.0,0.0,0.0,0.0,0.0,0.0,0.0,0.0,0.0,0.0,0.0,0.0,0.0,0.0,0.0,0.0,0.0,0.0,0.0,0.0,0.0,0.0,0.0,0.0,0.0,0.0,0.0,0.0,0.0,0.0,0.0,0.0,0.0,0.0,0.0,0.0,0.0,0.0,0.0,0.0,0.0,0.0,0.0,0.0,0.0,0.0,0.0,0.0,0.0,0.0,0.0,0.0,0.0,0.0,0.0,0.0,0.0,0.0,0.0,0.0,0.0,0.0,0.0,0.0,0.0,0.0,0.0,0.0,0.0,0.0,0.0,0.0,0.0,0.0,0.0,0.0,0.0,0.0,0.0,0.0,0.0,0.0,0.0,0.0,0.0,0.0,0.0,0.0,0.0,0.0,0.0,0.0,0.0,0.0,0.0,0.0,0.0,0.0,0.0,0.0,0.0,0.0,0.0,0.0,0.0,0.0,0.0,0.0,0.0,0.0,0.0,0.0,0.0,0.0,0.0,0.0,0.0,0.0,0.0,0.0,0.0,0.0,0.0,0.0,0.0,0.0,0.0,0.0,0.0,0.0,0.0,0.0,0.0,0.0,0.0,0.0,0.0,0.0,0.0,0.0,0.0,0.0,0.0,0.0,0.0,0.0,0.0,0.0,0.0,0.0,0.0,0.0,0.0,0.0,0.0,0.0,0.0,0.0,0.0,0.0,0.0,0.0,0.0,0.0,0.0,0.0,0.0,0.0,0.0,0.0,0.0,0.0,0.0,0.0,0.0,0.0,0.0,0.0,0.0,0.0,0.0,0.0,0.0,0.0,0.0,0.0,0.0,0.0,0.0,0.0,0.0,0.0,0.0,0.0,0.0,0.0,0.0,0.0,0.0,0.0,0.0,0.0,0.0,0.0,0.0,0.0,0.0,0.0,0.0,0.0,0.0,0.0,0.0,0.0,0.0,0.0,0.0,0.0,0.0,0.0,0.0,0.0,0.0,0.0,0.0,0.0,0.0]}],[{"header":{"parameterUnit":"kt","parameterCategory":2,"dx":1,"dy":1,"la1":29.587661999999998,"la2":31.0,"lo1":-88.76705300000003,"lo2":-86.6583820000003,"nx":115,"ny":88,"refTime":"2022-10-03T06:00:00:Z","depth":0,"parameterNumber":2,"parameterNumberName":"V-component_of_WINDS"},"data":[-1.6918,-1.6918,-1.7214,-1.7667,-1.8267,-1.8709,-1.914,-1.9862,-1.9862,-1.9716,-1.9716,-1.9716,-2.0446,-2.2033,-2.1888,-2.1599,-2.1163,-2.0872,-2.0872,-2.0727,-2.0435,-2.0143,-1.9851,-1.9705,-1.9255,-1.8668,-1.809,-1.7933,-1.7396,-1.6742,-1.5973,-1.4839,-1.4397,-1.3796,-1.2695,-1.2685,-1.3199,-1.3193,-1.3517,-1.3778,-1.4203,-1.5103,-1.6474,-1.677,-1.6918,-1.6918,-1.6918,-1.6918,-1.6918,-1.6918,-1.677,-1.6631,-1.6186,-1.5591,-1.4846,-1.3942,-1.3044,-1.215,-1.1392,-1.0795,-1.0505,-1.0354,-0.9582,-0.9274,-0.822,-0.6999,-0.7003,-0.6714,-0.6914,-0.7368,-0.7223,-0.6719,-0.6833,-0.7733,-0.7832,-0.6983,-0.6295,-0.566,-0.491,-0.4726,-0.4729,-0.4729,-0.4726,-0.4726,-0.4729,-0.4729,-0.4729,-0.4576,-0.4422,-0.4424,-0.4576,-0.4119,-0.351,-0.4731,-0.5953,-0.6105,-0.6728,-0.7018,-0.7314,-0.7162,-0.6858,-0.6254,-0.5797,-0.4881,-0.4726,-0.4571,-0.4419,-0.4422,-0.4574,-0.4574,-0.4726,-0.4878,-0.4726,-0.4422,-0.4117,-1.7066,-1.7066,-1.8394,-1.8983,-1.9287,-2.0446,-2.1454,-2.2178,-2.2322,-2.2166,-2.2178,-2.2755,-2.3344,-2.3344,-2.2912,-2.2755,-2.2322,-2.1888,-2.1599,-2.1454,-2.1454,-2.1018,-2.0872,-2.0872,-2.0581,-2.0143,-1.9559,-1.9276,-1.8983,-1.8275,-1.7476,-1.6787,-1.6408,-1.6248,-1.5972,-1.5641,-1.5339,-1.5119,-1.521,-1.5583,-1.6046,-1.6649,-1.6927,-1.7076,-1.6918,-1.6918,-1.6918,-1.6918,-1.6918,-1.6927,-1.6937,-1.6807,-1.6518,-1.5915,-1.5161,-1.4398,-1.3351,-1.2744,-1.2137,-1.1686,-1.1555,-1.1103,-1.0169,-0.941,-0.8518,-0.8064,-0.8211,-0.8224,-0.8238,-0.8385,-0.8338,-0.8171,-0.837,-0.8747,-0.8227,-0.7651,-0.6913,-0.6217,-0.5453,-0.4878,-0.503,-0.503,-0.503,-0.4878,-0.4878,-0.4878,-0.4878,-0.4878,-0.503,-0.5639,-0.6247,-0.6095,-0.6241,-0.605,-0.6105,-0.6732,-0.7535,-0.7832,-0.7998,-0.7646,-0.7314,-0.701,-0.6554,-0.6098,-0.5794,-0.5639,-0.5487,-0.5487,-0.5183,-0.5033,-0.5335,-0.5487,-0.5335,-0.5335,-0.503,-1.9255,-1.9548,-2.0289,-2.0581,-2.0727,-2.1744,-2.2322,-2.2755,-2.32,-2.3619,-2.4062,-2.4348,-2.4348,-2.3762,-2.3631,-2.3331,-2.3188,-2.2611,-2.2322,-2.2033,-2.1888,-2.1744,-2.1599,-2.1308,-2.1308,-2.1308,-2.0738,-2.03,-2.0154,-1.9527,-1.8952,-1.835,-1.8532,-1.8227,-1.7408,-1.7472,-1.7317,-1.6779,-1.7057,-1.7224,-1.7529,-1.7529,-1.7677,-1.7529,-1.7381,-1.7076,-1.7076,-1.6918,-1.6918,-1.6927,-1.6955,-1.6825,-1.6221,-1.5467,-1.4564,-1.4107,-1.3351,-1.2744,-1.2437,-1.2444,-1.2915,-1.2772,-1.215,-1.0164,-0.9269,-0.9727,-0.9878,-0.997,-0.9986,-1.0029,-1.0029,-0.9587,-0.9812,-0.9809,-0.9317,-0.8922,-0.837,-0.7786,-0.7276,-0.6658,-0.6281,-0.6281,-0.6427,-0.6427,-0.6558,-0.6558,-0.6855,-0.7003,-0.7003,-0.731,-0.822,-0.8764,-1.0227,-1.0315,-0.8496,-0.8076,-0.8562,-0.8553,-0.8717,-0.8512,-0.8309,-0.7811,-0.747,-0.701,-0.6706,-0.6554,-0.6554,-0.6551,-0.6399,-0.5946,-0.5946,-0.6098,-0.6098,-0.6098,-0.6105,-2.1308,-2.161,-2.161,-2.1888,-2.2322,-2.3188,-2.3631,-2.3619,-2.4205,-2.479,-2.5218,-2.5374,-2.5075,-2.4634,-2.4348,-2.4205,-2.4049,-2.3475,-2.3056,-2.2755,-2.2322,-2.2033,-2.1888,-2.1744,-2.1599,-2.161,-2.1599,-2.1308,-2.1018,-2.0727,-2.03,-1.9737,-1.9865,-1.9739,-1.901,-1.8989,-1.8844,-1.8346,-1.8763,-1.9189,-1.8897,-1.8552,-1.8414,-1.8267,-1.7834,-1.7529,-1.7371,-1.7066,-1.6918,-1.6927,-1.6955,-1.651,-1.5749,-1.4705,-1.4257,-1.3957,-1.3494,-1.3194,-1.3037,-1.3344,-1.3665,-1.3673,-1.3058,-1.153,-1.0928,-1.1386,-1.1599,-1.1724,-1.1738,-1.1851,-1.1789,-1.133,-1.1021,-1.0825,-1.0767,-1.0488,-1.0039,-0.9761,-0.9484,-0.899,-0.8213,-0.8173,-0.8313,-0.8448,-0.8564,-0.8698,-0.8683,-0.883,-0.8835,-0.9456,-1.0224,-0.8801,-1.1178,-1.2542,-1.0705,-0.9855,-0.9907,-0.9907,-0.9702,-0.9445,-0.9181,-0.8881,-0.858,-0.8033,-0.7474,-0.7162,-0.7162,-0.7322,-0.7322,-0.7162,-0.701,-0.6858,-0.6858,-0.7025,-0.7342,-2.1599,-2.1744,-2.161,-2.2467,-2.3762,-2.5218,-2.5786,-2.5942,-2.58,-2.6084,-2.6084,-2.6084,-2.5942,-2.5658,-2.5218,-2.4933,-2.4777,-2.4192,-2.3762,-2.3762,-2.3031,-2.2611,-2.2467,-2.2033,-2.2033,-2.1744,-2.1599,-2.1744,-2.1599,-2.1454,-2.1308,-2.0884,-2.1076,-2.1121,-2.0862,-2.084,-2.0767,-2.0433,-2.0818,-2.0768,-2.0084,-1.9716,-1.9569,-1.914,-1.8562,-1.7972,-1.7815,-1.7362,-1.6918,-1.6937,-1.6807,-1.637,-1.56,-1.4697,-1.454,-1.4249,-1.4303,-1.401,-1.4033,-1.4252,-1.4222,-1.371,-1.3037,-1.2347,-1.2124,-1.2461,-1.2895,-1.3032,-1.3167,-1.3464,-1.3435,-1.2962,-1.2783,-1.259,-1.2324,-1.2094,-1.1814,-1.1465,-1.1178,-1.0805,-1.0161,-0.9925,-1.0066,-1.0055,-1.0034,-0.9212,-0.9158,-1.0068,-1.0533,-1.1484,-1.0241,-0.7334,-1.0404,-1.2626,-1.1469,-1.1279,-1.1325,-1.0965,-1.0754,-1.049,-1.0208,-1.0034,-0.9569,-0.8608,-0.7832,-0.7655,-0.7671,-0.7667,-0.7679,-0.751,-0.7498,-0.7482,-0.7786,-0.8112,-0.8313,-2.4192,-2.4348,-2.4205,-2.4491,-2.536,-2.5942,-2.6226,-2.6226,-2.6226,-2.6226,-2.6226,-2.6226,-2.6226,-2.6226,-2.5942,-2.58,-2.5658,-2.4933,-2.4634,-2.4348,-2.3762,-2.3619,-2.3331,-2.3188,-2.29,-2.2755,-2.2611,-2.2322,-2.2322,-2.2322,-2.2178,-2.2093,-2.2823,-2.2756,-2.2688,-2.2537,-2.2666,-2.2911,-2.259,-2.2162,-2.1681,-2.1454,-2.0738,-2.0008,-1.8846,-1.8414,-1.7972,-1.7362,-1.6918,-1.6927,-1.6955,-1.6352,-1.4979,-1.4697,-1.4556,-1.4753,-1.4872,-1.5016,-1.4895,-1.5021,-1.4859,-1.4636,-1.4428,-1.3874,-1.38,-1.3717,-1.4153,-1.4285,-1.4636,-1.4749,-1.4677,-1.4609,-1.4412,-1.4379,-1.4036,-1.3699,-1.3438,-1.3159,-1.2783,-1.2539,-1.2239,-1.1819,-1.1593,-1.1581,-1.134,-1.0973,-1.1172,-1.1639,-1.2299,-1.3146,-1.11,-0.9142,-1.1427,-1.3248,-1.312,-1.2962,-1.2764,-1.237,-1.1985,-1.1574,-1.1441,-1.1077,-1.0781,-0.9768,-0.8425,-0.8585,-0.881,-0.8603,-0.8076,-0.7587,-0.7421,-0.777,-0.827,-0.8722,-0.8938,-2.5942,-2.6226,-2.5942,-2.5942,-2.624,-2.6226,-2.6226,-2.6226,-2.6226,-2.6226,-2.6226,-2.6226,-2.6226,-2.6226,-2.6226,-2.6226,-2.5942,-2.58,-2.5502,-2.5075,-2.4634,-2.4491,-2.4348,-2.4062,-2.4062,-2.3905,-2.3762,-2.3475,-2.3488,-2.3488,-2.3488,-2.3169,-2.3683,-2.4183,-2.414,-2.4249,-2.4504,-2.4649,-2.388,-2.3344,-2.2974,-2.2768,-2.2335,-2.161,-2.0738,-2.0008,-1.9287,-1.8384,-1.7824,-1.7381,-1.7252,-1.6343,-1.4987,-1.465,-1.4856,-1.504,-1.5289,-1.5383,-1.5266,-1.544,-1.5622,-1.5587,-1.5518,-1.5177,-1.4972,-1.5085,-1.5648,-1.5571,-1.578,-1.579,-1.5736,-1.553,-1.5376,-1.534,-1.5427,-1.5078,-1.47,-1.4439,-1.4215,-1.3996,-1.3795,-1.3502,-1.3328,-1.3139,-1.2892,-1.2988,-1.3196,-1.3401,-1.3788,-1.4235,-1.3095,-1.2579,-1.379,-1.4114,-1.4187,-1.3862,-1.366,-1.3634,-1.3102,-1.269,-1.2419,-1.221,-1.205,-1.1313,-1.005,-0.9807,-0.9869,-0.942,-0.886,-0.8192,-0.7993,-0.8392,-0.8617,-0.9088,-0.9445,-2.624,-2.6226,-2.624,-2.624,-2.624,-2.6354,-2.6325,-2.6283,-2.6283,-2.6311,-2.6254,-2.6311,-2.6496,-2.6283,-2.6226,-2.6382,-2.624,-2.6367,-2.6226,-2.5942,-2.5786,-2.5914,-2.5616,-2.5048,-2.519,-2.5062,-2.5062,-2.4906,-2.5062,-2.4919,-2.4491,-2.4363,-2.4754,-2.5361,-2.5512,-2.5427,-2.5233,-2.529,-2.462,-2.4243,-2.3983,-2.3775,-2.3488,-2.3056,-2.2335,-2.1599,-2.0872,-1.9851,-1.9307,-1.8592,-1.7853,-1.6779,-1.586,-1.508,-1.5484,-1.5907,-1.6073,-1.5898,-1.5654,-1.5566,-1.5901,-1.6347,-1.6119,-1.5586,-1.5358,-1.5857,-1.6142,-1.619,-1.6324,-1.6482,-1.6497,-1.6195,-1.6078,-1.6195,-1.6328,-1.622,-1.5865,-1.5732,-1.5517,-1.5318,-1.5104,-1.4687,-1.4489,-1.4397,-1.4161,-1.4142,-1.4225,-1.4622,-1.5103,-1.5403,-1.5118,-1.4747,-1.4849,-1.5177,-1.4714,-1.3996,-1.3792,-1.3759,-1.3425,-1.3242,-1.345,-1.3235,-1.2475,-1.1594,-1.1315,-1.089,-1.0636,-1.0142,-0.9338,-0.9276,-0.9055,-0.9314,-0.9184,-0.9659,-1.0336,-2.6226,-2.6226,-2.6226,-2.6226,-2.6354,-2.7386,-2.7878,-2.7878,-2.7597,-2.734,-2.7315,-2.7271,-2.743,-2.7414,-2.7151,-2.6932,-2.6664,-2.7088,-2.7355,-2.7058,-2.7058,-2.734,-2.748,-2.7184,-2.6762,-2.7044,-2.6903,-2.6466,-2.6466,-2.6042,-2.5886,-2.6041,-2.6243,-2.6785,-2.7119,-2.6558,-2.6054,-2.5987,-2.5463,-2.4928,-2.4741,-2.4634,-2.4491,-2.3918,-2.3344,-2.2755,-2.2178,-2.132,-2.0457,-1.9748,-1.9013,-1.809,-1.6492,-1.5718,-1.5769,-1.5803,-1.5989,-1.5941,-1.6021,-1.5877,-1.6183,-1.6615,-1.6582,-1.6393,-1.6316,-1.6347,-1.6284,-1.6292,-1.6466,-1.6332,-1.6016,-1.5874,-1.5656,-1.5726,-1.5883,-1.6253,-1.5981,-1.6213,-1.6058,-1.5732,-1.5539,-1.5177,-1.4758,-1.5024,-1.5105,-1.5191,-1.5283,-1.5813,-1.6328,-1.6305,-1.6219,-1.5813,-1.5827,-1.542,-1.4907,-1.4228,-1.3884,-1.3878,-1.3515,-1.3318,-1.3337,-1.3248,-1.2259,-1.1579,-1.1027,-1.0882,-1.0871,-1.0275,-0.9178,-0.8907,-0.9624,-1.0005,-0.9898,-1.0601,-1.1425,-2.7286,-2.73,-2.7286,-2.7286,-2.7416,-2.8495,-2.8982,-2.8802,-2.8447,-2.8142,-2.8101,-2.8306,-2.8513,-2.8688,-2.852,-2.8529,-2.837,-2.8853,-2.8861,-2.8704,-2.8704,-2.8988,-2.8769,-2.846,-2.832,-2.8583,-2.8429,-2.7995,-2.801,-2.7715,-2.7715,-2.7776,-2.7725,-2.8334,-2.869,-2.8182,-2.6827,-2.6748,-2.6319,-2.571,-2.5544,-2.5516,-2.5218,-2.4777,-2.4348,-2.3905,-2.3619,-2.29,-2.2214,-2.1693,-2.0019,-1.9119,-1.7824,-1.6787,-1.6627,-1.6432,-1.6472,-1.6381,-1.6439,-1.6246,-1.6328,-1.6691,-1.6749,-1.6663,-1.6671,-1.6796,-1.653,-1.63,-1.5921,-1.5748,-1.5605,-1.5511,-1.5495,-1.5558,-1.5684,-1.589,-1.6087,-1.6332,-1.6584,-1.6259,-1.6119,-1.5755,-1.5747,-1.5827,-1.5958,-1.5897,-1.605,-1.6576,-1.6639,-1.6639,-1.6639,-1.6476,-1.6127,-1.5599,-1.4914,-1.4221,-1.3878,-1.3878,-1.3706,-1.3349,-1.3071,-1.2802,-1.2119,-1.1588,-1.1015,-1.0462,-0.9939,-0.9396,-0.859,-0.8785,-0.9792,-1.0502,-1.049,-1.107,-1.1984,-2.9239,-2.9298,-2.9239,-2.9268,-2.9357,-2.9508,-2.9568,-2.9779,-2.8971,-2.8628,-2.8673,-2.921,-2.9614,-2.9734,-3.0415,-3.0438,-3.0617,-3.1253,-3.1337,-3.071,-3.063,-3.0418,-3.0128,-2.9608,-2.9672,-2.9619,-2.9539,-2.9401,-2.9416,-2.9278,-2.9278,-2.9203,-2.8894,-2.9142,-3.0454,-2.9745,-2.8346,-2.6794,-2.6927,-2.6636,-2.6324,-2.6126,-2.6098,-2.5786,-2.5644,-2.536,-2.4933,-2.4205,-2.3657,-2.2854,-2.132,-1.9851,-1.8729,-1.7758,-1.7271,-1.7244,-1.7261,-1.73,-1.7407,-1.6777,-1.6647,-1.682,-1.6756,-1.679,-1.6662,-1.6556,-1.6389,-1.5724,-1.5282,-1.5077,-1.5171,-1.529,-1.529,-1.5345,-1.5455,-1.5613,-1.5795,-1.6016,-1.6379,-1.6391,-1.6608,-1.6624,-1.6608,-1.6647,-1.6445,-1.6616,-1.6639,-1.6647,-1.6655,-1.6655,-1.6655,-1.6476,-1.5956,-1.5606,-1.5256,-1.4392,-1.3878,-1.3878,-1.3693,-1.3476,-1.3052,-1.2504,-1.2074,-1.1896,-1.1021,-0.9942,-0.907,-0.8586,-0.8726,-0.9079,-1.0163,-1.1043,-1.108,-1.1348,-1.2175,-2.9298,-2.9298,-2.9298,-3.0123,-3.156,-3.1919,-3.2059,-3.1873,-3.0517,-2.9729,-2.9523,-3.0702,-3.1498,-3.1813,-3.2277,-3.233,-3.2395,-3.2806,-3.2737,-3.262,-3.2683,-3.3033,-3.2695,-3.2055,-3.1281,-3.1322,-3.1195,-3.0586,-3.0497,-3.0448,-3.0277,-3.0277,-3.0083,-3.0073,-3.046,-2.9639,-2.8643,-2.7731,-2.7433,-2.7022,-2.6866,-2.651,-2.6254,-2.6226,-2.6226,-2.6084,-2.58,-2.5516,-2.4817,-2.3526,-2.1912,-2.0446,-1.9044,-1.795,-1.727,-1.7148,-1.7043,-1.6938,-1.6805,-1.6697,-1.6875,-1.6804,-1.6801,-1.6742,-1.6655,-1.6201,-1.5883,-1.5423,-1.4934,-1.4619,-1.4737,-1.484,-1.4887,-1.499,-1.5108,-1.525,-1.544,-1.5661,-1.6047,-1.6308,-1.6261,-1.6142,-1.6268,-1.6608,-1.6576,-1.6568,-1.6521,-1.645,-1.6474,-1.6659,-1.6723,-1.6453,-1.5941,-1.5777,-1.5599,-1.4571,-1.3878,-1.3878,-1.3693,-1.347,-1.3146,-1.2309,-1.1837,-1.1551,-1.0738,-0.9465,-0.9347,-1.0065,-0.9874,-0.9798,-1.0753,-1.2015,-1.2048,-1.2417,-1.2864,-3.0517,-3.0656,-3.1866,-3.2509,-3.3014,-3.3933,-3.4248,-3.3691,-3.2147,-3.1481,-3.196,-3.2754,-3.3443,-3.367,-3.4003,-3.4171,-3.4154,-3.4753,-3.4696,-3.4575,-3.442,-3.4593,-3.4135,-3.3576,-3.3352,-3.2929,-3.2348,-3.18,-3.1455,-3.1098,-3.1048,-3.0981,-3.0964,-3.1055,-3.0864,-3.0338,-2.9136,-2.8404,-2.7982,-2.7577,-2.7321,-2.6752,-2.6482,-2.6268,-2.6226,-2.6226,-2.6226,-2.6084,-2.5259,-2.4127,-2.2359,-2.0615,-1.9044,-1.7686,-1.6964,-1.6973,-1.6983,-1.6843,-1.6676,-1.6807,-1.6918,-1.6861,-1.6848,-1.6555,-1.6225,-1.5618,-1.5182,-1.5031,-1.4658,-1.4556,-1.4564,-1.4556,-1.4556,-1.4603,-1.4713,-1.4856,-1.5045,-1.5266,-1.555,-1.5534,-1.5542,-1.5724,-1.6126,-1.6505,-1.6497,-1.6466,-1.6332,-1.6221,-1.638,-1.638,-1.6603,-1.6545,-1.6096,-1.577,-1.5435,-1.4742,-1.3878,-1.3878,-1.3878,-1.366,-1.3418,-1.2542,-1.2006,-1.11,-1.0522,-1.0727,-1.1156,-1.149,-1.1863,-1.2236,-1.2787,-1.3149,-1.3385,-1.3773,-1.4086,-3.268,-3.2839,-3.5591,-3.5608,-3.3965,-3.5659,-3.5832,-3.4934,-3.3502,-3.3652,-3.4579,-3.4695,-3.4545,-3.5263,-3.5783,-3.6247,-3.6402,-3.7193,-3.6698,-3.6292,-3.6079,-3.5666,-3.5166,-3.4774,-3.4419,-3.417,-3.3512,-3.2973,-3.2766,-3.1955,-3.1733,-3.1664,-3.1425,-3.2186,-3.218,-3.1252,-3.0171,-2.9198,-2.8743,-2.8302,-2.7747,-2.7179,-2.688,-2.6439,-2.6283,-2.6226,-2.624,-2.5942,-2.5415,-2.5068,-2.2805,-2.0738,-1.9287,-1.7952,-1.7214,-1.7066,-1.6918,-1.6918,-1.677,-1.6918,-1.6918,-1.677,-1.6667,-1.6282,-1.571,-1.487,-1.4697,-1.4721,-1.4595,-1.454,-1.454,-1.454,-1.454,-1.4571,-1.4611,-1.4698,-1.4792,-1.4982,-1.4974,-1.4824,-1.5021,-1.544,-1.5842,-1.6119,-1.6174,-1.6111,-1.5984,-1.6,-1.5984,-1.5875,-1.6276,-1.6707,-1.6267,-1.5606,-1.5263,-1.4749,-1.4056,-1.3878,-1.3878,-1.368,-1.3615,-1.3159,-1.2573,-1.1985,-1.1773,-1.2474,-1.299,-1.313,-1.3616,-1.4481,-1.4669,-1.439,-1.446,-1.4691,-1.4813,-3.4579,-3.3791,-3.623,-3.6402,-3.491,-3.6437,-3.6765,-3.5834,-3.4382,-3.4587,-3.5288,-3.4306,-3.4575,-3.5783,-3.6782,-3.7056,-3.7228,-3.7365,-3.7376,-3.7305,-3.7046,-3.6886,-3.6398,-3.5973,-3.5631,-3.5281,-3.453,-3.3846,-3.3411,-3.3081,-3.2976,-3.3029,-3.2162,-3.2136,-3.2342,-3.2082,-3.1525,-3.0376,-2.9571,-2.8914,-2.843,-2.7676,-2.7221,-2.6837,-2.6524,-2.6226,-2.6226,-2.5942,-2.5346,-2.483,-2.3044,-2.114,-1.9537,-1.8532,-1.7805,-1.7214,-1.6918,-1.6918,-1.6918,-1.6918,-1.6918,-1.6927,-1.6788,-1.6195,-1.5293,-1.4846,-1.454,-1.4689,-1.454,-1.454,-1.454,-1.454,-1.454,-1.454,-1.454,-1.454,-1.4579,-1.4706,-1.4721,-1.4729,-1.4927,-1.5282,-1.544,-1.5724,-1.5795,-1.5732,-1.5748,-1.5771,-1.5648,-1.5369,-1.6,-1.7095,-1.6453,-1.5442,-1.4928,-1.4406,-1.4056,-1.3878,-1.3878,-1.366,-1.353,-1.3245,-1.3076,-1.307,-1.3013,-1.2983,-1.2253,-1.3729,-1.5044,-1.4956,-1.4865,-1.5125,-1.5158,-1.5433,-1.521,-3.7519,-3.6437,-3.8574,-3.825,-3.6884,-3.8439,-3.8629,-3.7673,-3.5879,-3.5909,-3.6734,-3.4879,-3.4903,-3.6555,-3.7228,-3.7501,-3.7501,-3.7501,-3.7501,-3.7466,-3.7466,-3.7466,-3.7394,-3.7091,-3.6708,-3.6362,-3.5648,-3.4798,-3.4821,-3.4645,-3.4542,-3.4099,-3.3186,-3.2622,-3.3433,-3.3214,-3.2579,-3.1608,-3.0781,-2.9944,-2.9098,-2.8373,-2.7733,-2.7179,-2.6837,-2.6524,-2.6197,-2.5814,-2.5374,-2.4687,-2.3031,-2.1419,-2.0111,-1.8962,-1.8404,-1.7657,-1.7214,-1.6918,-1.6918,-1.6918,-1.6918,-1.6927,-1.6779,-1.6492,-1.5591,-1.5136,-1.4987,-1.4846,-1.4697,-1.454,-1.454,-1.454,-1.454,-1.454,-1.454,-1.454,-1.4548,-1.4571,-1.4611,-1.4721,-1.4848,-1.4887,-1.499,-1.5156,-1.5187,-1.5219,-1.5156,-1.544,-1.5406,-1.5339,-1.6188,-1.7166,-1.6081,-1.5092,-1.4578,-1.4063,-1.3884,-1.3878,-1.3878,-1.3825,-1.366,-1.3647,-1.3556,-1.3569,-1.3495,-1.2686,-1.1489,-1.2475,-1.4381,-1.4644,-1.4851,-1.4197,-1.3567,-1.4034,-1.4203,-4.043,-3.9335,-4.1011,-4.0711,-3.9146,-4.043,-4.075,-3.96,-3.7306,-3.74,-3.8653,-3.6501,-3.6075,-3.7387,-3.7673,-3.7519,-3.7501,-3.7501,-3.7501,-3.7501,-3.7501,-3.7501,-3.7483,-3.7501,-3.7376,-3.7234,-3.662,-3.6539,-3.6492,-3.6366,-3.6062,-3.5164,-3.424,-3.3797,-3.4118,-3.3947,-3.317,-3.2272,-3.2261,-3.1376,-2.9556,-2.9042,-2.8316,-2.7619,-2.715,-2.6851,-2.6325,-2.5828,-2.5429,-2.4898,-2.3056,-2.1575,-2.0581,-1.9444,-1.8993,-1.8404,-1.7667,-1.6918,-1.6918,-1.6918,-1.6918,-1.6918,-1.6927,-1.677,-1.6177,-1.574,-1.5302,-1.5161,-1.4846,-1.454,-1.454,-1.454,-1.454,-1.454,-1.454,-1.454,-1.454,-1.4556,-1.4556,-1.4666,-1.5006,-1.4919,-1.4753,-1.469,-1.4642,-1.4617,-1.4766,-1.5295,-1.5478,-1.5781,-1.641,-1.5934,-1.4963,-1.4543,-1.4228,-1.4056,-1.3878,-1.3878,-1.3878,-1.3864,-1.3621,-1.3438,-1.3686,-1.3432,-1.3535,-1.2906,-1.2526,-1.2793,-1.3708,-1.3951,-1.3659,-1.3094,-1.2313,-1.2318,-1.2695,-4.0561,-3.9012,-4.131,-4.133,-4.0129,-4.075,-4.075,-3.9805,-3.8049,-3.8257,-3.9299,-3.74,-3.6979,-3.7977,-3.798,-3.7501,-3.7501,-3.7501,-3.7501,-3.7519,-3.7519,-3.7519,-3.7501,-3.7501,-3.7655,-3.7791,-3.7521,-3.7611,-3.7868,-3.7618,-3.6938,-3.6116,-3.5362,-3.4807,-3.4605,-3.4635,-3.3634,-3.2979,-3.2616,-3.1839,-3.0335,-2.9456,-2.8658,-2.8003,-2.7449,-2.6908,-2.6382,-2.5856,-2.5571,-2.4987,-2.4088,-2.278,-2.1512,-2.0615,-1.9569,-1.8699,-1.7519,-1.7066,-1.6918,-1.6918,-1.6918,-1.6918,-1.6927,-1.664,-1.6343,-1.6055,-1.5476,-1.4846,-1.454,-1.454,-1.454,-1.4548,-1.4564,-1.4571,-1.4579,-1.4571,-1.4642,-1.4666,-1.4698,-1.4887,-1.5156,-1.5156,-1.4942,-1.484,-1.4666,-1.4761,-1.4958,-1.5311,-1.5606,-1.6004,-1.6021,-1.5273,-1.4602,-1.4365,-1.4049,-1.3878,-1.3878,-1.3878,-1.3878,-1.3706,-1.3534,-1.319,-1.2674,-1.2347,-1.2646,-1.2833,-1.3654,-1.3963,-1.3131,-1.2354,-1.2459,-1.2103,-1.168,-1.167,-1.1501,-4.1715,-4.1385,-4.2104,-4.2313,-4.2142,-4.1845,-4.1262,-4.0398,-3.8797,-3.8769,-3.8998,-3.7923,-3.7839,-3.8866,-3.8897,-3.8439,-3.8133,-3.8133,-3.7827,-3.7673,-3.798,-3.8133,-3.8133,-3.8592,-3.8745,-3.8745,-3.8745,-3.9012,-3.9297,-3.8435,-3.7873,-3.7204,-3.6313,-3.5643,-3.5461,-3.5408,-3.4313,-3.2902,-3.2844,-3.2168,-3.0189,-2.9742,-2.9155,-2.8587,-2.7975,-2.7335,-2.678,-2.6224,-2.5728,-2.5259,-2.4504,-2.3552,-2.2552,-2.1366,-1.9862,-1.8699,-1.751,-1.6918,-1.6918,-1.6918,-1.6918,-1.6918,-1.6927,-1.6788,-1.664,-1.6352,-1.6063,-1.5302,-1.4995,-1.454,-1.4548,-1.4729,-1.4785,-1.4824,-1.4966,-1.5108,-1.5179,-1.5116,-1.5195,-1.5353,-1.5582,-1.5574,-1.5266,-1.4919,-1.4737,-1.4808,-1.5013,-1.5463,-1.5805,-1.6108,-1.6324,-1.5524,-1.4508,-1.4228,-1.3878,-1.3878,-1.3878,-1.3878,-1.3706,-1.3534,-1.3184,-1.2846,-1.2335,-1.15,-1.1257,-1.1386,-1.2079,-1.2416,-1.1502,-1.0748,-1.0725,-1.0716,-1.0771,-1.0648,-1.0487,-4.3707,-4.447,-4.3273,-4.3334,-4.3972,-4.2922,-4.1841,-4.1039,-3.9691,-3.9608,-4.0007,-3.8711,-3.8922,-3.9805,-4.0129,-3.9675,-3.9068,-3.8916,-3.8592,-3.8287,-3.8611,-3.8763,-3.8745,-3.9372,-4.0129,-4.028,-4.0129,-3.9978,-3.9827,-3.9372,-3.8768,-3.8427,-3.7313,-3.6712,-3.6492,-3.6193,-3.4966,-3.3202,-3.3183,-3.2325,-3.052,-2.9815,-2.9499,-2.8715,-2.8259,-2.7705,-2.7164,-2.6508,-2.5898,-2.5401,-2.4361,-2.3683,-2.2697,-2.1355,-1.9716,-1.8404,-1.7362,-1.6918,-1.6918,-1.6918,-1.6918,-1.6918,-1.6918,-1.6918,-1.677,-1.6779,-1.6195,-1.5591,-1.5144,-1.4697,-1.4556,-1.4832,-1.5183,-1.514,-1.529,-1.5566,-1.5708,-1.5692,-1.5676,-1.5716,-1.5953,-1.6063,-1.5511,-1.5077,-1.4934,-1.4958,-1.5603,-1.6319,-1.5898,-1.5896,-1.6066,-1.5256,-1.4228,-1.4049,-1.3878,-1.3878,-1.3878,-1.3878,-1.3534,-1.3184,-1.3018,-1.2674,-1.1684,-1.0525,-1.0012,-1.0225,-1.0139,-1.0415,-0.9925,-0.9812,-0.9386,-0.9139,-0.9374,-0.9808,-0.9506,-4.5904,-4.5791,-4.4642,-4.4204,-4.4033,-4.2942,-4.233,-4.2028,-4.1099,-4.0895,-4.1574,-4.0231,-4.0017,-4.0745,-4.043,-4.0129,-3.9827,-3.9827,-3.9675,-3.9372,-3.9675,-3.9524,-3.922,-3.9808,-4.0731,-4.1777,-4.1349,-4.075,-4.028,-3.9808,-3.9372,-3.8726,-3.8257,-3.791,-3.738,-3.6659,-3.5543,-3.3853,-3.3506,-3.2512,-3.1074,-3.0189,-2.954,-2.8727,-2.8231,-2.7804,-2.7207,-2.6537,-2.5898,-2.5231,-2.4348,-2.2912,-2.1477,-2.0446,-1.9559,-1.7353,-1.7057,-1.6918,-1.6918,-1.6918,-1.6918,-1.6918,-1.6918,-1.6918,-1.677,-1.6465,-1.6037,-1.5591,-1.5302,-1.4846,-1.4571,-1.4871,-1.5207,-1.5148,-1.5377,-1.5566,-1.5676,-1.5898,-1.5969,-1.6016,-1.6087,-1.6166,-1.5732,-1.5305,-1.5171,-1.5156,-1.6287,-1.6845,-1.5984,-1.5523,-1.5354,-1.4756,-1.4228,-1.3878,-1.3878,-1.3878,-1.3878,-1.3706,-1.319,-1.3018,-1.319,-1.1813,-1.0273,-0.9317,-0.903,-0.916,-0.9089,-0.9299,-0.9354,-0.9074,-0.8858,-0.8739,-0.8751,-0.8814,-0.879,-4.6857,-4.7191,-4.5719,-4.5461,-4.5625,-4.3982,-4.2833,-4.2269,-4.1424,-4.1284,-4.136,-4.085,-4.0983,-4.1757,-4.1479,-4.133,-4.118,-4.09,-4.043,-4.0129,-4.0449,-4.0449,-4.0299,-4.0881,-4.133,-4.1648,-4.1797,-4.1648,-4.1031,-4.0561,-3.9978,-3.9997,-3.9049,-3.879,-3.868,-3.8061,-3.6451,-3.498,-3.4131,-3.2918,-3.1443,-3.0737,-3.0116,-2.9569,-2.8584,-2.7668,-2.7074,-2.6523,-2.5783,-2.4946,-2.4205,-2.3044,-2.1599,-2.0727,-1.9559,-1.81,-1.7362,-1.6918,-1.6918,-1.6918,-1.6918,-1.6918,-1.6918,-1.6918,-1.677,-1.6177,-1.574,-1.56,-1.531,-1.4854,-1.4564,-1.4879,-1.5053,-1.5303,-1.5384,-1.5558,-1.5669,-1.6071,-1.6379,-1.6316,-1.6182,-1.6205,-1.6047,-1.5692,-1.5542,-1.5629,-1.6755,-1.6696,-1.5828,-1.5436,-1.5242,-1.4585,-1.4056,-1.3878,-1.3878,-1.3878,-1.3878,-1.3534,-1.284,-1.2674,-1.2157,-1.0604,-0.8878,-0.8717,-0.875,-0.8516,-0.854,-0.8568,-0.8782,-0.8568,-0.8512,-0.8489,-0.8465,-0.8465,-0.8441,-4.742,-4.835,-4.6663,-4.6525,-4.6971,-4.4995,-4.3497,-4.2692,-4.1948,-4.1666,-4.1404,-4.1364,-4.1746,-4.239,-4.2242,-4.239,-4.2094,-4.1648,-4.12,-4.0581,-4.12,-4.1369,-4.1499,-4.1925,-4.1945,-4.1797,-4.1945,-4.2094,-4.1797,-4.09,-4.06,-4.092,-3.9846,-3.9372,-3.994,-3.909,-3.7619,-3.6014,-3.4977,-3.361,-3.2168,-3.1346,-3.083,-3.0394,-2.9197,-2.806,-2.711,-2.6421,-2.5585,-2.4661,-2.4075,-2.3369,-2.19,-2.0727,-1.9423,-1.8257,-1.7362,-1.6918,-1.6918,-1.6918,-1.6918,-1.6937,-1.6861,-1.6898,-1.6898,-1.6353,-1.5945,-1.5685,-1.5333,-1.508,-1.4871,-1.5116,-1.5337,-1.5463,-1.5669,-1.5811,-1.5716,-1.6126,-1.649,-1.6592,-1.6592,-1.645,-1.5937,-1.6172,-1.6236,-1.619,-1.6292,-1.6195,-1.6135,-1.574,-1.5271,-1.4592,-1.4234,-1.3878,-1.3878,-1.3878,-1.3878,-1.3706,-1.2668,-1.1979,-1.0604,-0.9051,-0.87,-0.8523,-0.8334,-0.831,-0.8326,-0.8346,-0.8314,-0.8183,-0.8084,-0.8127,-0.8151,-0.8112,-0.8088,-4.8335,-4.8758,-4.7426,-4.6958,-4.6918,-4.5684,-4.4577,-4.3698,-4.3356,-4.2873,-4.229,-4.2209,-4.2229,-4.239,-4.239,-4.239,-4.239,-4.2142,-4.2014,-4.1974,-4.1974,-4.2054,-4.2054,-4.2242,-4.2242,-4.2094,-4.1499,-4.1518,-4.1518,-4.1219,-4.107,-4.105,-4.0449,-4.0449,-4.0449,-3.9543,-3.8556,-3.7305,-3.5851,-3.4399,-3.3078,-3.1555,-3.087,-3.0584,-2.9813,-2.902,-2.7833,-2.6312,-2.5089,-2.4491,-2.4166,-2.3131,-2.161,-1.9862,-1.8404,-1.7362,-1.7066,-1.6918,-1.6918,-1.6946,-1.6946,-1.6879,-1.6974,-1.684,-1.6875,-1.6765,-1.6423,-1.6132,-1.6065,-1.5711,-1.5534,-1.5724,-1.585,-1.5882,-1.6245,-1.6174,-1.5842,-1.5929,-1.63,-1.6592,-1.6655,-1.6647,-1.6723,-1.6884,-1.7046,-1.6619,-1.649,-1.6182,-1.5888,-1.5606,-1.5092,-1.4413,-1.4063,-1.3706,-1.3706,-1.3706,-1.3706,-1.3534,-1.233,-1.129,-0.9913,-0.8878,-0.8527,-0.831,-0.8231,-0.8187,-0.8147,-0.8068,-0.802,-0.7929,-0.7881,-0.7873,-0.7854,-0.781,-0.7786,-4.949,-4.9478,-4.8776,-4.8631,-4.8527,-4.7156,-4.6096,-4.5143,-4.4439,-4.3516,-4.2828,-4.2538,-4.239,-4.239,-4.239,-4.239,-4.229,-4.1847,-4.1646,-4.1606,-4.1626,-4.1907,-4.229,-4.239,-4.239,-4.2242,-4.2094,-4.1965,-4.1797,-4.1369,-4.1518,-4.1667,-4.105,-4.092,-4.107,-3.9997,-3.8745,-3.7193,-3.5954,-3.4546,-3.3141,-3.2069,-3.1367,-3.0889,-3.0318,-2.9532,-2.8226,-2.666,-2.5415,-2.4687,-2.4035,-2.2734,-2.0457,-1.9129,-1.81,-1.7066,-1.6918,-1.6918,-1.6955,-1.6839,-1.6947,-1.7189,-1.6999,-1.7194,-1.7256,-1.6637,-1.6372,-1.6397,-1.5972,-1.5813,-1.559,-1.57,-1.5787,-1.5921,-1.6316,-1.6513,-1.6261,-1.6316,-1.649,-1.66,-1.6663,-1.6655,-1.6655,-1.6802,-1.681,-1.6647,-1.6469,-1.5948,-1.5435,-1.5085,-1.4571,-1.3884,-1.3362,-1.3196,-1.3024,-1.3018,-1.2846,-1.268,-1.1818,-1.1462,-1.0086,-0.8874,-0.8527,-0.8318,-0.8171,-0.8052,-0.7953,-0.7866,-0.7798,-0.7746,-0.7715,-0.7667,-0.7568,-0.7496,-0.7493,-4.8901,-4.8809,-4.8809,-4.8809,-4.8684,-4.7739,-4.6731,-4.5729,-4.4876,-4.3817,-4.3123,-4.2686,-4.2538,-4.237,-4.239,-4.239,-4.2169,-4.1485,-4.1042,-4.1002,-4.0841,-4.1203,-4.1887,-4.2229,-4.239,-4.239,-4.2242,-4.239,-4.239,-4.1797,-4.1797,-4.239,-4.1499,-4.1219,-4.1349,-4.0581,-3.9049,-3.7637,-3.6282,-3.4736,-3.3458,-3.2808,-3.2057,-3.1372,-3.0633,-2.9686,-2.824,-2.7122,-2.6178,-2.5551,-2.4188,-2.1833,-1.9916,-1.8709,-1.7805,-1.7066,-1.6927,-1.6946,-1.6961,-1.7037,-1.7254,-1.7544,-1.7732,-1.7619,-1.7958,-1.7072,-1.6825,-1.6671,-1.6354,-1.5882,-1.5874,-1.5905,-1.5898,-1.5921,-1.6347,-1.6639,-1.6608,-1.6663,-1.6663,-1.6663,-1.6663,-1.6663,-1.6655,-1.6476,-1.6305,-1.6127,-1.5435,-1.4742,-1.4399,-1.4056,-1.3203,-1.268,-1.2502,-1.2335,-1.2335,-1.2157,-1.1985,-1.1818,-1.1473,-1.0945,-0.974,-0.87,-0.8527,-0.8302,-0.8112,-0.7893,-0.7774,-0.7667,-0.7596,-0.7528,-0.7512,-0.766,-0.7526,-0.7482,-0.7498,-4.6025,-4.6421,-4.6483,-4.6743,-4.6743,-4.6525,-4.5966,-4.5118,-4.4932,-4.4117,-4.3103,-4.296,-4.2686,-4.239,-4.239,-4.239,-4.2209,-4.1404,-4.0901,-4.072,-4.0419,-4.0439,-4.1304,-4.2048,-4.237,-4.239,-4.239,-4.239,-4.239,-4.2242,-4.239,-4.2242,-4.1648,-4.1518,-4.1628,-4.0731,-3.9959,-3.9183,-3.7347,-3.5815,-3.5034,-3.3458,-3.2057,-3.1241,-3.0677,-2.9605,-2.8383,-2.7563,-2.7435,-2.73,-2.3794,-2.1301,-2.0045,-1.812,-1.7066,-1.6918,-1.6918,-1.7093,-1.7225,-1.7209,-1.7389,-1.8206,-1.8604,-1.891,-1.8089,-1.8302,-1.8134,-1.731,-1.682,-1.6529,-1.6513,-1.6513,-1.6505,-1.6568,-1.6584,-1.6647,-1.6663,-1.6655,-1.6484,-1.6484,-1.6663,-1.6655,-1.6476,-1.5777,-1.5435,-1.5085,-1.4399,-1.4049,-1.3534,-1.2852,-1.1829,-1.1478,-1.1295,-1.1128,-1.1128,-1.095,-1.0945,-1.0777,-1.0258,-0.974,-0.8878,-0.8531,-0.8354,-0.8191,-0.8012,-0.7778,-0.7604,-0.7493,-0.7401,-0.7393,-0.7535,-0.7642,-0.7778,-0.7778,-0.7786,-4.6799,-4.6608,-4.6959,-4.7114,-4.7114,-4.7114,-4.6567,-4.5747,-4.5363,-4.4544,-4.3377,-4.3107,-4.2665,-4.239,-4.239,-4.239,-4.2229,-4.0841,-4.0217,-4.0177,-4.0318,-4.07,-4.1103,-4.1968,-4.239,-4.239,-4.239,-4.239,-4.239,-4.239,-4.239,-4.239,-4.2094,-4.1648,-4.0881,-4.028,-3.9201,-3.7863,-3.6299,-3.5207,-3.4264,-3.2998,-3.1882,-3.1226,-3.0699,-2.9944,-2.8715,-2.8117,-2.7904,-2.7495,-2.6472,-2.2971,-1.8518,-1.7392,-1.6918,-1.6918,-1.6937,-1.6973,-1.7166,-1.7444,-1.7984,-1.8382,-1.9111,-1.8964,-1.8479,-1.8239,-1.8361,-1.7501,-1.6989,-1.6663,-1.6663,-1.6663,-1.6484,-1.5777,-1.6275,-1.6663,-1.6655,-1.6134,-1.5606,-1.5092,-1.4921,-1.5085,-1.5263,-1.4742,-1.4399,-1.4228,-1.3534,-1.3018,-1.2674,-1.1824,-1.1306,-1.0787,-1.0258,-0.9913,-0.9913,-0.9913,-0.9908,-0.9544,-0.9185,-0.8823,-0.8474,-0.8302,-0.8258,-0.8096,-0.787,-0.7631,-0.7485,-0.7514,-0.7466,-0.7466,-0.7482,-0.747,-0.7622,-0.7773,-0.7773,-4.6534,-4.621,-4.6555,-4.6706,-4.6706,-4.6706,-4.6345,-4.556,-4.5391,-4.4738,-4.3776,-4.3547,-4.3107,-4.2686,-4.2686,-4.2377,-4.1827,-4.0902,-4.0594,-4.0983,-4.1288,-4.145,-4.1525,-4.2108,-4.239,-4.239,-4.2074,-4.2094,-4.2222,-4.1797,-4.1777,-4.1925,-4.1777,-4.105,-4.0129,-3.9675,-3.8916,-3.7092,-3.5693,-3.4753,-3.4123,-3.268,-3.1722,-3.1241,-3.0554,-3.0075,-2.9326,-2.8615,-2.8277,-2.8375,-2.8297,-2.4857,-1.8636,-1.6875,-1.6927,-1.6918,-1.6918,-1.6946,-1.7148,-1.7462,-1.7799,-1.841,-1.8956,-1.8992,-1.8497,-1.7926,-1.7501,-1.7322,-1.6989,-1.6484,-1.6305,-1.6476,-1.602,-1.4652,-1.5142,-1.5448,-1.5258,-1.4945,-1.4208,-1.3311,-1.3534,-1.3878,-1.4049,-1.3706,-1.3362,-1.3362,-1.268,-1.1991,-1.1991,-1.1484,-1.0797,-0.9922,-0.9225,-0.87,-0.8874,-0.922,-0.9146,-0.8726,-0.8535,-0.8179,-0.8195,-0.8191,-0.8123,-0.7977,-0.7723,-0.752,-0.7389,-0.7466,-0.7466,-0.7466,-0.747,-0.747,-0.7466,-0.747,-0.7622,-4.4796,-4.488,-4.4732,-4.4923,-4.4987,-4.4987,-4.4817,-4.4838,-4.4817,-4.4526,-4.4151,-4.4421,-4.3943,-4.3192,-4.3236,-4.2554,-4.1328,-4.1674,-4.2328,-4.2989,-4.2554,-4.2288,-4.2503,-4.2498,-4.2686,-4.239,-4.1648,-4.1667,-4.2242,-4.1031,-4.06,-4.107,-4.06,-4.0129,-3.9978,-3.922,-3.8611,-3.7845,-3.6005,-3.491,-3.4736,-3.2839,-3.1562,-3.1211,-3.0421,-2.9887,-2.9923,-2.9045,-2.8896,-2.9415,-2.8126,-2.4005,-1.8443,-1.6998,-1.6918,-1.6918,-1.6918,-1.7111,-1.728,-1.7055,-1.7288,-1.7759,-1.8734,-1.8646,-1.783,-1.721,-1.6691,-1.6683,-1.6545,-1.6244,-1.5362,-1.5842,-1.5463,-1.3817,-1.343,-1.3599,-1.3424,-1.339,-1.2759,-1.1837,-1.2596,-1.3515,-1.3006,-1.259,-1.2407,-1.2265,-1.1779,-1.1274,-1.1306,-1.1144,-1.0273,-0.9225,-0.87,-0.8527,-0.8354,-0.8334,-0.8203,-0.8084,-0.8056,-0.8052,-0.8064,-0.8056,-0.7989,-0.7877,-0.7627,-0.7445,-0.747,-0.7622,-0.747,-0.7769,-0.7773,-0.7773,-0.7622,-0.7622,-0.7622,-4.4711,-4.4711,-4.4711,-4.4711,-4.4711,-4.4711,-4.4711,-4.4711,-4.4711,-4.4421,-4.4276,-4.4545,-4.3918,-4.2843,-4.3045,-4.212,-4.0477,-4.1924,-4.2762,-4.2739,-4.3523,-4.3981,-4.3964,-4.3985,-4.3693,-4.3107,-4.2813,-4.2242,-4.1667,-4.107,-4.075,-4.043,-4.028,-3.9656,-3.922,-3.8934,-3.8152,-3.7092,-3.5693,-3.4753,-3.3965,-3.2377,-3.1417,-3.1226,-3.0438,-2.9942,-2.9804,-2.8993,-2.8667,-2.8354,-2.5554,-2.2516,-1.996,-1.8022,-1.6918,-1.6918,-1.6918,-1.6834,-1.6671,-1.6455,-1.6338,-1.65,-1.6364,-1.6443,-1.6979,-1.5905,-1.4962,-1.4626,-1.4462,-1.4298,-1.3941,-1.3674,-1.3255,-1.2562,-1.2423,-1.2723,-1.3162,-1.2742,-1.219,-1.1603,-1.1672,-1.1495,-1.1319,-1.1165,-1.1242,-1.1217,-1.107,-1.0985,-1.1107,-1.1144,-1.0797,-1.0273,-0.9571,-0.8869,-0.8647,-0.8519,-0.8361,-0.8086,-0.787,-0.7897,-0.7913,-0.7897,-0.7842,-0.7735,-0.758,-0.7401,-0.7466,-0.7622,-0.7925,-0.8073,-0.8073,-0.8077,-0.7925,-0.7773,-0.7925,-4.4711,-4.4711,-4.4711,-4.4711,-4.4711,-4.4711,-4.4711,-4.4711,-4.4711,-4.4566,-4.4421,-4.4566,-4.3894,-4.2444,-4.2691,-4.2047,-4.1058,-4.2746,-4.336,-4.3313,-4.4435,-4.4855,-4.4421,-4.4276,-4.3839,-4.3254,-4.3107,-4.2538,-4.1219,-4.0299,-3.9827,-3.9524,-3.9353,-3.8916,-3.8439,-3.8305,-3.7691,-3.6334,-3.538,-3.4596,-3.3807,-3.2232,-3.1271,-3.0934,-3.0304,-2.9833,-2.9494,-2.864,-2.7811,-2.6967,-2.4485,-2.204,-2.0124,-1.8042,-1.6898,-1.6927,-1.6465,-1.6177,-1.5906,-1.5182,-1.4543,-1.4436,-1.3931,-1.4133,-1.4995,-1.4606,-1.3692,-1.3363,-1.3195,-1.2736,-1.2138,-1.1512,-1.1176,-1.11,-1.1193,-1.1326,-1.1717,-1.1524,-1.1211,-1.1222,-1.0822,-1.0544,-1.0608,-1.0441,-1.0499,-1.0631,-1.0663,-1.0721,-1.0848,-1.089,-1.0943,-1.0903,-1.009,-0.9172,-0.8897,-0.883,-0.8493,-0.8216,-0.7838,-0.8002,-0.7863,-0.7847,-0.7879,-0.794,-0.7644,-0.749,-0.7773,-0.7925,-0.8224,-0.8371,-0.8371,-0.8224,-0.8229,-0.838,-0.8229,-4.4711,-4.4711,-4.4711,-4.4711,-4.4711,-4.4711,-4.4711,-4.4855,-4.4855,-4.4855,-4.4834,-4.4791,-4.3788,-4.2054,-4.2312,-4.2605,-4.2848,-4.3872,-4.4341,-4.4562,-4.5409,-4.4999,-4.3547,-4.3547,-4.3107,-4.237,-4.237,-4.1945,-4.107,-3.8897,-3.798,-3.8611,-3.7998,-3.7501,-3.7519,-3.7655,-3.7074,-3.6334,-3.5397,-3.4596,-3.3648,-3.2073,-3.0934,-3.0583,-3.0142,-2.9494,-2.864,-2.7798,-2.6614,-2.4814,-2.4635,-2.2616,-1.8779,-1.7426,-1.6875,-1.6725,-1.5794,-1.5062,-1.4774,-1.3428,-1.2261,-1.2019,-1.2081,-1.2222,-1.2903,-1.2941,-1.2742,-1.2968,-1.2755,-1.1942,-1.033,-1.0122,-0.9954,-0.9954,-0.978,-0.9932,-0.9927,-0.9964,-0.9865,-1.0029,-1.0286,-1.0203,-1.0356,-1.0409,-1.0372,-1.0404,-1.042,-1.042,-1.0425,-1.0409,-1.0647,-1.0618,-0.9898,-0.8909,-1.001,-0.9793,-0.9137,-0.8712,-0.8221,-0.8178,-0.8054,-0.7942,-0.8149,-0.8131,-0.8015,-0.8099,-0.8238,-0.838,-0.8527,-0.8523,-0.8523,-0.8523,-0.8527,-0.883,-0.883,-4.4711,-4.4711,-4.4711,-4.4711,-4.4711,-4.4711,-4.4999,-4.5431,-4.5574,-4.5861,-4.6244,-4.5423,-4.3352,-4.1101,-4.2164,-4.2605,-4.2464,-4.4305,-4.4806,-4.4337,-4.4855,-4.4379,-4.3213,-4.2899,-4.233,-4.1588,-4.1459,-4.1161,-4.028,-3.8916,-3.8152,-3.7827,-3.7673,-3.7501,-3.7501,-3.7501,-3.7074,-3.6334,-3.5207,-3.4264,-3.3284,-3.1707,-3.0598,-3.0422,-3.0142,-2.948,-2.864,-2.7415,-2.6403,-2.5289,-2.4141,-2.237,-1.9695,-1.7849,-1.6753,-1.6288,-1.492,-1.3893,-1.3855,-1.2989,-1.1759,-1.061,-1.0376,-1.0432,-1.0613,-1.067,-1.071,-1.0727,-1.0715,-1.0539,-0.9759,-0.9754,-0.9754,-0.9754,-0.9754,-0.9754,-0.9754,-0.9754,-0.9775,-0.9828,-0.9891,-0.9897,-0.9939,-0.9965,-1.0029,-1.0155,-1.0177,-1.014,-0.9986,-0.9981,-1.0245,-1.0996,-1.0604,-1.0124,-0.9475,-0.9456,-0.9094,-0.8532,-0.8527,-0.855,-0.8417,-0.8583,-0.8764,-0.8508,-0.8897,-0.8991,-0.8683,-0.8991,-0.9294,-0.9138,-0.8982,-0.8982,-0.8982,-0.8982,-0.8987,-4.4711,-4.4711,-4.4711,-4.4711,-4.4711,-4.4711,-4.4999,-4.5287,-4.5287,-4.5215,-4.5186,-4.4249,-4.3015,-4.1675,-4.1688,-4.2121,-4.2588,-4.4319,-4.5055,-4.4834,-4.4834,-4.44,-4.3359,-4.2772,-4.1905,-4.133,-4.1011,-4.0581,-3.9827,-3.9068,-3.8305,-3.7519,-3.7501,-3.7501,-3.7501,-3.7501,-3.7074,-3.6351,-3.5034,-3.3799,-3.2401,-3.0455,-2.9513,-2.9513,-2.9069,-2.8263,-2.7375,-2.6087,-2.5014,-2.3901,-2.2607,-2.1188,-1.9715,-1.8189,-1.6892,-1.5927,-1.4889,-1.3804,-1.2707,-1.1827,-1.0928,-0.9878,-0.9738,-0.9743,-0.9754,-0.9754,-0.9754,-0.9754,-0.9754,-0.9754,-0.9759,-0.9754,-0.9754,-0.9754,-0.9754,-0.9754,-0.9754,-0.9754,-0.9754,-0.9754,-0.9754,-0.9759,-0.9754,-0.9754,-0.9812,-0.9902,-0.9949,-0.9912,-0.9796,-0.9754,-1.0002,-1.0435,-1.0573,-1.0149,-0.961,-0.9289,-0.9138,-0.9138,-0.8982,-0.883,-0.884,-0.883,-0.8982,-0.8835,-0.9294,-0.9294,-0.9138,-0.9446,-0.9754,-0.9446,-0.9446,-0.9446,-0.9294,-0.9294,-0.9294,-4.4711,-4.4711,-4.4711,-4.4711,-4.4711,-4.4711,-4.4711,-4.4711,-4.4421,-4.3729,-4.2839,-4.2163,-4.255,-4.2948,-4.1312,-4.132,-4.2831,-4.401,-4.4658,-4.4943,-4.4886,-4.4333,-4.3215,-4.2377,-4.1588,-4.09,-4.0581,-3.9921,-3.9053,-3.8616,-3.797,-3.7476,-3.7305,-3.7234,-3.727,-3.727,-3.6845,-3.6127,-3.4851,-3.311,-3.1158,-2.9177,-2.8117,-2.8117,-2.7301,-2.6485,-2.5554,-2.4333,-2.2965,-2.152,-2.0538,-1.9691,-1.9085,-1.8112,-1.7078,-1.5732,-1.512,-1.4011,-1.172,-1.043,-0.9836,-0.9743,-0.9754,-0.9754,-0.9754,-0.9754,-0.9754,-0.9754,-0.9754,-0.9754,-0.9754,-0.9754,-0.9754,-0.9754,-0.9754,-0.9754,-0.9754,-0.9754,-0.9754,-0.9754,-0.9754,-0.9754,-0.9597,-0.9602,-0.9608,-0.9634,-0.9639,-0.9775,-0.9754,-0.9754,-0.9828,-0.9801,-0.978,-0.9786,-0.977,-0.9754,-0.9602,-0.9602,-0.9446,-0.9289,-0.9138,-0.9138,-0.8987,-0.9289,-0.9597,-0.9754,-0.9602,-0.9754,-0.9754,-0.9602,-0.9602,-0.9754,-0.9754,-0.9754,-0.9602,-4.4711,-4.4711,-4.4711,-4.4711,-4.4711,-4.4421,-4.4421,-4.4711,-4.4566,-4.3776,-4.2678,-4.1782,-4.1311,-4.0922,-4.1246,-4.1328,-4.1517,-4.2121,-4.1716,-4.0859,-4.0298,-3.9948,-3.9374,-3.8862,-3.8624,-3.8726,-3.8629,-3.8129,-3.715,-3.6928,-3.6492,-3.579,-3.5755,-3.5737,-3.5737,-3.5755,-3.5443,-3.4854,-3.307,-3.1726,-3.1095,-2.9162,-2.7979,-2.7315,-2.6736,-2.573,-2.4157,-2.3131,-2.2052,-2.0987,-2.016,-1.9612,-1.9111,-1.7944,-1.6643,-1.5213,-1.401,-1.264,-1.0932,-1.0085,-0.9653,-0.9717,-0.9754,-0.9754,-0.9754,-0.9754,-0.9754,-0.9754,-0.9749,-0.9754,-0.9754,-0.9754,-0.9754,-0.9754,-0.9754,-0.9754,-0.9754,-0.9754,-0.9754,-0.9754,-0.9754,-0.9446,-0.9138,-0.9294,-0.9446,-0.9138,-0.9294,-0.9754,-0.9754,-0.9754,-0.9754,-0.9754,-0.9754,-0.9754,-0.9754,-0.9754,-0.9754,-0.9754,-0.9602,-0.9446,-0.9446,-0.9597,-0.9597,-0.9446,-0.9602,-0.9602,-0.9754,-0.9754,-0.9602,-0.9602,-0.9602,-0.9602,-0.9602,-0.9602,-0.9602,-4.4711,-4.4711,-4.4711,-4.4711,-4.4711,-4.4421,-4.4566,-4.4935,-4.3535,-4.2586,-4.2136,-4.0778,-4.0181,-4.0118,-3.9808,-3.9926,-4.0455,-4.0706,-4.0522,-4.0089,-3.9258,-3.8834,-3.8549,-3.7741,-3.74,-3.7511,-3.725,-3.6699,-3.6173,-3.5844,-3.5648,-3.5255,-3.522,-3.522,-3.522,-3.4913,-3.475,-3.457,-3.0773,-2.8735,-2.8614,-2.6652,-2.5259,-2.4534,-2.4097,-2.3478,-2.2601,-2.1393,-2.0414,-1.9703,-1.9344,-1.9065,-1.8843,-1.7957,-1.666,-1.4747,-1.3205,-1.1733,-1.0496,-0.9835,-0.9613,-0.9546,-0.9527,-0.9521,-0.9492,-0.9389,-0.9458,-0.9537,-0.9675,-0.9754,-0.9754,-0.9754,-0.9754,-0.9754,-0.9754,-0.9754,-0.9754,-0.9754,-0.9754,-0.9754,-0.9754,-0.9597,-0.9138,-0.8987,-0.883,-0.883,-0.8835,-0.8991,-0.9138,-0.9138,-0.9289,-0.9602,-0.9602,-0.9446,-0.9754,-0.9602,-0.9446,-0.9294,-0.9289,-0.9138,-0.9138,-0.9138,-0.9138,-0.9138,-0.9138,-0.9289,-0.9294,-0.9289,-0.9289,-0.9289,-0.9289,-0.9138,-0.9138,-0.9143,-0.8991,-4.4307,-4.4328,-4.4328,-4.4307,-4.4185,-4.4185,-4.4307,-4.4301,-4.1804,-4.0924,-4.1271,-3.9655,-3.9208,-3.9906,-3.8238,-3.8242,-3.9429,-3.9292,-3.9566,-4.0112,-3.9175,-3.8683,-3.8801,-3.7461,-3.6848,-3.6799,-3.6227,-3.5724,-3.5633,-3.5185,-3.5006,-3.4899,-3.4899,-3.4863,-3.4899,-3.4416,-3.4024,-3.362,-2.8728,-2.6077,-2.5612,-2.3544,-2.2208,-2.1528,-2.121,-2.1013,-2.0794,-1.9713,-1.8878,-1.8438,-1.8186,-1.8226,-1.8361,-1.754,-1.6336,-1.4484,-1.2752,-1.1337,-1.0366,-1.0033,-0.961,-0.9261,-0.9215,-0.9326,-0.9218,-0.9015,-0.9035,-0.9247,-0.9564,-0.9733,-0.9653,-0.9638,-0.9638,-0.9685,-0.9696,-0.9717,-0.9754,-0.9754,-0.9754,-0.9754,-0.9754,-0.9754,-0.9441,-0.8943,-0.8613,-0.8627,-0.8453,-0.8175,-0.8458,-0.8308,-0.8613,-0.9274,-0.9289,-0.9289,-0.9446,-0.9289,-0.9138,-0.883,-0.883,-0.883,-0.8674,-0.8674,-0.8674,-0.8527,-0.8523,-0.8674,-0.883,-0.8679,-0.8679,-0.8982,-0.883,-0.8674,-0.8674,-0.838,-0.8077,-4.2439,-4.246,-4.246,-4.2302,-4.1888,-4.1633,-4.1314,-4.101,-4.005,0.0,0.0,-3.9162,-3.867,-3.8469,-3.8471,-3.7922,-3.7148,-3.66,-3.6222,-3.6089,-3.5823,-3.6072,-3.6703,-3.6447,-3.6548,-3.6923,-3.6477,-3.5719,-3.4836,-3.438,-3.3919,-3.333,-3.3277,-3.3277,-3.3295,-3.3176,-3.1999,-2.9849,-2.8586,-2.6883,-2.483,-2.3662,-2.2352,-2.0615,-2.0574,-2.0026,-1.8968,-1.8736,-1.8571,-1.8374,-1.7002,-1.6828,-1.8202,-1.5049,-1.3525,-1.4213,-1.234,-1.0832,-1.0515,-1.0322,-1.0069,-0.9581,-0.9395,-0.9201,-0.915,-0.8738,-0.8644,-0.9051,-0.949,-0.959,-0.9353,-0.9173,-0.9247,-0.9442,-0.9458,-0.9543,-0.9717,-0.9754,-0.9743,-0.9754,-0.9754,-0.9446,-0.8977,-0.8989,-0.8865,-0.7983,-0.8144,-0.8571,-0.7965,-0.7146,-0.7004,-0.8439,-0.8821,-0.883,-0.883,-0.8982,-0.8982,-0.8679,-0.883,-0.883,-0.8674,-0.8523,-0.8527,-0.838,-0.8376,-0.8523,-0.8523,-0.8523,-0.8674,-0.883,-0.883,-0.8523,-0.8523,-0.8073,-0.7622,-4.055,-4.055,-4.055,-4.0266,0.0,-3.9738,-3.9218,-3.8133,-3.821,-3.8675,-3.9416,-3.8191,-3.7858,-3.8074,-3.7243,-3.6429,-3.5795,-3.54,-3.5136,-3.4985,-3.4587,-3.4606,-3.4985,-3.4268,-3.4382,-3.5053,-3.4629,-3.4357,-3.3985,-3.383,-3.3163,-3.2297,-3.2297,-3.167,-3.076,-3.1632,-3.1036,-2.9026,-2.7164,-2.5516,-2.4193,-2.2645,-2.0948,-1.917,-1.9287,0.0,0.0,0.0,0.0,0.0,0.0,0.0,0.0,-1.3238,0.0,-1.2449,-1.0555,-0.919,-0.8913,-0.8704,-0.8628,-0.8651,-0.8043,-0.7719,-0.7858,-0.7925,-0.8095,-0.8327,-0.8988,-0.9294,-0.9213,-0.9186,-0.9229,-0.9199,-0.9215,-0.9294,-0.9479,-0.9548,-0.9617,-0.9727,-0.9754,-0.9597,-0.9138,-0.9029,-0.849,-0.8089,-0.7925,-0.7783,-0.777,-0.6762,-0.6156,-0.7235,-0.7972,-0.8527,-0.8679,-0.883,-0.883,-0.883,-0.883,-0.8679,-0.8523,-0.8523,-0.8523,-0.8376,-0.8523,-0.8523,-0.8523,-0.8371,-0.8224,-0.8224,-0.8073,-0.7917,-0.7917,-0.7617,-0.7466,-3.8618,-3.8493,-3.8639,-3.8367,-3.8075,-3.7864,-3.6975,-3.572,-3.6256,-3.715,-3.8126,-3.6775,-3.662,-3.7065,-3.5725,-3.4908,-3.4777,-3.4606,-3.4625,-3.4758,-3.4093,-3.3865,-3.3979,-3.3025,-3.281,-3.3575,-3.3077,-3.3147,-3.3521,-3.3369,-3.2813,-3.1958,-3.194,-3.0994,-2.9367,0.0,0.0,0.0,-2.5795,-2.4049,-2.3716,-2.1535,-1.9623,-1.7893,-1.8278,0.0,-1.8296,-1.8377,-1.849,-1.8448,-1.7159,0.0,0.0,0.0,0.0,0.0,0.0,0.0,0.0,0.0,0.0,0.0,-0.6272,-0.5719,-0.6398,-0.7147,-0.7501,-0.7408,-0.8317,-0.8998,-0.8864,-0.8891,-0.8813,-0.8903,-0.9052,-0.8988,-0.9178,-0.9278,-0.9416,-0.9632,-0.968,-0.9685,-0.9519,-0.8879,-0.8481,-0.8466,-0.7543,-0.7093,-0.8102,-0.6645,-0.5762,-0.646,-0.7444,-0.8202,-0.8575,-0.8542,-0.8533,-0.8768,-0.8618,-0.8627,-0.8509,-0.8523,-0.8523,-0.8527,-0.8523,-0.8523,-0.8371,-0.8229,-0.7929,-0.7466,-0.7466,-0.7458,-0.7425,-0.7413,-0.7274,-3.7137,-3.6686,-3.6686,-3.6448,-3.6063,-3.5036,-3.4316,-3.3774,-3.4211,-3.3947,-3.3291,-3.4234,-3.4624,-3.442,-3.5092,-3.4835,-3.3903,-3.3182,-3.3239,-3.3922,-3.3846,-3.4169,-3.4833,-3.4739,-3.4607,-3.4721,-3.4192,-3.3849,-3.3959,-3.3271,-3.2814,-3.2724,-3.2724,-3.22,-3.1289,-2.959,-2.807,-2.6803,-2.5744,-2.4543,-2.3241,-2.1548,-1.9757,-1.8275,-1.8757,-1.8583,-1.788,-1.8191,-1.8452,-1.8392,-1.5606,-1.4386,-1.5042,-1.1315,-0.957,0.0,-0.8664,0.0,0.0,0.0,0.0,0.0,0.0,0.0,0.0,-0.6958,-0.7252,-0.6436,-0.7662,-0.819,-0.7695,-0.7709,-0.7989,-0.8391,-0.8444,-0.856,-0.885,-0.9009,-0.9157,-0.9331,-0.94,-0.9296,-0.9426,-0.9113,-0.8705,-0.8241,-0.7402,-0.7156,-0.7817,-0.6196,-0.5501,-0.7461,-0.7616,-0.7626,-0.7953,-0.8165,-0.837,-0.8377,-0.8557,-0.8619,-0.8622,-0.8504,-0.8513,-0.8371,-0.8495,-0.8353,-0.7617,-0.7765,-0.7917,-0.7462,-0.745,-0.7393,-0.7567,-0.7382,-0.7283,-3.5112,-3.5,-3.4909,-3.4571,-3.4055,-3.4211,-3.376,-3.3087,-3.3739,-3.3414,-3.2533,-3.3671,-3.4157,-3.3921,-3.3744,-3.3836,-3.3713,-3.2916,-3.2973,-3.3751,-3.3315,-3.3277,-3.3619,-3.3638,-3.3884,-3.4321,-3.3352,-3.3095,-3.326,-3.2318,-3.1825,-3.1548,-3.0993,-2.9927,-2.8302,-2.766,-2.7761,-2.8465,-2.7802,-2.6163,-2.3321,-2.171,-2.0142,-1.8818,-1.8678,-1.8567,-1.8208,-1.8301,-1.8415,-1.8322,-1.5399,-1.3436,-1.2726,-0.9915,-0.8477,0.0,0.0,0.0,0.0,0.0,0.0,0.0,0.0,0.0,0.0,0.0,-0.59,-0.4396,-0.6314,-0.7288,-0.6516,-0.6784,-0.7212,-0.7545,-0.7362,-0.7512,-0.7979,-0.8577,-0.8814,-0.887,-0.8956,-0.9056,-0.9019,-0.9257,-0.9155,-0.8483,-0.7565,-0.7135,-0.7306,-0.7055,-0.6694,-0.7344,-0.7464,-0.7661,-0.7852,-0.8155,-0.8387,-0.8608,-0.8913,-0.8939,-0.8891,-0.8917,-0.8766,-0.8776,-0.8771,-0.8771,-0.848,-0.834,-0.7988,-0.7518,-0.746,-0.7594,-0.7643,-0.7335,-0.7036,-3.3976,-3.3998,-3.2504,-3.2082,-3.2438,-3.3098,-3.314,-3.2999,-3.3435,-3.307,-3.2095,-3.3046,-3.2888,-3.2084,-3.0927,-3.0995,-3.2233,-3.1317,-3.1796,-3.3106,-3.2499,-3.2205,-3.2395,-3.2395,-3.2859,-3.3429,-3.2324,-3.2204,-3.2818,-3.1557,-3.0567,-2.9768,-2.8448,-2.6687,-2.4886,-2.5677,-2.7034,-2.8782,-2.9028,-2.7169,-2.3413,-2.1764,-2.0283,-1.917,-1.8797,-1.8685,-1.8435,-1.8403,-1.8611,-1.8736,-1.5156,-1.2317,-1.0551,-0.8569,0.0,0.0,0.0,0.0,0.0,0.0,0.0,0.0,0.0,-0.2234,-0.3303,0.0,-0.4411,0.0,-0.4902,-0.6135,-0.5877,-0.6201,0.0,0.0,-0.6368,-0.6376,-0.6895,-0.771,-0.8159,-0.7905,-0.8333,-0.8602,-0.8607,-0.9152,-0.9278,-0.8623,-0.7763,-0.7236,-0.7302,-0.7828,-0.8099,-0.7464,-0.7713,-0.8011,-0.8051,-0.8261,-0.8478,-0.8951,-0.8961,-0.9122,-0.9181,-0.9186,-0.9186,-0.8905,-0.9046,-0.9133,-0.8898,-0.8703,-0.8165,-0.7727,-0.7569,-0.7649,-0.7843,-0.7289,-0.6854,-3.4856,-3.3889,-2.8975,-2.8638,-3.1431,-3.0531,-3.1557,-3.3825,-3.3108,-3.1782,-3.0447,-3.1155,-2.981,-2.6753,-2.5019,0.0,-2.7837,-2.694,-2.8367,-3.1516,-3.1478,-3.1739,-3.2395,-3.2395,-3.2556,-3.2508,-3.1566,-3.1827,-3.3,-3.1106,-2.9503,-2.7938,-2.5467,-2.3633,-2.2892,-2.4035,-2.4757,-2.5009,-2.76,-2.7064,-2.3227,-2.1562,-2.027,-1.9418,-1.9418,-1.9046,-1.8435,-1.8415,-1.8909,-1.9599,-1.4235,-1.0909,-1.0438,0.0,0.0,0.0,0.0,0.0,0.0,0.0,0.0,0.0,0.0,0.0,0.0,0.0,0.0,-0.377,-0.3891,0.0,-0.6323,-0.6133,0.0,0.0,0.0,-0.5473,-0.5779,-0.6396,-0.6815,-0.6742,0.0,0.0,-0.8348,-0.8681,-0.8687,-0.8132,-0.8232,-0.8146,-0.7912,-0.8063,-0.8364,-0.8224,-0.8266,-0.8286,-0.8302,-0.8281,-0.848,-0.8655,-0.8854,-0.8776,-0.909,-0.9149,-0.8895,-0.8604,-0.8765,-0.9063,-0.8491,-0.8494,-0.838,-0.8304,-0.7797,-0.7553,-0.8007,-0.7372,-0.6865,-3.0999,-2.8638,-2.6508,-2.6302,-2.7326,-2.704,-2.8097,-3.0012,-2.9718,-2.8906,-2.7753,-2.7579,-2.5878,-2.314,-2.1918,0.0,0.0,0.0,-2.5113,-2.8949,-2.8877,-2.9842,-3.1701,-3.2271,-3.2395,-3.2376,-3.1398,-3.1184,-3.1726,-3.0204,-2.6289,-2.0071,0.0,-1.8473,-1.7803,-2.0172,-2.2135,-2.3722,-2.5144,-2.4901,-2.3143,-2.1772,-2.0617,-1.9802,-1.9158,-1.8548,-1.7925,-1.8253,-1.7394,-1.4934,-1.2111,-0.9639,0.0,0.0,0.0,0.0,0.0,0.0,0.0,0.0,0.0,0.0,0.0,-0.195,-0.234,0.0,0.0,0.0,-0.2812,-0.3139,-0.419,-0.4827,0.0,0.0,0.0,0.0,0.0,0.0,0.0,-0.5738,-0.6525,-0.717,-0.7487,-0.7957,-0.8279,-0.7974,-0.7804,-0.7799,-0.7931,0.0,-0.772,-0.828,-0.8364,-0.8364,-0.8359,-0.839,-0.8264,-0.8312,-0.8248,-0.8317,-0.8407,-0.8544,-0.8628,-0.85,-0.85,-0.857,-0.8396,-0.837,-0.8299,-0.8401,-0.8099,-0.799,-0.8207,-0.7563,-0.692,-2.6429,0.0,0.0,0.0,0.0,-2.2731,-2.3874,-2.5666,-2.5459,-2.4866,-2.4089,-2.3747,0.0,0.0,0.0,0.0,0.0,0.0,-2.272,-2.6286,-2.7223,-2.8688,-3.0524,-3.1151,-3.1455,-3.1398,-3.0137,-2.9369,-2.8847,-2.7057,-2.2064,-1.428,0.0,0.0,0.0,0.0,-1.9675,-2.1601,-2.3071,-2.3288,-2.2374,-2.1792,-2.0974,-2.0049,-1.9182,-1.8299,-1.7527,-1.7631,-1.5755,-1.1717,-0.9633,0.0,0.0,0.0,0.0,0.0,0.0,0.0,0.0,0.0,0.0,0.0,0.0,0.0,0.0,0.0,0.0,0.0,0.0,0.0,-0.3031,-0.4055,-0.4567,0.0,0.0,0.0,0.0,0.0,0.0,0.0,0.0,0.0,-0.6668,-0.7186,-0.7636,0.0,0.0,-0.7566,-0.7807,-0.7571,-0.7551,-0.8079,-0.8269,0.0,-0.8179,-0.8128,-0.7905,-0.6914,-0.7415,-0.792,-0.7963,-0.8074,-0.8169,-0.8222,-0.8243,-0.8185,-0.8016,-0.7862,-0.7836,-0.8026,-0.7899,-0.7778,-0.7846,-0.7168,-0.6835,0.0,0.0,0.0,0.0,0.0,0.0,0.0,0.0,-2.0484,-1.9743,0.0,-1.9837,0.0,0.0,0.0,0.0,-1.6648,-1.8707,0.0,0.0,-2.7032,-2.8721,-2.874,-2.8778,-2.8835,-2.8816,-2.7325,-2.5934,-2.4259,-2.0719,0.0,0.0,0.0,0.0,0.0,0.0,-1.7463,-1.8226,-2.1893,-2.2851,-2.0867,-2.1214,-2.0961,-2.0062,-1.9418,-1.8525,-1.7449,-1.6314,-1.4395,-1.1716,-0.6643,0.0,0.0,0.0,0.0,0.0,0.0,0.0,0.0,0.0,0.0,0.0,0.0,0.0,0.0,0.0,0.0,0.0,0.0,0.0,0.0,-0.4259,0.0,0.0,0.0,0.0,0.0,0.0,0.0,0.0,0.0,-0.5712,-0.6013,-0.6409,-0.6732,-0.6959,0.0,0.0,0.0,0.0,-0.8153,-0.7621,-0.8063,-0.8195,-0.7621,-0.7532,-0.6789,-0.4641,0.0,0.0,-0.7857,-0.7767,-0.7714,-0.7883,-0.7957,-0.7799,-0.7138,-0.6679,-0.6605,-0.726,-0.6858,-0.6452,-0.6523,-0.6301,-0.6144,0.0,0.0,0.0,0.0,0.0,0.0,0.0,0.0,0.0,-1.7257,0.0,-1.6793,0.0,0.0,0.0,0.0,0.0,0.0,0.0,0.0,-2.1043,-2.2258,-2.2733,-2.3799,-2.3522,0.0,-2.1648,-1.9749,0.0,0.0,0.0,0.0,0.0,0.0,0.0,0.0,-1.5663,-1.64,-2.0197,-2.1551,-2.0321,-2.0463,-2.0102,-1.943,-1.9294,-1.8023,-1.5337,-1.4774,-1.2725,0.0,0.0,0.0,0.0,0.0,0.0,0.0,0.0,0.0,0.0,0.0,0.0,0.0,0.0,0.0,0.0,0.0,0.0,0.0,0.0,0.0,0.0,0.0,-0.3804,0.0,0.0,0.0,0.0,0.0,0.0,0.0,0.0,0.0,-0.5072,-0.5733,-0.6245,-0.6473,-0.6953,-0.741,-0.741,0.0,0.0,0.0,0.0,0.0,0.0,0.0,-0.3374,-0.5656,-0.6923,-0.7489,-0.6998,-0.6922,-0.7138,-0.7646,0.0,0.0,-0.6478,-0.6061,-0.5891,-0.6166,-0.6002,-0.5929,-0.5918,-0.5499,-0.5325,0.0,0.0,0.0,0.0,0.0,0.0,0.0,0.0,0.0,-1.347,-1.3238,0.0,0.0,0.0,0.0,0.0,0.0,0.0,0.0,0.0,0.0,0.0,-1.9032,-2.016,0.0,0.0,0.0,0.0,0.0,0.0,0.0,0.0,0.0,0.0,0.0,0.0,-1.4517,-1.5257,-1.9049,-2.0781,-2.0172,-2.027,-1.9825,-1.916,-1.9443,-1.795,-1.4327,0.0,0.0,0.0,0.0,0.0,0.0,0.0,0.0,0.0,0.0,0.0,0.0,0.0,0.0,0.0,0.0,0.0,0.0,0.0,0.0,0.0,0.0,0.0,0.0,0.0,-0.3451,0.0,0.0,0.0,0.0,0.0,0.0,0.0,0.0,0.0,0.0,-0.4978,-0.5509,-0.5981,-0.6478,-0.6901,-0.7265,-0.7174,-0.685,0.0,0.0,0.0,0.0,0.0,0.0,0.0,0.0,0.0,0.0,0.0,0.0,0.0,0.0,-0.5999,-0.549,-0.512,-0.4942,-0.4942,0.0,0.0,0.0,0.0,0.0,0.0,0.0,0.0,0.0,0.0,0.0,0.0,0.0,0.0,0.0,-0.7641,0.0,0.0,-0.7565,0.0,0.0,0.0,0.0,0.0,0.0,0.0,0.0,0.0,0.0,0.0,0.0,0.0,0.0,0.0,0.0,0.0,0.0,0.0,0.0,0.0,0.0,-1.3946,-1.4617,-1.8601,-2.0529,-2.049,-2.0516,-2.0135,-1.9263,-1.9732,-1.8232,-1.4601,0.0,0.0,0.0,0.0,0.0,0.0,0.0,0.0,0.0,0.0,0.0,0.0,0.0,0.0,0.0,0.0,0.0,0.0,0.0,0.0,0.0,0.0,0.0,0.0,0.0,0.0,-0.3412,-0.347,-0.3403,0.0,0.0,0.0,0.0,0.0,0.0,0.0,0.0,0.0,-0.5458,-0.6097,-0.661,-0.6927,-0.6969,-0.665,-0.5782,-0.4905,-0.3485,-0.1308,-0.2717,-0.5114,0.0,0.0,0.0,0.0,0.0,0.0,0.0,0.0,0.0,0.0,0.0,0.0,0.0,0.0,0.0,0.0,0.0,0.0,0.0,0.0,0.0,0.0,0.0,0.0,0.0,0.0,0.0,0.0,0.0,0.0,0.0,0.0,0.0,0.0,0.0,0.0,0.0,0.0,0.0,0.0,0.0,0.0,0.0,0.0,0.0,0.0,0.0,0.0,0.0,0.0,0.0,0.0,0.0,0.0,-1.3738,-1.392,-1.827,-2.0335,-1.9719,-2.0078,-1.9757,-1.8882,-1.9006,-1.7451,0.0,0.0,0.0,0.0,0.0,0.0,0.0,0.0,0.0,0.0,0.0,0.0,0.0,0.0,0.0,0.0,0.0,0.0,0.0,0.0,0.0,0.0,0.0,0.0,0.0,0.0,0.0,0.0,-0.4236,-0.3869,-0.3413,0.0,0.0,0.0,0.0,0.0,0.0,0.0,0.0,0.0,0.0,-0.6483,-0.6906,-0.6969,-0.6695,-0.6055,-0.3974,-0.2506,-0.272,-0.2563,-0.2801,-0.3586,0.0,0.0,0.0,0.0,0.0,0.0,0.0,0.0,0.0,0.0,0.0,0.0,0.0,0.0,0.0,0.0,0.0,0.0,0.0,0.0,0.0,0.0,0.0,0.0,0.0,0.0,0.0,0.0,0.0,0.0,0.0,0.0,0.0,0.0,0.0,0.0,0.0,0.0,0.0,0.0,0.0,0.0,0.0,0.0,0.0,0.0,0.0,0.0,0.0,0.0,0.0,0.0,0.0,-1.3323,-1.3388,-1.7867,-2.0023,-1.9462,-1.965,-1.9321,-1.8183,-1.786,-1.5874,0.0,0.0,0.0,0.0,0.0,0.0,0.0,0.0,0.0,0.0,0.0,0.0,0.0,0.0,0.0,0.0,0.0,0.0,0.0,0.0,0.0,0.0,0.0,0.0,0.0,0.0,0.0,0.0,-0.444,-0.4484,-0.3525,0.0,0.0,0.0,0.0,0.0,0.0,0.0,0.0,0.0,0.0,-0.6155,-0.6615,-0.7001,0.0,0.0,-0.4078,-0.2939,-0.37,-0.2676,-0.1726,-0.1701,-0.221,0.0,0.0,0.0,0.0,0.0,0.0,0.0,0.0,0.0,0.0,0.0,0.0,0.0,0.0,0.0,0.0,0.0,0.0,0.0,0.0,0.0,0.0,0.0,0.0,0.0,0.0,0.0,0.0,0.0,0.0,0.0,0.0,0.0,0.0,0.0,0.0,0.0,0.0,0.0,0.0,0.0,0.0,0.0,0.0,0.0,0.0,0.0,0.0,0.0,0.0,0.0,0.0,-1.279,-1.2907,-1.7283,-1.949,-1.949,-1.949,-1.8767,-1.733,-1.646,-1.3795,0.0,0.0,0.0,0.0,0.0,0.0,0.0,0.0,0.0,0.0,0.0,0.0,0.0,0.0,0.0,0.0,0.0,0.0,0.0,0.0,0.0,0.0,0.0,0.0,0.0,0.0,0.0,0.0,0.0,0.0,0.0,0.0,0.0,0.0,0.0,0.0,0.0,0.0,0.0,0.0,0.0,-0.5677,-0.6203,-0.7049,-0.7078,0.0,-0.4864,-0.4243,-0.4118,-0.2809,-0.1815,-0.1845,0.0,0.0,0.0,0.0,0.0,0.0,0.0,0.0,0.0,0.0,0.0,0.0,0.0,0.0,0.0,0.0,0.0,0.0,0.0,0.0,0.0,0.0,0.0,0.0,0.0,0.0,0.0,0.0,0.0,0.0,0.0,0.0,0.0,0.0,0.0,0.0,0.0,0.0,0.0,0.0,0.0,0.0,0.0,0.0,0.0,0.0,0.0,0.0,0.0,0.0,0.0,0.0,0.0,0.0,-1.2357,-1.6712,-1.8668,-1.7842,-1.7842,-1.7196,-1.6051,-1.511,0.0,0.0,0.0,0.0,0.0,0.0,0.0,0.0,0.0,0.0,0.0,0.0,0.0,0.0,0.0,0.0,0.0,0.0,0.0,0.0,0.0,0.0,0.0,0.0,0.0,0.0,0.0,-0.2123,0.0,0.0,0.0,0.0,0.0,0.0,0.0,0.0,0.0,0.0,0.0,0.0,0.0,0.0,-0.5982,-0.6668,-0.699,-0.6741,0.0,0.0,-0.3869,-0.2595,-0.2788,-0.307,0.0,0.0,0.0,0.0,0.0,0.0,0.0,0.0,0.0,0.0,0.0,0.0,0.0,0.0,0.0,0.0,0.0,0.0,0.0,0.0,0.0,0.0,0.0,0.0,0.0,0.0,0.0,0.0,0.0,0.0,0.0,0.0,0.0,0.0,0.0,0.0,0.0,0.0,0.0,0.0,0.0,0.0,0.0,0.0,0.0,0.0,0.0,0.0,0.0,0.0,0.0,0.0,0.0,0.0,-1.1649,-1.1568,-1.5076,-1.6721,-1.6337,-1.6043,-1.5468,-1.4671,-1.3307,-1.1208,0.0,0.0,0.0,0.0,0.0,0.0,0.0,0.0,0.0,0.0,0.0,0.0,0.0,0.0,0.0,0.0,0.0,0.0,0.0,0.0,0.0,0.0,0.0,0.0,0.0,0.0,0.0,0.0,0.0,0.0,0.0,0.0,0.0,0.0,0.0,0.0,0.0,0.0,0.0,0.0,0.0,0.0,-0.6827,-0.679,0.0,0.0,0.0,-0.3522,-0.2913,0.0,0.0,0.0,0.0,0.0,0.0,0.0,0.0,0.0,0.0,0.0,0.0,0.0,0.0,0.0,0.0,0.0,0.0,0.0,0.0,0.0,0.0,0.0,0.0,0.0,0.0,0.0,0.0,0.0,0.0,0.0,0.0,0.0,0.0,0.0,0.0,0.0,0.0,0.0,0.0,0.0,0.0,0.0,0.0,0.0,0.0,0.0,0.0,0.0,0.0,0.0,0.0,0.0,0.0,0.0,0.0,0.0,-1.0779,-1.3296,-1.469,-1.4696,-1.4133,-1.3678,-1.3189,-1.1376,-0.9572,0.0,0.0,0.0,0.0,0.0,0.0,0.0,0.0,0.0,0.0,0.0,0.0,0.0,0.0,0.0,0.0,0.0,0.0,0.0,0.0,0.0,0.0,0.0,0.0,0.0,0.0,0.0,0.0,0.0,0.0,0.0,0.0,0.0,0.0,0.0,0.0,0.0,0.0,0.0,0.0,0.0,-0.5753,-0.6658,-0.6399,-0.5743,0.0,0.0,-0.3637,-0.4422,-0.3562,0.0,0.0,0.0,0.0,0.0,0.0,0.0,0.0,0.0,0.0,0.0,0.0,0.0,0.0,0.0,0.0,0.0,0.0,0.0,0.0,0.0,0.0,0.0,0.0,0.0,0.0,0.0,0.0,0.0,0.0,0.0,0.0,0.0,0.0,0.0,0.0,0.0,0.0,0.0,0.0,0.0,0.0,0.0,0.0,0.0,0.0,0.0,0.0,0.0,0.0,0.0,0.0,0.0,0.0,0.0,0.0,-1.0533,-1.3554,-1.4552,-1.3204,-1.2517,-1.1956,-1.1543,-1.004,-0.8691,0.0,0.0,0.0,0.0,0.0,0.0,0.0,0.0,0.0,0.0,0.0,0.0,0.0,0.0,0.0,0.0,0.0,0.0,0.0,0.0,0.0,0.0,0.0,0.0,0.0,0.0,0.0,0.0,0.0,0.0,0.0,0.0,0.0,0.0,0.0,0.0,0.0,0.0,0.0,0.0,0.0,-0.5408,-0.5854,-0.5448,0.0,0.0,0.0,0.0,-0.6477,-0.3983,0.0,0.0,0.0,0.0,0.0,0.0,0.0,0.0,0.0,0.0,0.0,0.0,0.0,0.0,0.0,0.0,0.0,0.0,0.0,0.0,0.0,0.0,0.0,0.0,0.0,0.0,0.0,0.0,0.0,0.0,0.0,0.0,0.0,0.0,0.0,0.0,0.0,0.0,0.0,0.0,0.0,0.0,0.0,0.0,0.0,0.0,0.0,0.0,0.0,0.0,0.0,0.0,0.0,0.0,0.0,0.0,-1.0575,-1.26,-1.3119,-1.1863,-1.1328,-1.0886,-1.0534,-0.9499,-0.8356,0.0,0.0,0.0,0.0,0.0,0.0,0.0,0.0,0.0,0.0,0.0,0.0,0.0,0.0,0.0,0.0,0.0,0.0,0.0,0.0,0.0,0.0,0.0,0.0,0.0,0.0,0.0,0.0,0.0,0.0,0.0,0.0,0.0,0.0,0.0,0.0,0.0,0.0,0.0,0.0,-0.4896,-0.5219,-0.5575,0.0,0.0,0.0,0.0,0.0,0.0,-0.3141,-0.1749,0.0,0.0,0.0,0.0,0.0,0.0,0.0,0.0,0.0,0.0,0.0,0.0,0.0,0.0,0.0,0.0,0.0,0.0,0.0,0.0,0.0,0.0,0.0,0.0,0.0,0.0,0.0,0.0,0.0,0.0,0.0,0.0,0.0,0.0,0.0,0.0,0.0,0.0,0.0,0.0,0.0,0.0,0.0,0.0,0.0,0.0,0.0,0.0,0.0,0.0,0.0,0.0,0.0,0.0,0.0,-1.0604,-1.1504,-1.1659,-1.1106,-1.0546,-1.019,-0.9926,-0.9337,-0.8229,-0.6829,0.0,0.0,0.0,0.0,0.0,0.0,0.0,0.0,0.0,0.0,0.0,0.0,0.0,0.0,0.0,0.0,0.0,0.0,0.0,0.0,0.0,0.0,0.0,0.0,0.0,0.0,0.0,0.0,0.0,0.0,0.0,0.0,0.0,0.0,0.0,0.0,0.0,0.0,0.0,-0.4649,-0.4948,0.0,0.0,0.0,0.0,0.0,0.0,0.0,0.0,-0.233,0.0,0.0,0.0,0.0,0.0,0.0,0.0,0.0,0.0,0.0,0.0,0.0,0.0,0.0,0.0,0.0,0.0,0.0,0.0,0.0,0.0,0.0,0.0,0.0,0.0,0.0,0.0,0.0,0.0,0.0,0.0,0.0,0.0,0.0,0.0,0.0,0.0,0.0,0.0,0.0,0.0,0.0,0.0,0.0,0.0,0.0,0.0,0.0,0.0,0.0,0.0,0.0,0.0,0.0,0.0,0.0,-1.123,-1.1808,-1.1884,-1.0847,-1.018,-0.993,-0.9303,-0.8132,-0.6559,0.0,0.0,0.0,0.0,0.0,0.0,0.0,0.0,0.0,0.0,0.0,0.0,0.0,0.0,0.0,0.0,0.0,0.0,0.0,0.0,0.0,0.0,0.0,0.0,0.0,0.0,0.0,0.0,0.0,0.0,0.0,0.0,0.0,0.0,0.0,0.0,0.0,0.0,-0.2845,-0.3631,0.0,0.0,0.0,0.0,0.0,0.0,0.0,0.0,-0.3993,0.0,0.0,0.0,0.0,0.0,0.0,0.0,0.0,0.0,0.0,0.0,0.0,0.0,0.0,0.0,0.0,0.0,0.0,0.0,0.0,0.0,0.0,0.0,0.0,0.0,0.0,0.0,0.0,0.0,0.0,0.0,0.0,0.0,0.0,0.0,0.0,0.0,0.0,0.0,0.0,0.0,0.0,0.0,0.0,0.0,0.0,0.0,0.0,0.0,0.0,0.0,0.0,0.0,0.0,0.0,0.0,0.0,0.0,-1.1694,-1.1831,-1.1145,-1.0553,-0.9867,-0.8914,-0.7724,0.0,0.0,0.0,0.0,0.0,0.0,0.0,0.0,0.0,0.0,0.0,0.0,0.0,0.0,0.0,0.0,0.0,0.0,0.0,0.0,0.0,0.0,0.0,0.0,0.0,0.0,0.0,0.0,0.0,0.0,0.0,0.0,0.0,0.0,0.0,0.0,0.0,0.0,0.0,0.0,0.0,0.0,0.0,0.0,0.0,0.0,0.0,0.0,0.0,0.0,0.0,0.0,0.0,0.0,0.0,0.0,0.0,0.0,0.0,0.0,0.0,0.0,0.0,0.0,0.0,0.0,0.0,0.0,0.0,0.0,0.0,0.0,0.0,0.0,0.0,0.0,0.0,0.0,0.0,0.0,0.0,0.0,0.0,0.0,0.0,0.0,0.0,0.0,0.0,0.0,0.0,0.0,0.0,0.0,0.0,0.0,0.0,0.0,0.0,0.0,0.0,0.0,0.0,0.0,0.0,0.0,0.0,0.0,-1.1455,-1.1928,-1.1457,-1.0717,-0.9753,-0.8454,-0.7309,0.0,0.0,0.0,0.0,0.0,0.0,0.0,0.0,0.0,0.0,0.0,0.0,0.0,0.0,0.0,0.0,0.0,0.0,0.0,0.0,0.0,0.0,0.0,0.0,0.0,0.0,0.0,0.0,0.0,0.0,0.0,0.0,0.0,0.0,0.0,0.0,0.0,0.0,0.0,0.0,0.0,0.0,0.0,0.0,0.0,0.0,0.0,0.0,-0.4099,0.0,0.0,0.0,0.0,0.0,0.0,0.0,0.0,0.0,0.0,0.0,0.0,0.0,0.0,0.0,0.0,0.0,0.0,0.0,0.0,0.0,0.0,0.0,0.0,0.0,0.0,0.0,0.0,0.0,0.0,0.0,0.0,0.0,0.0,0.0,0.0,0.0,0.0,0.0,0.0,0.0,0.0,0.0,0.0,0.0,0.0,0.0,0.0,0.0,0.0,0.0,0.0,0.0,0.0,0.0,0.0,0.0,0.0,0.0,-1.0685,-1.2684,-1.1424,-1.0304,-0.941,-0.837,-0.7309,0.0,0.0,0.0,0.0,0.0,0.0,0.0,0.0,0.0,0.0,0.0,0.0,0.0,0.0,0.0,0.0,0.0,0.0,0.0,0.0,0.0,0.0,0.0,0.0,0.0,0.0,0.0,0.0,0.0,0.0,0.0,0.0,0.0,0.0,0.0,0.0,0.0,0.0,0.0,0.0,0.0,0.0,0.0,0.0,0.0,0.0,0.0,0.0,0.0,0.0,0.0,0.0,0.0,0.0,0.0,0.0,0.0,0.0,0.0,0.0,0.0,0.0,0.0,0.0,0.0,0.0,0.0,0.0,0.0,0.0,0.0,0.0,0.0,0.0,0.0,0.0,0.0,0.0,0.0,0.0,0.0,0.0,0.0,0.0,0.0,0.0,0.0,0.0,0.0,0.0,0.0,0.0,0.0,0.0,0.0,0.0,0.0,0.0,0.0,0.0,0.0,0.0,0.0,0.0,0.0,0.0,0.0,0.0,-1.0232,-1.1325,-1.1046,-1.017,-0.8511,-0.744,-0.6617,0.0,0.0,0.0,0.0,0.0,0.0,0.0,0.0,0.0,0.0,0.0,0.0,0.0,0.0,0.0,0.0,0.0,0.0,0.0,0.0,0.0,0.0,0.0,0.0,0.0,0.0,0.0,0.0,0.0,0.0,0.0,0.0,0.0,0.0,0.0,0.0,0.0,0.0,0.0,0.0,0.0,0.0,0.0,0.0,0.0,0.0,0.0,0.0,0.0,0.0,0.0,0.0,0.0,0.0,0.0,0.0,0.0,0.0,0.0,0.0,0.0,0.0,0.0,0.0,0.0,0.0,0.0,0.0,0.0,0.0,0.0,0.0,0.0,0.0,0.0,0.0,0.0,0.0,0.0,0.0,0.0,0.0,0.0,0.0,0.0,0.0,0.0,0.0,0.0,0.0,0.0,0.0,0.0,0.0,0.0,0.0,0.0,0.0,0.0,0.0,0.0,0.0,0.0,0.0,0.0,0.0,0.0,0.0,0.0,-0.9973,-1.0871,-1.0283,-0.8074,-0.7055,-0.6273,0.0,0.0,0.0,0.0,0.0,0.0,0.0,0.0,0.0,0.0,0.0,0.0,0.0,0.0,0.0,0.0,0.0,0.0,0.0,0.0,0.0,0.0,0.0,0.0,0.0,0.0,0.0,0.0,0.0,0.0,0.0,0.0,0.0,0.0,0.0,0.0,0.0,0.0,0.0,0.0,0.0,0.0,0.0,0.0,0.0,0.0,0.0,0.0,0.0,0.0,0.0,0.0,0.0,0.0,0.0,0.0,0.0,0.0,0.0,0.0,0.0,0.0,0.0,0.0,0.0,0.0,0.0,0.0,0.0,0.0,0.0,0.0,0.0,0.0,0.0,0.0,0.0,0.0,0.0,0.0,0.0,0.0,0.0,0.0,0.0,0.0,0.0,0.0,0.0,0.0,0.0,0.0,0.0,0.0,0.0,0.0,0.0,0.0,0.0,0.0,0.0,0.0,0.0,0.0,0.0,0.0,0.0,0.0,0.0,-0.8825,-1.0989,-1.0993,-0.8561,-0.7685,-0.6359,0.0,0.0,0.0,0.0,0.0,0.0,0.0,0.0,0.0,0.0,0.0,0.0,0.0,0.0,0.0,0.0,0.0,0.0,0.0,0.0,0.0,0.0,0.0,0.0,0.0,0.0,0.0,0.0,0.0,0.0,0.0,0.0,0.0,0.0,0.0,0.0,0.0,0.0,0.0,0.0,0.0,0.0,0.0,0.0,0.0,0.0,0.0,0.0,0.0,0.0,0.0,0.0,0.0,0.0,0.0,0.0,0.0,0.0,0.0,0.0,0.0,0.0,0.0,0.0,0.0,0.0,0.0,0.0,0.0,0.0,0.0,0.0,0.0,0.0,0.0,0.0,0.0,0.0,0.0,0.0,0.0,0.0,0.0,0.0,0.0,0.0,0.0,0.0,0.0,0.0,0.0,0.0,0.0,0.0,0.0,0.0,0.0,0.0,0.0,0.0,0.0,0.0,0.0,0.0,0.0,0.0,0.0,0.0,0.0,-0.7193,-0.881,-0.8959,-0.7524,-0.6544,-0.5674,-0.483,0.0,0.0,0.0,0.0,0.0,0.0,0.0,0.0,0.0,0.0,0.0,0.0,0.0,0.0,0.0,0.0,0.0,0.0,0.0,0.0,0.0,0.0,0.0,0.0,0.0,0.0,0.0,0.0,0.0,0.0,0.0,0.0,0.0,0.0,0.0,0.0,0.0,0.0,0.0,0.0,0.0,0.0,0.0,0.0,0.0,0.0,0.0,0.0,0.0,0.0,0.0,0.0,0.0,0.0,0.0,0.0,0.0,0.0,0.0,0.0,0.0,0.0,0.0,0.0,0.0,0.0,0.0,0.0,0.0,0.0,0.0,0.0,0.0,0.0,0.0,0.0,0.0,0.0,0.0,0.0,0.0,0.0,0.0,0.0,0.0,0.0,0.0,0.0,0.0,0.0,0.0,0.0,0.0,0.0,0.0,0.0,0.0,0.0,0.0,0.0,0.0,0.0,0.0,0.0,0.0,0.0,0.0,0.0,-0.6836,-0.7936,-0.8034,-0.6861,-0.6377,-0.5718,0.0,0.0,0.0,0.0,0.0,0.0,0.0,0.0,0.0,0.0,0.0,0.0,0.0,0.0,0.0,0.0,0.0,0.0,0.0,0.0,0.0,0.0,0.0,0.0,0.0,0.0,0.0,0.0,0.0,0.0,0.0,0.0,0.0,0.0,0.0,0.0,0.0,0.0,0.0,0.0,0.0,0.0,0.0,0.0,0.0,0.0,0.0,0.0,0.0,0.0,0.0,0.0,0.0,0.0,0.0,0.0,0.0,0.0,0.0,0.0,0.0,0.0,0.0,0.0,0.0,0.0,0.0,0.0,0.0,0.0,0.0,0.0,0.0,0.0,0.0,0.0,0.0,0.0,0.0,0.0,0.0,0.0,0.0,0.0,0.0,0.0,0.0,0.0,0.0,0.0,0.0,0.0,0.0,0.0,0.0,0.0,0.0,0.0,0.0,0.0,0.0,0.0,0.0,0.0,0.0,0.0,0.0,0.0,-0.7372,-0.8309,-0.9029,-0.8627,-0.7066,-0.7505,-0.67,0.0,0.0,0.0,0.0,0.0,0.0,0.0,0.0,0.0,0.0,0.0,0.0,0.0,0.0,0.0,0.0,0.0,0.0,0.0,0.0,0.0,0.0,0.0,0.0,0.0,0.0,0.0,0.0,0.0,0.0,0.0,0.0,0.0,0.0,0.0,0.0,0.0,0.0,0.0,0.0,0.0,0.0,0.0,0.0,0.0,0.0,0.0,0.0,0.0,0.0,0.0,0.0,0.0,0.0,0.0,0.0,0.0,0.0,0.0,0.0,0.0,0.0,0.0,0.0,0.0,0.0,0.0,0.0,0.0,0.0,0.0,0.0,0.0,0.0,0.0,0.0,0.0,0.0,0.0,0.0,0.0,0.0,0.0,0.0,0.0,0.0,0.0,0.0,0.0,0.0,0.0,0.0,0.0,0.0,0.0,0.0,0.0,0.0,0.0,0.0,0.0,0.0,0.0,0.0,0.0,0.0,0.0,0.0,0.0,-0.7293,0.0,-0.7781,0.0,-0.7192,-0.6718,0.0,0.0,0.0,0.0,0.0,0.0,0.0,0.0,0.0,0.0,0.0,0.0,0.0,0.0,0.0,0.0,0.0,0.0,0.0,0.0,0.0,0.0,0.0,0.0,0.0,0.0,0.0,0.0,0.0,0.0,0.0,0.0,0.0,0.0,0.0,0.0,0.0,0.0,0.0,0.0,0.0,0.0,0.0,0.0,0.0,0.0,0.0,0.0,0.0,0.0,0.0,0.0,0.0,0.0,0.0,0.0,0.0,0.0,0.0,0.0,0.0,0.0,0.0,0.0,0.0,0.0,0.0,0.0,0.0,0.0,0.0,0.0,0.0,0.0,0.0,0.0,0.0,0.0,0.0,0.0,0.0,0.0,0.0,0.0,0.0,0.0,0.0,0.0,0.0,0.0,0.0,0.0,0.0,0.0,0.0,0.0,0.0,0.0,0.0,0.0,0.0,0.0,0.0,0.0,0.0,0.0,0.0,0.0,0.0,-0.707,-0.6909,-0.7093,-0.7602,-0.7221,-0.6875,0.0,0.0,0.0,0.0,0.0,0.0,0.0,0.0,0.0,0.0,0.0,0.0,0.0,0.0,0.0,0.0,0.0,0.0,0.0,0.0,0.0,0.0,0.0,0.0,0.0,0.0,0.0,0.0,0.0,0.0,0.0,0.0,0.0,0.0,0.0,0.0,0.0,0.0,0.0,0.0,0.0,0.0,0.0,0.0,0.0,0.0,0.0,0.0,0.0,0.0,0.0,0.0,0.0,0.0,0.0,0.0,0.0,0.0,0.0,0.0,0.0,0.0,0.0,0.0,0.0,0.0,0.0,0.0,0.0,0.0,0.0,0.0,0.0,0.0,0.0,0.0,0.0,0.0,0.0,0.0,0.0,0.0,0.0,0.0,0.0,0.0,0.0,0.0,0.0,0.0,0.0,0.0,0.0,0.0,0.0,0.0,0.0,0.0,0.0,0.0,0.0,0.0,0.0,0.0,0.0,0.0,0.0,0.0,0.0,-0.7493,-0.7012,-0.6771,-0.6864,-0.7581,-0.7214,0.0,0.0,0.0,0.0,0.0,0.0,0.0,0.0,0.0,0.0,0.0,0.0,0.0,0.0,0.0,0.0,0.0,0.0,0.0,0.0,0.0,0.0,0.0,0.0,0.0,0.0,0.0,0.0,0.0,0.0,0.0,0.0,0.0,0.0,0.0,0.0,0.0,0.0,0.0,0.0,0.0,0.0,0.0,0.0,0.0,0.0,0.0,0.0,0.0,0.0,0.0,0.0,0.0,0.0,0.0,0.0,0.0,0.0,0.0,0.0,0.0,0.0,0.0,0.0,0.0,0.0,0.0,0.0,0.0,0.0,0.0,0.0,0.0,0.0,0.0,0.0,0.0,0.0,0.0,0.0,0.0,0.0,0.0,0.0,0.0,0.0,0.0,0.0,0.0,0.0,0.0,0.0,0.0,0.0,0.0,0.0,0.0,0.0,0.0,0.0,0.0,0.0,0.0,0.0,0.0,0.0,0.0,0.0,0.0,0.0,-0.7297,-0.7451,-0.7492,-0.7708,-0.7428,-0.6609,0.0,0.0,0.0,0.0,0.0,0.0,0.0,0.0,0.0,0.0,0.0,0.0,0.0,0.0,0.0,0.0,0.0,0.0,0.0,0.0,0.0,0.0,0.0,0.0,0.0,0.0,0.0,0.0,0.0,0.0,0.0,0.0,0.0,0.0,0.0,0.0,0.0,0.0,0.0,0.0,0.0,0.0,0.0,0.0,0.0,0.0,0.0,0.0,0.0,0.0,0.0,0.0,0.0,0.0,0.0,0.0,0.0,0.0,0.0,0.0,0.0,0.0,0.0,0.0,0.0,0.0,0.0,0.0,0.0,0.0,0.0,0.0,0.0,0.0,0.0,0.0,0.0,0.0,0.0,0.0,0.0,0.0,0.0,0.0,0.0,0.0,0.0,0.0,0.0,0.0,0.0,0.0,0.0,0.0,0.0,0.0,0.0,0.0,0.0,0.0,0.0,0.0,0.0,0.0,0.0,0.0,0.0,0.0,0.0,0.0,-0.7479,-0.7759,-0.7759,-0.7485,0.0,0.0,0.0,0.0,0.0,0.0,0.0,0.0,0.0,0.0,0.0,0.0,0.0,0.0,0.0,0.0,0.0,0.0,0.0,0.0,0.0,0.0,0.0,0.0,0.0,0.0,0.0,0.0,0.0,0.0,0.0,0.0,0.0,0.0,0.0,0.0,0.0,0.0,0.0,0.0,0.0,0.0,0.0,0.0,0.0,0.0,0.0,0.0,0.0,0.0,0.0,0.0,0.0,0.0,0.0,0.0,0.0,0.0,0.0,0.0,0.0,0.0,0.0,0.0,0.0,0.0,0.0,0.0,0.0,0.0,0.0,0.0,0.0,0.0,0.0,0.0,0.0,0.0,0.0,0.0,0.0,0.0,0.0,0.0,0.0,0.0,0.0,0.0,0.0,0.0,0.0,0.0,0.0,0.0,0.0,0.0,0.0,0.0,0.0,0.0,0.0,0.0,0.0,0.0,0.0,0.0,0.0,0.0,0.0,0.0,0.0,-0.7198,-0.7681,-0.7785,0.0,-0.6908,0.0,0.0,0.0,0.0,0.0,0.0,0.0,0.0,0.0,0.0,0.0,0.0,0.0,0.0,0.0,0.0,0.0,0.0,0.0,0.0,0.0,0.0,0.0,0.0,0.0,0.0,0.0,0.0,0.0,0.0,0.0,0.0,0.0,0.0,0.0,0.0,0.0,0.0,0.0,0.0,0.0,0.0,0.0,0.0,0.0,0.0,0.0,0.0,0.0,0.0,0.0,0.0,0.0,0.0,0.0,0.0,0.0,0.0,0.0,0.0,0.0,0.0,0.0,0.0,0.0,0.0,0.0,0.0,0.0,0.0,0.0,0.0,0.0,0.0,0.0,0.0,0.0,0.0,0.0,0.0,0.0,0.0,0.0,0.0,0.0,0.0,0.0,0.0,0.0,0.0,0.0,0.0,0.0,0.0,0.0,0.0,0.0,0.0,0.0,0.0,0.0,0.0,0.0,0.0,0.0,0.0,0.0,0.0,0.0,0.0,0.0,0.0,-0.7908,-0.7895,-0.6854,0.0,0.0,0.0,0.0,0.0,0.0,0.0,0.0,0.0,0.0,0.0,0.0,0.0,0.0,0.0,0.0,0.0,0.0,0.0,0.0,0.0,0.0,0.0,0.0,0.0,0.0,0.0,0.0,0.0,0.0,0.0,0.0,0.0,0.0,0.0,0.0,0.0,0.0,0.0,0.0,0.0,0.0,0.0,0.0,0.0,0.0,0.0,0.0,0.0,0.0,0.0,0.0,0.0,0.0,0.0,0.0,0.0,0.0,0.0,0.0,0.0,0.0,0.0,0.0,0.0,0.0,0.0,0.0,0.0,0.0,0.0,0.0,0.0,0.0,0.0,0.0,0.0,0.0,0.0,0.0,0.0,0.0,0.0,0.0,0.0,0.0,0.0,0.0,0.0,0.0,0.0,0.0,0.0,0.0,0.0,0.0,0.0,0.0,0.0,0.0,0.0,0.0,0.0,0.0,0.0,0.0,0.0,0.0,0.0,0.0,-0.7857,-0.6854,-0.7481,-0.7519,-0.6799,0.0,0.0,0.0,0.0,0.0,0.0,0.0,0.0,0.0,0.0,0.0,0.0,0.0,0.0,0.0,0.0,0.0,0.0,0.0,0.0,0.0,0.0,0.0,0.0,0.0,0.0,0.0,0.0,0.0,0.0,0.0,0.0,0.0,0.0,0.0,0.0,0.0,0.0,0.0,0.0,0.0,0.0,0.0,0.0,0.0,0.0,0.0,0.0,0.0,0.0,0.0,0.0,0.0,0.0,0.0,0.0,0.0,0.0,0.0,0.0,0.0,0.0,0.0,0.0,0.0,0.0,0.0,0.0,0.0,0.0,0.0,0.0,0.0,0.0,0.0,0.0,0.0,0.0,0.0,0.0,0.0,0.0,0.0,0.0,0.0,0.0,0.0,0.0,0.0,0.0,0.0,0.0,0.0,0.0,0.0,0.0,0.0,0.0,0.0,0.0,0.0,0.0,0.0,0.0,0.0,0.0,0.0,0.0,0.0,0.0,0.0,0.0,0.0,0.0,-0.6799,0.0,0.0,0.0,0.0,0.0,0.0,0.0,0.0,0.0,0.0,0.0,0.0,0.0,0.0,0.0,0.0,0.0,0.0,0.0,0.0,0.0,0.0,0.0,0.0,0.0,0.0,0.0,0.0,0.0,0.0,0.0,0.0,0.0,0.0,0.0,0.0,0.0,0.0,0.0,0.0,0.0,0.0,0.0,0.0,0.0,0.0,0.0,0.0,0.0,0.0,0.0,0.0,0.0,0.0,0.0,0.0,0.0,0.0,0.0,0.0,0.0,0.0,0.0,0.0,0.0,0.0,0.0,0.0,0.0,0.0,0.0,0.0,0.0,0.0,0.0,0.0,0.0,0.0,0.0,0.0,0.0,0.0,0.0,0.0,0.0,0.0,0.0,0.0,0.0,0.0,0.0,0.0,0.0,0.0,0.0,0.0,0.0,0.0,0.0,0.0,0.0,0.0,0.0,0.0,0.0,0.0,0.0,0.0,0.0,0.0,0.0,0.0,0.0,0.0,0.0,0.0,0.0,0.0,0.0,0.0,0.0,0.0,0.0,0.0,0.0,0.0,0.0,0.0,0.0,0.0,0.0,0.0,0.0,0.0,0.0,0.0,0.0,0.0,0.0,0.0,0.0,0.0,0.0,0.0,0.0,0.0,0.0,0.0,0.0,0.0,0.0,0.0,0.0,0.0,0.0,0.0,0.0,0.0,0.0,0.0,0.0,0.0,0.0,0.0,0.0,0.0,0.0,0.0,0.0,0.0,0.0,0.0,0.0,0.0,0.0,0.0,0.0,0.0,0.0,0.0,0.0,0.0,0.0,0.0,0.0,0.0,0.0,0.0,0.0,0.0,0.0,0.0,0.0,0.0,0.0,0.0,0.0,0.0,0.0,0.0,0.0,0.0,0.0,0.0,0.0,0.0,0.0,0.0,0.0,0.0,0.0,0.0,0.0,0.0,0.0,0.0,0.0,0.0,0.0,0.0,0.0,0.0,0.0,0.0,0.0,0.0,0.0,0.0,0.0,0.0,0.0,0.0,0.0,0.0,0.0,0.0,0.0,0.0,0.0,0.0,0.0,0.0,0.0,0.0,0.0,0.0,0.0,0.0,0.0,0.0,0.0,0.0,0.0,0.0,0.0,0.0,0.0,0.0,0.0,0.0,0.0,0.0,0.0,0.0,0.0,0.0,0.0,0.0,0.0,0.0,0.0,0.0,0.0,0.0,0.0,0.0,0.0,0.0,0.0,0.0,0.0,0.0,0.0,0.0,0.0,0.0,0.0,0.0,0.0,0.0,0.0,0.0,0.0,0.0,0.0,0.0,0.0,0.0,0.0,0.0,0.0,0.0,0.0,0.0,0.0,0.0,0.0,0.0,0.0,0.0,0.0,0.0,0.0,0.0,0.0,0.0,0.0,0.0,0.0,0.0,0.0,0.0,0.0,0.0,0.0,0.0,0.0,0.0,0.0,0.0,0.0,0.0,0.0,0.0,0.0,0.0,0.0,0.0,0.0,0.0,0.0,0.0,0.0,0.0,0.0,0.0,0.0,0.0,0.0,0.0,0.0,0.0,0.0,0.0,0.0,0.0,0.0,0.0,0.0,0.0,0.0,0.0,0.0,0.0,0.0,0.0,0.0,0.0,0.0,0.0,0.0,0.0,0.0,0.0,0.0,0.0,0.0,0.0,0.0,0.0,0.0,0.0,0.0,0.0,0.0,0.0,0.0,0.0,0.0,0.0,0.0,0.0,0.0,0.0,0.0,0.0,0.0,0.0,0.0,0.0,0.0,0.0,0.0,0.0,0.0,0.0,0.0,0.0,0.0,0.0,0.0,0.0,0.0,0.0,0.0,0.0,0.0,0.0,0.0,0.0,0.0,0.0,0.0,0.0,0.0,0.0,0.0,0.0,0.0,0.0,0.0,0.0,0.0,0.0,0.0,0.0,0.0,0.0,0.0,0.0,0.0,0.0,0.0,0.0,0.0,0.0,0.0,0.0,0.0,0.0,0.0,0.0,0.0,0.0,0.0,0.0,0.0,0.0,0.0,0.0,0.0,0.0,0.0,0.0,0.0,0.0,0.0,0.0,0.0,0.0,0.0,0.0,0.0,0.0,0.0,0.0,0.0,0.0,0.0,0.0,0.0,0.0,0.0,0.0,0.0,0.0,0.0,0.0,0.0,0.0,0.0,0.0,0.0,0.0,0.0,0.0,0.0,0.0,0.0,0.0,0.0,0.0,0.0,0.0,0.0,0.0,0.0,0.0,0.0,0.0,0.0,0.0,0.0,0.0,0.0,0.0,0.0,0.0,0.0,0.0,0.0,0.0,0.0,0.0,0.0,0.0,0.0,0.0,0.0,0.0,0.0,0.0,0.0,0.0,0.0,0.0,0.0,0.0,0.0,0.0,0.0,0.0,0.0,0.0,0.0,0.0,0.0,0.0,0.0,0.0,0.0,0.0,0.0,0.0,0.0,0.0,0.0,0.0,0.0,0.0,0.0,0.0,0.0,0.0,0.0,0.0,0.0,0.0,0.0,0.0,0.0,0.0,0.0,0.0,0.0,0.0,0.0,0.0,0.0,0.0,0.0,0.0,0.0,0.0,0.0,0.0,0.0,0.0,0.0,0.0,0.0,0.0,0.0,0.0,0.0,0.0,0.0,0.0,0.0,0.0,0.0,0.0,0.0,0.0,0.0,0.0,0.0,0.0,0.0,0.0,0.0,0.0,0.0,0.0,0.0,0.0,0.0,0.0,0.0,0.0,0.0,0.0,0.0,0.0,0.0,0.0,0.0,0.0,0.0,0.0,0.0,0.0,0.0,0.0,0.0,0.0,0.0,0.0,0.0,0.0,0.0,0.0,0.0,0.0,0.0,0.0,0.0,0.0,0.0,0.0,0.0,0.0,0.0,0.0,0.0,0.0,0.0,0.0,0.0,0.0,0.0,0.0,0.0,0.0,0.0,0.0,0.0,0.0,0.0,0.0,0.0,0.0,0.0,0.0,0.0,0.0,0.0,0.0,0.0,0.0,0.0,0.0,0.0,0.0,0.0,0.0,0.0,0.0,0.0,0.0,0.0,0.0,0.0,0.0,0.0,0.0,0.0,0.0,0.0,0.0,0.0,0.0,0.0,0.0,0.0,0.0,0.0,0.0,0.0,0.0,0.0,0.0,0.0,0.0,0.0,0.0,0.0,0.0,0.0,0.0,0.0,0.0,0.0,0.0,0.0,0.0,0.0,0.0,0.0,0.0,0.0,0.0,0.0,0.0,0.0,0.0,0.0,0.0,0.0,0.0,0.0,0.0,0.0,0.0,0.0,0.0,0.0,0.0,0.0,0.0,0.0,0.0,0.0,0.0,0.0,0.0,0.0,0.0,0.0,0.0,0.0,0.0,0.0,0.0,0.0,0.0,0.0,0.0,0.0,0.0,0.0,0.0,0.0,0.0,0.0,0.0,0.0,0.0,0.0,0.0,0.0,0.0,0.0,0.0,0.0,0.0,0.0,0.0,0.0,0.0,0.0,0.0,0.0,0.0,0.0,0.0,0.0,0.0,0.0,0.0,0.0,0.0,0.0,0.0,0.0,0.0,0.0,0.0,0.0,0.0,0.0,0.0,0.0,0.0,0.0,0.0,0.0,0.0,0.0,0.0,0.0,0.0,0.0,0.0,0.0,0.0,0.0,0.0,0.0,0.0,0.0,0.0,0.0,0.0,0.0,0.0,0.0,0.0,0.0,0.0,0.0,0.0,0.0,0.0,0.0,0.0,0.0,0.0,0.0,0.0,0.0,0.0,0.0,0.0,0.0,0.0,0.0,0.0,0.0,0.0,0.0,0.0,0.0,0.0,0.0,0.0,0.0,0.0,0.0,0.0,0.0,0.0,0.0,0.0,0.0,0.0,0.0,0.0,0.0,0.0,0.0,0.0,0.0,0.0,0.0,0.0,0.0,0.0,0.0,0.0,0.0,0.0,0.0,0.0,0.0,0.0,0.0,0.0,0.0,0.0,0.0,0.0,0.0,0.0,0.0,0.0,0.0,0.0,0.0,0.0,0.0,0.0,0.0,0.0,0.0,0.0,0.0,0.0,0.0,0.0,0.0,0.0,0.0,0.0,0.0,0.0,0.0,0.0,0.0,0.0,0.0,0.0,0.0,0.0,0.0,0.0,0.0,0.0,0.0,0.0,0.0,0.0,0.0,0.0,0.0,0.0,0.0,0.0,0.0,0.0,0.0,0.0,0.0,0.0,0.0,0.0,0.0,0.0,0.0,0.0,0.0,0.0,0.0,0.0,0.0,0.0,0.0,0.0,0.0,0.0,0.0,0.0,0.0,0.0,0.0,0.0,0.0,0.0,0.0,0.0,0.0,0.0,0.0,0.0,0.0,0.0,0.0,0.0]}]]]